[[{"header":{"parameterUnit":"m.s-1","parameterCategory":1,"la1":31.0,"la2":29.5877,"lo1":-88.7671,"lo2":-86.6584,"dy":0.0162,"dx":0.0185,"nx":115,"ny":88,"refTime":"2023-05-03T06:00:00:Z","depth":0,"parameterNumber":2,"parameterNumberName":"U-component_of_WINDS"},"data":[0.0,0.0,0.0,0.0,0.0,0.0,0.0,0.0,0.0,0.0,0.0,0.0,0.0,0.0,0.0,0.0,0.0,0.0,0.0,0.0,0.0,0.0,0.0,0.0,0.0,0.0,0.0,0.0,0.0,0.0,0.0,0.0,0.0,0.0,0.0,0.0,0.0,0.0,0.0,0.0,0.0,0.0,0.0,0.0,0.0,0.0,0.0,0.0,0.0,0.0,0.0,0.0,0.0,0.0,0.0,0.0,0.0,0.0,0.0,0.0,0.0,0.0,0.0,0.0,0.0,0.0,0.0,0.0,0.0,0.0,0.0,0.0,0.0,0.0,0.0,0.0,0.0,0.0,0.0,0.0,0.0,0.0,0.0,0.0,0.0,0.0,0.0,0.0,0.0,0.0,0.0,0.0,0.0,0.0,0.0,0.0,0.0,0.0,0.0,0.0,0.0,0.0,0.0,0.0,0.0,0.0,0.0,0.0,0.0,0.0,0.0,0.0,0.0,0.0,0.0,0.0,0.0,0.0,0.0,0.0,0.0,0.0,0.0,0.0,0.0,0.0,0.0,0.0,0.0,0.0,0.0,0.0,0.0,0.0,0.0,0.0,0.0,0.0,0.0,0.0,0.0,0.0,0.0,0.0,0.0,0.0,0.0,0.0,0.0,0.0,0.0,0.0,0.0,0.0,0.0,0.0,0.0,0.0,0.0,0.0,0.0,0.0,0.0,0.0,0.0,0.0,0.0,0.0,0.0,0.0,0.0,0.0,0.0,0.0,0.0,0.0,0.0,0.0,0.0,0.0,0.0,0.0,0.0,0.0,0.0,0.0,0.0,0.0,0.0,0.0,0.0,0.0,0.0,0.0,0.0,0.0,0.0,0.0,0.0,0.0,0.0,0.0,0.0,0.0,0.0,0.0,0.0,0.0,0.0,0.0,0.0,0.0,0.0,0.0,0.0,0.0,0.0,0.0,0.0,0.0,0.0,0.0,0.0,0.0,0.0,0.0,0.0,0.0,0.0,0.0,0.0,0.0,0.0,0.0,0.0,0.0,0.0,0.0,0.0,0.0,0.0,0.0,0.0,0.0,0.0,0.0,0.0,0.0,0.0,0.0,0.0,0.0,0.0,0.0,0.0,0.0,0.0,0.0,0.0,0.0,0.0,0.0,0.0,0.0,0.0,0.0,0.0,0.0,0.0,0.0,0.0,0.0,0.0,0.0,0.0,0.0,0.0,0.0,0.0,0.0,0.0,0.0,0.0,0.0,0.0,0.0,0.0,0.0,0.0,0.0,0.0,0.0,0.0,0.0,0.0,0.0,0.0,0.0,0.0,0.0,0.0,0.0,0.0,0.0,0.0,0.0,0.0,0.0,0.0,0.0,0.0,0.0,0.0,0.0,0.0,0.0,0.0,0.0,0.0,0.0,0.0,0.0,0.0,0.0,0.0,0.0,0.0,0.0,0.0,0.0,0.0,0.0,0.0,0.0,0.0,0.0,0.0,0.0,0.0,0.0,0.0,0.0,0.0,0.0,0.0,0.0,0.0,0.0,0.0,0.0,0.0,0.0,0.0,0.0,0.0,0.0,0.0,0.0,0.0,0.0,0.0,0.0,0.0,0.0,0.0,0.0,0.0,0.0,0.0,0.0,0.0,0.0,0.0,0.0,0.0,0.0,0.0,0.0,0.0,0.0,0.0,0.0,0.0,0.0,0.0,0.0,0.0,0.0,0.0,0.0,0.0,0.0,0.0,0.0,0.0,0.0,0.0,0.0,0.0,0.0,0.0,0.0,0.0,0.0,0.0,0.0,0.0,0.0,0.0,0.0,0.0,0.0,0.0,0.0,0.0,0.0,0.0,0.0,0.0,0.0,0.0,0.0,0.0,0.0,0.0,0.0,0.0,0.0,0.0,0.0,0.0,0.0,0.0,0.0,0.0,0.0,0.0,0.0,0.0,0.0,0.0,0.0,0.0,0.0,0.0,0.0,0.0,0.0,0.0,0.0,0.0,0.0,0.0,0.0,0.0,0.0,0.0,0.0,0.0,0.0,0.0,0.0,0.0,0.0,0.0,0.0,0.0,0.0,0.0,0.0,0.0,0.0,0.0,0.0,0.0,0.0,0.0,0.0,0.0,0.0,0.0,0.0,0.0,0.0,0.0,0.0,0.0,0.0,0.0,0.0,0.0,0.0,0.0,0.0,0.0,0.0,0.0,0.0,0.0,0.0,0.0,0.0,0.0,0.0,0.0,0.0,0.0,0.0,0.0,0.0,0.0,0.0,0.0,0.0,0.0,0.0,0.0,0.0,0.0,0.0,0.0,0.0,0.0,0.0,0.0,0.0,0.0,0.0,0.0,0.0,0.0,0.0,0.0,0.0,0.0,0.0,0.0,0.0,0.0,0.0,0.0,0.0,0.0,0.0,0.0,0.0,0.0,0.0,0.0,0.0,0.0,0.0,0.0,0.0,0.0,0.0,0.0,0.0,0.0,0.0,0.0,0.0,0.0,0.0,0.0,0.0,0.0,0.0,0.0,0.0,0.0,0.0,0.0,0.0,0.0,0.0,0.0,0.0,0.0,0.0,0.0,0.0,0.0,0.0,0.0,0.0,0.0,0.0,0.0,0.0,0.0,0.0,0.0,0.0,0.0,0.0,0.0,0.0,0.0,0.0,0.0,0.0,0.0,0.0,0.0,0.0,0.0,0.0,0.0,0.0,0.0,0.0,0.0,0.0,0.0,0.0,0.0,0.0,0.0,0.0,0.0,0.0,0.0,0.0,0.0,0.0,0.0,0.0,0.0,0.0,0.0,0.0,0.0,0.0,0.0,0.0,0.0,0.0,0.0,0.0,0.0,0.0,0.0,0.0,0.0,0.0,0.0,0.0,0.0,0.0,0.0,0.0,0.0,0.0,0.0,0.0,0.0,0.0,0.0,0.0,0.0,0.0,0.0,0.0,0.0,0.0,0.0,0.0,0.0,0.0,0.0,0.0,0.0,0.0,0.0,0.0,0.0,0.0,0.0,0.0,0.0,0.0,0.0,0.0,0.0,0.0,0.0,0.0,0.0,0.0,0.0,0.0,0.0,0.0,0.0,0.0,0.0,0.0,0.0,0.0,0.0,0.0,0.0,0.0,0.0,0.0,0.0,0.0,0.0,0.0,0.0,0.0,0.0,0.0,0.0,0.0,0.0,0.0,0.0,0.0,0.0,0.0,0.0,0.0,0.0,0.0,0.0,0.0,0.0,0.0,0.0,0.0,0.0,0.0,0.0,0.0,0.0,0.0,0.0,0.0,0.0,0.0,0.0,0.0,0.0,0.0,0.0,0.0,0.0,0.0,0.0,0.0,0.0,0.0,0.0,0.0,0.0,0.0,0.0,0.0,0.0,0.0,0.0,0.0,0.0,0.0,0.0,0.0,0.0,0.0,0.0,0.0,0.0,0.0,0.0,0.0,0.0,0.0,0.0,0.0,0.0,0.0,0.0,0.0,0.0,0.0,0.0,0.0,0.0,0.0,0.0,0.0,0.0,0.0,0.0,0.0,0.0,0.0,0.0,0.0,0.0,0.0,0.0,0.0,0.0,0.0,0.0,0.0,0.0,0.0,0.0,0.0,0.0,0.0,0.0,0.0,0.0,0.0,0.0,0.0,0.0,0.0,0.0,0.0,0.0,0.0,0.0,0.0,0.0,0.0,0.0,0.0,0.0,0.0,0.0,0.0,0.0,0.0,0.0,0.0,0.0,0.0,0.0,0.0,0.0,0.0,0.0,0.0,0.0,0.0,0.0,0.0,0.0,0.0,0.0,0.0,0.0,0.0,0.0,0.0,0.0,0.0,0.0,0.0,0.0,0.0,0.0,0.0,0.0,0.0,0.0,0.0,0.0,0.0,0.0,0.0,0.0,0.0,0.0,0.0,0.0,0.0,0.0,0.0,0.0,0.0,0.0,0.0,0.0,0.0,0.0,0.0,0.0,0.0,0.0,0.0,0.0,0.0,0.0,0.0,0.0,0.0,0.0,0.0,0.0,0.0,0.0,0.0,0.0,0.0,0.0,0.0,0.0,0.0,0.0,0.0,0.0,0.0,0.0,0.0,0.0,0.0,0.0,0.0,0.0,0.0,0.0,0.0,0.0,0.0,0.0,0.0,0.0,0.0,0.0,0.0,0.0,0.0,0.0,0.0,0.0,0.0,0.0,0.0,0.0,0.0,0.0,0.0,0.0,0.0,0.0,0.0,0.0,0.0,0.0,0.0,0.0,0.0,0.0,0.0,0.0,0.0,0.0,0.0,0.0,0.0,-3.0259,0.0,0.0,0.0,0.0,0.0,0.0,0.0,0.0,0.0,0.0,0.0,0.0,0.0,0.0,0.0,0.0,0.0,0.0,0.0,0.0,0.0,0.0,0.0,0.0,0.0,0.0,0.0,0.0,0.0,0.0,0.0,0.0,0.0,0.0,0.0,0.0,0.0,0.0,0.0,0.0,0.0,0.0,0.0,0.0,0.0,0.0,0.0,0.0,0.0,0.0,0.0,0.0,0.0,0.0,0.0,0.0,0.0,0.0,0.0,0.0,0.0,0.0,0.0,0.0,0.0,0.0,0.0,0.0,0.0,0.0,0.0,0.0,0.0,0.0,0.0,0.0,0.0,0.0,0.0,0.0,0.0,0.0,0.0,0.0,0.0,0.0,0.0,0.0,0.0,0.0,0.0,0.0,0.0,0.0,0.0,0.0,0.0,0.0,0.0,0.0,0.0,0.0,0.0,0.0,0.0,0.0,0.0,0.0,0.0,0.0,-3.3313,-3.2439,-3.1515,-3.086,-3.0485,0.0,0.0,0.0,0.0,0.0,0.0,0.0,0.0,0.0,0.0,0.0,0.0,0.0,0.0,0.0,0.0,0.0,0.0,0.0,0.0,0.0,0.0,0.0,0.0,0.0,0.0,0.0,0.0,0.0,0.0,0.0,0.0,0.0,0.0,0.0,0.0,0.0,0.0,0.0,0.0,0.0,0.0,0.0,0.0,0.0,0.0,0.0,0.0,0.0,0.0,0.0,0.0,0.0,0.0,0.0,0.0,0.0,0.0,0.0,0.0,0.0,0.0,0.0,0.0,0.0,0.0,0.0,0.0,0.0,0.0,0.0,0.0,0.0,0.0,0.0,0.0,0.0,0.0,0.0,0.0,0.0,0.0,0.0,0.0,0.0,0.0,0.0,0.0,0.0,0.0,0.0,0.0,0.0,0.0,0.0,0.0,0.0,0.0,0.0,0.0,0.0,0.0,0.0,0.0,0.0,0.0,0.0,0.0,0.0,0.0,0.0,0.0,-3.2256,-3.1424,-3.0656,0.0,0.0,0.0,0.0,0.0,0.0,0.0,0.0,0.0,0.0,0.0,0.0,0.0,0.0,0.0,0.0,0.0,0.0,0.0,0.0,0.0,0.0,0.0,0.0,0.0,0.0,0.0,0.0,0.0,0.0,0.0,0.0,0.0,0.0,0.0,0.0,0.0,0.0,0.0,0.0,0.0,0.0,0.0,0.0,0.0,0.0,0.0,0.0,0.0,0.0,0.0,0.0,0.0,0.0,0.0,0.0,0.0,0.0,0.0,0.0,0.0,0.0,0.0,0.0,0.0,0.0,0.0,0.0,0.0,0.0,0.0,0.0,0.0,0.0,0.0,0.0,0.0,0.0,0.0,0.0,0.0,0.0,0.0,0.0,0.0,0.0,0.0,0.0,0.0,0.0,0.0,0.0,0.0,0.0,0.0,0.0,0.0,0.0,0.0,0.0,0.0,0.0,0.0,0.0,0.0,0.0,0.0,0.0,0.0,0.0,-3.3982,-3.3126,-3.2237,0.0,-3.0675,0.0,0.0,0.0,0.0,0.0,0.0,0.0,0.0,0.0,0.0,0.0,0.0,0.0,0.0,0.0,0.0,0.0,0.0,0.0,0.0,0.0,0.0,0.0,0.0,0.0,0.0,0.0,0.0,0.0,0.0,0.0,0.0,0.0,0.0,0.0,0.0,0.0,0.0,0.0,0.0,0.0,0.0,0.0,0.0,0.0,0.0,0.0,0.0,0.0,0.0,0.0,0.0,0.0,0.0,0.0,0.0,0.0,0.0,0.0,0.0,0.0,0.0,0.0,0.0,0.0,0.0,0.0,0.0,0.0,0.0,0.0,0.0,0.0,0.0,0.0,0.0,0.0,0.0,0.0,0.0,0.0,0.0,0.0,0.0,0.0,0.0,0.0,0.0,0.0,0.0,0.0,0.0,0.0,0.0,0.0,0.0,0.0,0.0,0.0,0.0,0.0,0.0,0.0,0.0,0.0,0.0,0.0,0.0,0.0,0.0,-3.4524,-3.3146,-3.1792,-3.0926,0.0,0.0,0.0,0.0,0.0,0.0,0.0,0.0,0.0,0.0,0.0,0.0,0.0,0.0,0.0,0.0,0.0,0.0,0.0,0.0,0.0,0.0,0.0,0.0,0.0,0.0,0.0,0.0,0.0,0.0,0.0,0.0,0.0,0.0,0.0,0.0,0.0,0.0,0.0,0.0,0.0,0.0,0.0,0.0,0.0,0.0,0.0,0.0,0.0,0.0,0.0,0.0,0.0,0.0,0.0,0.0,0.0,0.0,0.0,0.0,0.0,0.0,0.0,0.0,0.0,0.0,0.0,0.0,0.0,0.0,0.0,0.0,0.0,0.0,0.0,0.0,0.0,0.0,0.0,0.0,0.0,0.0,0.0,0.0,0.0,0.0,0.0,0.0,0.0,0.0,0.0,0.0,0.0,0.0,0.0,0.0,0.0,0.0,0.0,0.0,0.0,0.0,0.0,0.0,0.0,0.0,0.0,0.0,0.0,0.0,-3.5704,-3.4872,-3.3146,-3.1681,-3.083,-3.0617,0.0,0.0,0.0,0.0,0.0,0.0,0.0,0.0,0.0,0.0,0.0,0.0,0.0,0.0,0.0,0.0,0.0,0.0,0.0,0.0,0.0,0.0,0.0,0.0,0.0,0.0,0.0,0.0,0.0,0.0,0.0,0.0,0.0,0.0,0.0,0.0,0.0,0.0,0.0,0.0,0.0,0.0,0.0,0.0,0.0,0.0,0.0,0.0,0.0,0.0,0.0,0.0,0.0,0.0,0.0,0.0,0.0,0.0,0.0,0.0,0.0,0.0,0.0,0.0,0.0,0.0,0.0,0.0,0.0,0.0,0.0,0.0,0.0,0.0,0.0,0.0,0.0,0.0,0.0,0.0,0.0,0.0,0.0,0.0,0.0,0.0,0.0,0.0,0.0,0.0,0.0,0.0,0.0,0.0,0.0,0.0,0.0,0.0,0.0,0.0,0.0,0.0,0.0,0.0,0.0,0.0,0.0,0.0,-3.5704,-3.5684,-3.4853,-3.3165,-3.2217,-3.1386,0.0,0.0,0.0,0.0,0.0,0.0,0.0,0.0,0.0,0.0,0.0,0.0,0.0,0.0,0.0,0.0,0.0,0.0,0.0,0.0,0.0,0.0,0.0,0.0,0.0,0.0,0.0,0.0,0.0,0.0,0.0,0.0,0.0,0.0,0.0,0.0,0.0,0.0,0.0,0.0,0.0,0.0,0.0,0.0,0.0,0.0,0.0,0.0,0.0,0.0,0.0,0.0,0.0,0.0,0.0,0.0,0.0,0.0,0.0,0.0,0.0,0.0,0.0,0.0,0.0,0.0,0.0,0.0,0.0,0.0,0.0,0.0,0.0,0.0,0.0,0.0,0.0,0.0,0.0,0.0,0.0,0.0,0.0,0.0,0.0,0.0,0.0,0.0,0.0,0.0,0.0,0.0,0.0,0.0,0.0,0.0,0.0,0.0,0.0,0.0,0.0,0.0,0.0,0.0,0.0,0.0,0.0,0.0,0.0,-3.5684,-3.5148,-3.4311,-3.3126,-3.2256,-3.141,0.0,0.0,0.0,0.0,0.0,0.0,0.0,0.0,0.0,0.0,0.0,0.0,0.0,0.0,0.0,0.0,0.0,0.0,0.0,0.0,0.0,0.0,0.0,0.0,0.0,0.0,0.0,0.0,0.0,0.0,0.0,0.0,0.0,0.0,0.0,0.0,0.0,0.0,0.0,0.0,0.0,0.0,0.0,0.0,0.0,0.0,0.0,0.0,0.0,0.0,0.0,0.0,0.0,0.0,0.0,0.0,0.0,0.0,0.0,0.0,0.0,0.0,0.0,0.0,0.0,0.0,0.0,0.0,0.0,0.0,0.0,0.0,0.0,0.0,0.0,0.0,0.0,0.0,0.0,0.0,0.0,0.0,0.0,0.0,0.0,0.0,0.0,0.0,0.0,0.0,0.0,0.0,0.0,0.0,0.0,0.0,0.0,0.0,0.0,0.0,0.0,0.0,0.0,0.0,0.0,0.0,0.0,0.0,0.0,-3.5684,0.0,-3.4272,-3.3146,-3.2527,-3.1695,0.0,0.0,0.0,0.0,0.0,0.0,0.0,0.0,0.0,0.0,0.0,0.0,0.0,0.0,0.0,0.0,0.0,0.0,0.0,0.0,0.0,0.0,0.0,0.0,0.0,0.0,0.0,0.0,0.0,0.0,0.0,0.0,0.0,0.0,0.0,0.0,0.0,0.0,0.0,0.0,0.0,0.0,0.0,0.0,0.0,0.0,0.0,0.0,0.0,0.0,0.0,0.0,0.0,0.0,0.0,0.0,0.0,0.0,0.0,0.0,0.0,0.0,0.0,0.0,0.0,0.0,0.0,0.0,0.0,0.0,0.0,0.0,0.0,0.0,0.0,0.0,0.0,0.0,0.0,0.0,0.0,0.0,0.0,0.0,0.0,0.0,0.0,0.0,0.0,0.0,0.0,0.0,0.0,0.0,0.0,0.0,0.0,0.0,0.0,0.0,0.0,0.0,0.0,0.0,0.0,0.0,0.0,0.0,-3.5704,-3.5704,-3.5684,-3.4833,-3.3184,-3.3088,-3.2295,0.0,0.0,0.0,0.0,0.0,0.0,0.0,0.0,0.0,0.0,0.0,0.0,0.0,0.0,0.0,0.0,0.0,0.0,0.0,0.0,0.0,0.0,0.0,0.0,0.0,0.0,0.0,0.0,0.0,0.0,0.0,0.0,0.0,0.0,0.0,0.0,0.0,0.0,0.0,0.0,0.0,0.0,0.0,0.0,0.0,0.0,0.0,0.0,0.0,0.0,0.0,0.0,0.0,0.0,0.0,0.0,0.0,0.0,0.0,0.0,0.0,0.0,0.0,0.0,0.0,0.0,0.0,0.0,0.0,0.0,0.0,0.0,0.0,0.0,0.0,0.0,0.0,0.0,0.0,0.0,0.0,0.0,0.0,0.0,0.0,0.0,0.0,0.0,0.0,0.0,0.0,0.0,0.0,0.0,0.0,0.0,0.0,0.0,0.0,0.0,0.0,0.0,0.0,0.0,0.0,0.0,0.0,0.0,0.0,-3.5704,-3.5704,-3.4853,-3.3204,-3.3107,-3.2314,0.0,0.0,0.0,0.0,0.0,0.0,0.0,0.0,0.0,0.0,0.0,0.0,0.0,0.0,0.0,0.0,0.0,0.0,0.0,0.0,0.0,0.0,0.0,0.0,0.0,0.0,0.0,0.0,0.0,0.0,0.0,0.0,0.0,0.0,0.0,0.0,0.0,0.0,0.0,0.0,0.0,0.0,0.0,0.0,0.0,0.0,0.0,0.0,0.0,0.0,0.0,0.0,0.0,0.0,0.0,0.0,0.0,0.0,0.0,0.0,0.0,0.0,0.0,0.0,0.0,0.0,0.0,0.0,0.0,0.0,0.0,0.0,0.0,0.0,0.0,0.0,0.0,0.0,0.0,0.0,0.0,0.0,0.0,0.0,0.0,0.0,0.0,0.0,0.0,0.0,0.0,0.0,0.0,0.0,0.0,0.0,0.0,0.0,0.0,0.0,0.0,0.0,0.0,0.0,0.0,0.0,0.0,0.0,0.0,-3.6149,-3.6149,-3.5472,-3.4112,-3.3764,-3.2803,-3.1139,0.0,0.0,0.0,0.0,0.0,0.0,0.0,0.0,0.0,0.0,0.0,0.0,0.0,0.0,0.0,0.0,0.0,0.0,0.0,0.0,0.0,0.0,0.0,0.0,0.0,0.0,0.0,0.0,0.0,0.0,0.0,0.0,0.0,0.0,0.0,0.0,0.0,0.0,0.0,0.0,0.0,0.0,0.0,0.0,0.0,0.0,0.0,0.0,0.0,0.0,0.0,0.0,0.0,0.0,0.0,0.0,0.0,0.0,0.0,0.0,0.0,0.0,0.0,0.0,0.0,0.0,0.0,0.0,0.0,0.0,0.0,0.0,0.0,0.0,0.0,0.0,0.0,0.0,0.0,0.0,0.0,0.0,0.0,0.0,0.0,0.0,0.0,0.0,0.0,0.0,0.0,0.0,0.0,0.0,0.0,0.0,0.0,0.0,0.0,0.0,0.0,0.0,0.0,0.0,0.0,0.0,0.0,0.0,-3.6955,-3.7019,-3.6632,-3.5787,-3.4916,-3.3659,0.0,0.0,0.0,0.0,0.0,0.0,0.0,0.0,0.0,0.0,0.0,0.0,0.0,0.0,0.0,0.0,0.0,0.0,0.0,0.0,0.0,0.0,0.0,0.0,0.0,0.0,0.0,0.0,0.0,0.0,0.0,0.0,0.0,0.0,0.0,0.0,0.0,0.0,0.0,0.0,0.0,0.0,0.0,0.0,0.0,0.0,0.0,0.0,0.0,0.0,0.0,0.0,0.0,0.0,0.0,0.0,0.0,0.0,0.0,0.0,0.0,0.0,0.0,0.0,0.0,0.0,0.0,0.0,0.0,0.0,0.0,0.0,0.0,0.0,0.0,0.0,0.0,0.0,0.0,0.0,0.0,0.0,0.0,0.0,0.0,0.0,0.0,0.0,0.0,0.0,0.0,0.0,0.0,0.0,0.0,0.0,0.0,0.0,0.0,0.0,0.0,0.0,0.0,0.0,0.0,0.0,0.0,0.0,0.0,-3.7845,-3.847,-3.8102,-3.6632,-3.5781,-3.4543,0.0,0.0,0.0,0.0,0.0,0.0,0.0,0.0,0.0,0.0,0.0,0.0,0.0,0.0,0.0,0.0,0.0,0.0,0.0,0.0,0.0,0.0,0.0,0.0,0.0,0.0,0.0,0.0,0.0,0.0,0.0,0.0,0.0,0.0,0.0,0.0,0.0,0.0,0.0,0.0,0.0,0.0,0.0,0.0,0.0,0.0,0.0,0.0,0.0,0.0,0.0,0.0,0.0,0.0,0.0,0.0,0.0,0.0,0.0,0.0,0.0,0.0,0.0,0.0,0.0,0.0,0.0,0.0,0.0,0.0,0.0,0.0,0.0,0.0,0.0,0.0,0.0,0.0,0.0,0.0,0.0,0.0,0.0,0.0,0.0,0.0,0.0,0.0,0.0,0.0,0.0,0.0,0.0,0.0,0.0,0.0,0.0,0.0,0.0,0.0,0.0,0.0,0.0,0.0,0.0,0.0,0.0,0.0,-3.7696,-3.8212,-3.9398,-3.9559,-3.8566,-3.669,-3.5046,0.0,0.0,0.0,0.0,0.0,0.0,0.0,0.0,0.0,0.0,0.0,0.0,0.0,0.0,0.0,0.0,0.0,0.0,0.0,0.0,0.0,0.0,0.0,0.0,0.0,0.0,0.0,0.0,0.0,0.0,0.0,0.0,0.0,0.0,0.0,0.0,0.0,0.0,0.0,0.0,0.0,0.0,0.0,0.0,0.0,0.0,0.0,0.0,0.0,0.0,0.0,0.0,0.0,0.0,0.0,0.0,0.0,0.0,0.0,0.0,0.0,0.0,0.0,0.0,0.0,0.0,0.0,0.0,0.0,0.0,0.0,0.0,0.0,0.0,0.0,0.0,0.0,0.0,0.0,0.0,0.0,0.0,0.0,0.0,0.0,0.0,0.0,0.0,0.0,0.0,0.0,0.0,0.0,0.0,0.0,0.0,0.0,0.0,0.0,0.0,0.0,0.0,0.0,0.0,0.0,0.0,0.0,0.0,-3.8232,-3.8353,-3.9959,-4.0797,-4.0719,-3.7663,-3.551,0.0,0.0,0.0,0.0,0.0,0.0,0.0,0.0,0.0,0.0,0.0,0.0,0.0,0.0,0.0,0.0,0.0,0.0,0.0,0.0,0.0,0.0,0.0,0.0,0.0,0.0,0.0,0.0,0.0,0.0,0.0,0.0,0.0,0.0,0.0,0.0,0.0,0.0,0.0,0.0,0.0,0.0,0.0,0.0,0.0,0.0,0.0,0.0,0.0,0.0,0.0,0.0,0.0,0.0,0.0,0.0,0.0,0.0,0.0,0.0,0.0,0.0,0.0,0.0,0.0,0.0,0.0,0.0,0.0,0.0,0.0,0.0,0.0,0.0,0.0,0.0,0.0,0.0,0.0,0.0,0.0,0.0,0.0,0.0,0.0,0.0,0.0,0.0,0.0,0.0,0.0,0.0,0.0,0.0,0.0,0.0,0.0,0.0,0.0,0.0,0.0,0.0,0.0,0.0,0.0,0.0,0.0,0.0,-3.8547,-3.923,-4.0255,-4.0797,-4.0777,-3.876,-3.6961,0.0,0.0,0.0,0.0,0.0,0.0,0.0,0.0,0.0,0.0,0.0,0.0,0.0,0.0,0.0,0.0,0.0,0.0,0.0,0.0,0.0,0.0,0.0,0.0,0.0,0.0,0.0,0.0,0.0,0.0,0.0,0.0,0.0,0.0,0.0,0.0,0.0,0.0,0.0,0.0,0.0,0.0,0.0,0.0,0.0,0.0,0.0,0.0,-3.5533,0.0,0.0,0.0,0.0,0.0,0.0,0.0,0.0,0.0,0.0,0.0,0.0,0.0,0.0,0.0,0.0,0.0,0.0,0.0,0.0,0.0,0.0,0.0,0.0,0.0,0.0,0.0,0.0,0.0,0.0,0.0,0.0,0.0,0.0,0.0,0.0,0.0,0.0,0.0,0.0,0.0,0.0,0.0,0.0,0.0,0.0,0.0,0.0,0.0,0.0,0.0,0.0,0.0,0.0,0.0,0.0,0.0,0.0,0.0,-3.8624,-3.9481,-4.0332,-4.0797,-4.0758,-3.9514,-3.8025,0.0,0.0,0.0,0.0,0.0,0.0,0.0,0.0,0.0,0.0,0.0,0.0,0.0,0.0,0.0,0.0,0.0,0.0,0.0,0.0,0.0,0.0,0.0,0.0,0.0,0.0,0.0,0.0,0.0,0.0,0.0,0.0,0.0,0.0,0.0,0.0,0.0,0.0,0.0,0.0,0.0,0.0,0.0,0.0,0.0,0.0,0.0,0.0,0.0,0.0,0.0,0.0,0.0,0.0,0.0,0.0,0.0,0.0,0.0,0.0,0.0,0.0,0.0,0.0,0.0,0.0,0.0,0.0,0.0,0.0,0.0,0.0,0.0,0.0,0.0,0.0,0.0,0.0,0.0,0.0,0.0,0.0,0.0,0.0,0.0,0.0,0.0,0.0,0.0,0.0,0.0,0.0,0.0,0.0,0.0,0.0,0.0,0.0,0.0,0.0,0.0,0.0,0.0,0.0,0.0,0.0,0.0,-3.7831,-3.8682,-3.9675,-4.0429,-4.0797,-4.0797,-3.9946,-3.8746,-3.7116,0.0,0.0,0.0,0.0,0.0,0.0,0.0,0.0,0.0,0.0,0.0,0.0,0.0,0.0,0.0,0.0,0.0,0.0,0.0,0.0,0.0,0.0,0.0,0.0,0.0,0.0,0.0,0.0,0.0,0.0,0.0,0.0,0.0,0.0,0.0,0.0,0.0,0.0,-2.9756,-3.0311,0.0,0.0,0.0,0.0,0.0,0.0,0.0,0.0,-3.4583,0.0,0.0,0.0,0.0,0.0,0.0,0.0,0.0,0.0,0.0,0.0,0.0,0.0,0.0,0.0,0.0,0.0,0.0,0.0,0.0,0.0,0.0,0.0,0.0,0.0,0.0,0.0,0.0,0.0,0.0,0.0,0.0,0.0,0.0,0.0,0.0,0.0,0.0,0.0,0.0,0.0,0.0,0.0,0.0,0.0,0.0,0.0,0.0,0.0,0.0,0.0,0.0,0.0,0.0,0.0,0.0,-3.7961,-3.8135,-3.8972,-4.0545,-4.0719,-4.0797,-4.0777,-3.9965,-3.9036,-3.7941,0.0,0.0,0.0,0.0,0.0,0.0,0.0,0.0,0.0,0.0,0.0,0.0,0.0,0.0,0.0,0.0,0.0,0.0,0.0,0.0,0.0,0.0,0.0,0.0,0.0,0.0,0.0,0.0,0.0,0.0,0.0,0.0,0.0,0.0,0.0,0.0,0.0,0.0,0.0,-3.015,-3.0386,0.0,0.0,0.0,0.0,0.0,0.0,0.0,0.0,-3.3869,0.0,0.0,0.0,0.0,0.0,0.0,0.0,0.0,0.0,0.0,0.0,0.0,0.0,0.0,0.0,0.0,0.0,0.0,0.0,0.0,0.0,0.0,0.0,0.0,0.0,0.0,0.0,0.0,0.0,0.0,0.0,0.0,0.0,0.0,0.0,0.0,0.0,0.0,0.0,0.0,0.0,0.0,0.0,0.0,0.0,0.0,0.0,0.0,0.0,0.0,0.0,0.0,0.0,0.0,0.0,-3.8135,-3.8644,-3.9495,-4.0739,-4.0797,-4.0797,-4.0777,-3.9965,-3.9075,0.0,0.0,0.0,0.0,0.0,0.0,0.0,0.0,0.0,0.0,0.0,0.0,0.0,0.0,0.0,0.0,0.0,0.0,0.0,0.0,0.0,0.0,0.0,0.0,0.0,0.0,0.0,0.0,0.0,0.0,0.0,0.0,0.0,0.0,0.0,0.0,0.0,0.0,0.0,0.0,-3.0507,-3.0724,-3.1936,0.0,0.0,0.0,0.0,0.0,0.0,-3.4207,-3.3381,0.0,0.0,0.0,0.0,0.0,0.0,0.0,0.0,0.0,0.0,0.0,0.0,0.0,0.0,0.0,0.0,0.0,0.0,0.0,0.0,0.0,0.0,0.0,0.0,0.0,0.0,0.0,0.0,0.0,0.0,0.0,0.0,0.0,0.0,0.0,0.0,0.0,0.0,0.0,0.0,0.0,0.0,0.0,0.0,0.0,0.0,0.0,0.0,0.0,0.0,0.0,0.0,0.0,0.0,0.0,-3.8193,-3.9075,-3.9926,-4.0758,-4.0797,-4.0797,-4.0777,-3.9791,-3.8914,0.0,0.0,0.0,0.0,0.0,0.0,0.0,0.0,0.0,0.0,0.0,0.0,0.0,0.0,0.0,0.0,0.0,0.0,0.0,0.0,0.0,0.0,0.0,0.0,0.0,0.0,0.0,0.0,0.0,0.0,0.0,0.0,0.0,0.0,0.0,0.0,0.0,0.0,0.0,0.0,0.0,-3.1174,-3.1992,-3.1954,0.0,0.0,0.0,0.0,-3.4245,-3.3813,0.0,0.0,0.0,0.0,0.0,0.0,0.0,0.0,0.0,0.0,0.0,0.0,0.0,0.0,0.0,0.0,0.0,0.0,0.0,0.0,0.0,0.0,0.0,0.0,0.0,0.0,0.0,0.0,0.0,0.0,0.0,0.0,0.0,0.0,0.0,0.0,0.0,0.0,0.0,0.0,0.0,0.0,0.0,0.0,0.0,0.0,0.0,0.0,0.0,0.0,0.0,0.0,0.0,0.0,0.0,0.0,-3.8193,-3.9056,-3.9926,-4.0758,-4.0797,-4.0797,-4.0777,-3.9204,-3.8315,0.0,0.0,0.0,0.0,0.0,0.0,0.0,0.0,0.0,0.0,0.0,0.0,0.0,0.0,0.0,0.0,0.0,0.0,0.0,0.0,0.0,0.0,0.0,0.0,0.0,0.0,0.0,0.0,0.0,0.0,0.0,0.0,0.0,0.0,0.0,0.0,0.0,0.0,0.0,0.0,0.0,-3.1056,-3.1982,-3.1504,-3.1325,0.0,0.0,-3.2555,-3.3419,-3.3475,0.0,0.0,0.0,0.0,0.0,0.0,0.0,0.0,0.0,0.0,0.0,0.0,0.0,0.0,0.0,0.0,0.0,0.0,0.0,0.0,0.0,0.0,0.0,0.0,0.0,0.0,0.0,0.0,0.0,0.0,0.0,0.0,0.0,0.0,0.0,0.0,0.0,0.0,0.0,0.0,0.0,0.0,0.0,0.0,0.0,0.0,0.0,0.0,0.0,0.0,0.0,0.0,0.0,0.0,0.0,-3.7825,-3.8232,-3.9553,-4.041,-4.0777,-4.0797,-4.0797,-4.0797,-3.9127,-3.8212,0.0,0.0,0.0,0.0,0.0,0.0,0.0,0.0,0.0,0.0,0.0,0.0,0.0,0.0,0.0,0.0,0.0,0.0,0.0,0.0,0.0,0.0,0.0,0.0,0.0,0.0,0.0,0.0,0.0,0.0,0.0,0.0,0.0,0.0,0.0,0.0,0.0,0.0,0.0,0.0,0.0,0.0,-3.2038,-3.1793,0.0,0.0,0.0,-3.2405,-3.3258,0.0,0.0,0.0,0.0,0.0,0.0,0.0,0.0,0.0,0.0,0.0,0.0,0.0,0.0,0.0,0.0,0.0,0.0,0.0,0.0,0.0,0.0,0.0,0.0,0.0,0.0,0.0,0.0,0.0,0.0,0.0,0.0,0.0,0.0,0.0,0.0,0.0,0.0,0.0,0.0,0.0,0.0,0.0,0.0,0.0,0.0,0.0,0.0,0.0,0.0,0.0,0.0,0.0,0.0,0.0,0.0,0.0,-3.8232,-3.992,-4.0797,-4.0797,-4.0797,-4.0797,-4.0777,-3.9321,0.0,0.0,0.0,0.0,0.0,0.0,0.0,0.0,0.0,0.0,0.0,0.0,0.0,0.0,0.0,0.0,0.0,0.0,0.0,0.0,0.0,0.0,0.0,0.0,0.0,0.0,0.0,-2.9638,0.0,0.0,0.0,0.0,0.0,0.0,0.0,0.0,0.0,0.0,0.0,0.0,0.0,0.0,-3.1998,-3.2093,-3.211,-3.24,0.0,0.0,-3.2325,-3.3176,-3.3443,-3.3208,0.0,0.0,0.0,0.0,0.0,0.0,0.0,0.0,0.0,0.0,0.0,0.0,0.0,0.0,0.0,0.0,0.0,0.0,0.0,0.0,0.0,0.0,0.0,0.0,0.0,0.0,0.0,0.0,0.0,0.0,0.0,0.0,0.0,0.0,0.0,0.0,0.0,0.0,0.0,0.0,0.0,0.0,0.0,0.0,0.0,0.0,0.0,0.0,0.0,0.0,0.0,0.0,0.0,0.0,0.0,-3.8251,-3.992,-4.0797,-4.0797,-4.0797,-4.0797,-4.0797,-3.9907,-3.903,0.0,0.0,0.0,0.0,0.0,0.0,0.0,0.0,0.0,0.0,0.0,0.0,0.0,0.0,0.0,0.0,0.0,0.0,0.0,0.0,0.0,0.0,0.0,0.0,0.0,0.0,0.0,0.0,0.0,0.0,0.0,0.0,0.0,0.0,0.0,0.0,0.0,0.0,0.0,0.0,0.0,-3.1955,-3.2069,-3.2098,-3.2418,0.0,0.0,-3.2132,-3.2989,-3.3604,-3.3475,-3.2054,0.0,0.0,0.0,0.0,0.0,0.0,0.0,0.0,0.0,0.0,0.0,0.0,0.0,0.0,0.0,0.0,0.0,0.0,0.0,0.0,0.0,0.0,0.0,0.0,0.0,0.0,0.0,0.0,0.0,0.0,0.0,0.0,0.0,0.0,0.0,0.0,0.0,0.0,0.0,0.0,0.0,0.0,0.0,0.0,0.0,0.0,0.0,0.0,0.0,0.0,0.0,0.0,0.0,-3.8212,-3.8232,-3.992,-4.0797,-4.0797,-4.0797,-4.0797,-4.0797,-3.9965,-3.9094,0.0,0.0,0.0,0.0,0.0,0.0,0.0,0.0,0.0,0.0,0.0,0.0,0.0,0.0,0.0,0.0,0.0,0.0,0.0,0.0,0.0,0.0,0.0,0.0,0.0,0.0,0.0,0.0,-3.1143,-3.1143,-3.066,0.0,0.0,0.0,0.0,0.0,0.0,0.0,0.0,0.0,0.0,-3.2068,-3.2751,-3.2698,0.0,0.0,-3.2771,-3.2364,-3.2191,-3.2887,-3.2915,-3.132,-3.1173,0.0,0.0,0.0,0.0,0.0,0.0,0.0,0.0,0.0,0.0,0.0,0.0,0.0,0.0,0.0,0.0,0.0,0.0,0.0,0.0,0.0,0.0,0.0,0.0,0.0,0.0,0.0,0.0,0.0,0.0,0.0,0.0,0.0,0.0,0.0,0.0,0.0,0.0,0.0,0.0,0.0,0.0,0.0,0.0,0.0,0.0,0.0,0.0,0.0,0.0,0.0,0.0,-3.8212,-3.8212,-3.992,-4.0797,-4.0797,-4.0797,-4.0797,-4.0797,-4.0197,-3.9501,0.0,0.0,0.0,0.0,0.0,0.0,0.0,0.0,0.0,0.0,0.0,0.0,0.0,0.0,0.0,0.0,0.0,0.0,0.0,0.0,0.0,0.0,0.0,0.0,0.0,0.0,0.0,0.0,-3.1292,-3.1218,-3.066,0.0,0.0,0.0,0.0,0.0,0.0,0.0,0.0,0.0,0.0,-3.2231,-3.2754,-3.2625,-3.2562,-3.2713,-3.2386,-3.2021,-3.1671,-3.2083,-3.2088,-3.0916,0.0,0.0,0.0,0.0,0.0,0.0,0.0,0.0,0.0,0.0,0.0,0.0,0.0,0.0,0.0,0.0,0.0,0.0,0.0,0.0,0.0,0.0,0.0,0.0,0.0,0.0,0.0,0.0,0.0,0.0,0.0,0.0,0.0,0.0,0.0,0.0,0.0,0.0,0.0,0.0,0.0,0.0,0.0,0.0,0.0,0.0,0.0,0.0,0.0,0.0,0.0,0.0,0.0,-3.8212,-3.8232,-3.992,-4.0797,-4.0797,-4.0797,-4.0797,-4.0797,-4.0777,-4.0352,-3.9481,0.0,0.0,0.0,0.0,0.0,0.0,0.0,0.0,0.0,0.0,0.0,0.0,0.0,0.0,0.0,0.0,0.0,0.0,0.0,0.0,0.0,0.0,0.0,0.0,0.0,0.0,-2.9601,-3.0177,-3.0623,0.0,0.0,0.0,0.0,0.0,0.0,0.0,0.0,0.0,0.0,-3.1727,-3.236,-3.1832,-3.1621,-3.1658,-3.1894,-3.1243,-3.0887,-3.1486,-3.1296,-3.1043,0.0,0.0,0.0,0.0,0.0,0.0,0.0,0.0,0.0,0.0,0.0,0.0,0.0,0.0,0.0,0.0,0.0,0.0,0.0,0.0,0.0,0.0,0.0,0.0,0.0,0.0,0.0,0.0,-4.1381,0.0,0.0,0.0,0.0,0.0,0.0,0.0,0.0,0.0,0.0,0.0,-3.8162,-3.8166,0.0,0.0,0.0,0.0,0.0,0.0,0.0,0.0,0.0,0.0,0.0,0.0,-3.8216,-3.829,-3.9901,-4.0797,-4.0797,-4.0797,-4.0797,-4.0797,-4.0797,-4.039,-3.952,0.0,0.0,0.0,0.0,0.0,0.0,0.0,0.0,0.0,0.0,0.0,0.0,0.0,0.0,0.0,0.0,0.0,0.0,0.0,0.0,0.0,0.0,0.0,0.0,0.0,-3.0493,0.0,0.0,0.0,0.0,0.0,0.0,0.0,0.0,0.0,0.0,0.0,-3.079,-3.1329,-3.1161,-3.1152,-3.1523,-3.1323,-3.1352,0.0,0.0,0.0,0.0,0.0,0.0,0.0,0.0,0.0,0.0,0.0,0.0,0.0,0.0,-2.939,-2.8855,-2.9121,-2.9402,-2.9321,0.0,0.0,0.0,0.0,0.0,0.0,0.0,0.0,0.0,0.0,0.0,0.0,0.0,0.0,0.0,0.0,-4.2124,0.0,0.0,0.0,0.0,0.0,0.0,0.0,0.0,-3.875,-3.875,-3.9021,-3.9025,-3.9025,0.0,-3.8705,-3.7929,0.0,0.0,0.0,0.0,0.0,0.0,0.0,0.0,-3.8202,-3.8276,-3.992,-4.0797,-4.0797,-4.0797,-4.0797,-4.0797,-4.0797,-4.0545,-3.9965,-3.8276,-3.6709,0.0,0.0,0.0,0.0,0.0,0.0,0.0,0.0,0.0,0.0,0.0,0.0,0.0,0.0,0.0,0.0,0.0,0.0,0.0,0.0,0.0,0.0,0.0,-3.0716,0.0,0.0,0.0,0.0,0.0,0.0,0.0,0.0,0.0,-3.0615,-3.0846,-3.1184,-3.1587,-3.1201,-3.0887,-3.0901,0.0,0.0,0.0,0.0,0.0,0.0,0.0,-2.9802,-2.9174,-2.9471,-2.9921,-3.0282,-3.0359,-3.03,-3.012,0.0,0.0,-2.9474,-2.9755,-3.0056,-2.9923,-2.9891,-2.9809,-2.9625,-2.9591,-2.9438,0.0,0.0,0.0,0.0,0.0,0.0,0.0,0.0,-4.3124,-4.2681,0.0,-4.2777,0.0,0.0,0.0,0.0,0.0,0.0,0.0,0.0,-4.06,-4.062,-3.9858,-3.9839,-3.9881,-3.9867,-3.9126,-3.8667,-3.8574,-3.858,0.0,0.0,0.0,0.0,0.0,0.0,-3.8222,-3.8309,-3.9939,-4.0797,-4.0797,-4.0797,-4.0797,-4.0797,-4.0797,-4.0797,-4.0739,-3.9108,-3.7787,-3.6897,-3.4499,0.0,0.0,0.0,0.0,0.0,0.0,0.0,0.0,0.0,0.0,0.0,0.0,0.0,0.0,0.0,0.0,0.0,0.0,0.0,0.0,-3.0634,0.0,0.0,0.0,0.0,0.0,0.0,0.0,0.0,0.0,0.0,-3.0679,-3.1273,-3.1677,-3.1434,0.0,0.0,0.0,0.0,-3.0337,-2.9072,-2.908,-2.9145,-2.8717,-2.9432,-3.0112,-3.033,0.0,0.0,-3.1262,-3.065,-3.0229,-3.0178,-3.0791,-3.1019,-3.0317,-3.0229,-3.0197,-3.0063,-3.0033,-2.9847,-2.9712,-2.9713,-2.9505,-4.2133,0.0,0.0,0.0,0.0,-4.2625,-4.3201,-4.3951,-4.397,-4.3816,-4.3605,-4.3855,0.0,0.0,0.0,0.0,0.0,0.0,-3.9741,-3.9798,-4.0054,-4.0366,-4.0737,-4.0737,-4.0738,-4.074,-4.0507,-4.0382,-4.0351,-4.0351,-3.927,-3.7131,0.0,0.0,0.0,0.0,-3.854,-3.9152,-4.0236,-4.0797,-4.0797,-4.0797,-4.0797,-4.0797,-4.0797,-4.0797,-4.0797,-3.9127,-3.7793,-3.6917,-3.5065,0.0,0.0,0.0,0.0,0.0,0.0,0.0,0.0,0.0,0.0,0.0,0.0,0.0,0.0,0.0,0.0,0.0,0.0,0.0,-3.0768,-3.1174,-3.1134,0.0,0.0,0.0,0.0,0.0,0.0,0.0,0.0,0.0,-3.144,-3.1143,-3.1121,0.0,0.0,-2.9807,-3.0491,-3.0496,-3.0643,-3.1255,0.0,0.0,0.0,-3.2125,-3.2092,-3.1836,-3.1999,-3.2122,-3.2072,-3.1879,-3.1739,-3.1739,-3.1897,-3.1984,-3.1809,-3.1739,-3.167,-3.1533,-3.1464,-3.1253,-3.08,-3.0668,-3.0405,-4.4369,-4.3542,-4.2723,-4.2661,-4.3065,-4.3443,-4.4047,-4.4797,-4.4825,-4.4624,-4.4335,-4.4662,-4.3701,-4.1758,-4.1096,0.0,0.0,0.0,-3.9895,-4.0307,-4.0307,-4.06,-4.109,-4.1109,-4.1109,-4.1109,-4.1109,-4.1098,-4.1109,-4.075,-3.9784,-3.8214,0.0,0.0,-3.7571,-3.8404,-3.9057,-3.9561,-4.0376,-4.0796,-4.0809,-4.0803,-4.0797,-4.0797,-4.0797,-4.0797,-4.0797,-3.9456,-3.8334,-3.7439,-3.58,-3.4278,0.0,0.0,0.0,0.0,0.0,0.0,0.0,0.0,0.0,0.0,0.0,-3.1262,-3.0836,0.0,0.0,0.0,-3.1431,-3.1364,-3.1315,-3.1318,0.0,0.0,0.0,0.0,0.0,0.0,0.0,-3.04,-3.1218,-3.1924,-3.2221,-3.1849,-3.1751,-3.233,-3.1222,-3.0653,-3.144,0.0,-3.1834,-3.2403,-3.2755,-3.2995,-3.3055,-3.3273,-3.3421,-3.3406,-3.3354,-3.3319,-3.3318,-3.3301,-3.3301,-3.3301,-3.3301,-3.3318,-3.3318,-3.3301,-3.302,-3.2283,-3.209,-3.1875,-3.1223,-3.1103,-3.0848,-4.6919,-4.6089,-4.3848,-4.3232,-4.3768,-4.4231,-4.4863,-4.5575,-4.5594,-4.5152,-4.4479,-4.5248,-4.4259,-4.1931,-4.0331,0.0,0.0,-4.0256,-4.0425,-4.128,-4.1303,-4.1304,-4.1304,-4.1246,-4.1207,-4.1187,-4.1129,-4.1109,-4.107,-4.0288,-3.9851,-3.9804,-3.9793,-3.9362,-3.8582,-3.9239,-3.9646,-3.9707,-4.043,-4.0794,-4.0794,-4.0809,-4.0797,-4.0797,-4.0797,-4.0797,-4.0777,-3.9965,-3.9094,-3.8218,-3.6671,-3.5375,-3.4432,0.0,0.0,0.0,0.0,0.0,0.0,0.0,0.0,0.0,0.0,0.0,0.0,0.0,0.0,0.0,-3.1966,0.0,-3.2197,-3.1347,0.0,0.0,0.0,-3.0995,-3.1719,-3.1868,-3.1886,-3.1886,0.0,0.0,0.0,0.0,-3.3315,-3.3542,-3.3349,-3.3114,-3.2833,-3.3316,-3.3546,-3.3052,-3.3062,-3.3097,-3.3231,-3.3793,-3.4516,-3.4942,-3.4903,-3.4741,-3.4724,-3.4635,-3.4688,-3.46,-3.467,-3.4653,-3.467,-3.4582,-3.4194,-3.2577,-3.2316,-3.2136,-3.1472,-3.1291,-3.1065,-4.8151,-4.7775,-4.6795,-4.5859,-4.5005,-4.5252,-4.5456,-4.5594,-4.5594,-4.5479,-4.5306,-4.5498,-4.4893,-4.3651,-4.269,-4.2408,-4.2614,-4.26,-4.2701,-4.2927,-4.3027,-4.3081,-4.3061,-4.2415,-4.2084,-4.2045,-4.14,-4.1109,-4.109,-4.0875,-4.0448,-3.983,-3.9804,-3.9666,-3.9416,-3.9571,-3.9963,-4.0516,-4.0696,-4.0808,-4.0803,-4.0797,-4.0797,-4.0797,-4.0797,-4.0797,-4.0797,-3.9946,-3.9094,-3.8232,-3.7193,-3.5936,-3.4452,-3.3378,0.0,0.0,0.0,0.0,0.0,0.0,0.0,0.0,0.0,-3.1146,-3.0472,0.0,-3.1413,0.0,-3.2312,-3.3023,-3.3233,-3.2751,0.0,0.0,-3.1725,-3.1589,-3.1775,-3.2351,-3.2723,-3.2723,-3.3243,-3.3949,-3.4804,-3.4915,-3.518,-3.5828,-3.4413,-3.3553,-3.4367,-3.4465,-3.462,-3.499,-3.5648,-3.6145,-3.5851,-3.6098,-3.6277,-3.6487,-3.5955,-3.5548,-3.5548,-3.5074,-3.4688,-3.4688,-3.4688,-3.4688,-3.474,-3.4688,-3.4378,-3.3522,-3.3567,-3.3529,-3.2466,-3.2214,-3.1951,-4.9516,-4.9002,-4.8428,-4.7461,-4.636,-4.6205,-4.6161,-4.614,-4.5794,-4.5631,-4.5594,-4.521,-4.4739,-4.4248,-4.3482,-4.3171,-4.3208,-4.3379,-4.3471,-4.3507,-4.3645,-4.3705,-4.3686,-4.3216,-4.2767,-4.2396,-4.1908,-4.1498,-4.1129,-4.1109,-4.0855,-4.0385,-4.0381,-4.0371,-4.0297,-3.9547,-3.9319,-3.9723,-4.0084,-4.0438,-4.0796,-4.0803,-4.0623,-4.0236,-4.0216,-4.0042,-3.9669,-3.9166,-3.8353,-3.7154,-3.6613,-3.5588,-3.3924,-3.2991,-3.2314,0.0,0.0,0.0,0.0,0.0,0.0,0.0,0.0,0.0,0.0,0.0,-3.1854,0.0,-3.2694,0.0,-3.3071,-3.2782,-3.2574,-3.2499,-3.24,-3.263,-3.3354,-3.3838,-3.4253,-3.4606,-3.5045,-3.564,-3.6445,-3.6556,-3.6823,-3.7502,-3.6349,-3.5539,-3.5829,-3.582,-3.5883,-3.6303,-3.6804,-3.7143,-3.7027,-3.6989,-3.6989,-3.6954,-3.6636,-3.632,-3.632,-3.6004,-3.5725,-3.5725,-3.5725,-3.5668,-3.5533,-3.5494,-3.528,-3.4681,-3.4618,-3.419,-3.265,-3.2292,-3.2055,-5.1073,-5.0342,-4.9531,-4.8774,-4.805,-4.7303,-4.7011,-4.6994,-4.6309,-4.5926,-4.5701,-4.4951,-4.4566,-4.4421,-4.3739,-4.3447,-4.3522,-4.3643,-4.3753,-4.3824,-4.3948,-4.4013,-4.4036,-4.3938,-4.3469,-4.2747,-4.2494,-4.2006,-4.1265,-4.1148,-4.1031,-4.0953,-4.0953,-4.0888,-4.0703,-3.9185,-3.8517,-3.8732,-3.9301,-3.9937,-4.0626,-4.0538,-4.01,-3.9385,-3.9327,-3.8972,-3.8251,-3.8212,-3.7425,-3.582,-3.5704,-3.4949,-3.3358,-3.243,-3.2024,0.0,-3.1371,0.0,0.0,0.0,0.0,0.0,0.0,0.0,0.0,-3.2599,-3.257,-3.271,-3.3128,-3.3194,-3.2748,-3.2543,-3.2625,-3.3138,-3.318,-3.3751,-3.5287,-3.5491,-3.5844,-3.6755,-3.6848,-3.7151,-3.7894,-3.8042,-3.8225,-3.8426,-3.818,-3.766,-3.7189,-3.696,-3.6902,-3.6989,-3.6989,-3.7009,-3.7007,-3.6989,-3.6989,-3.6989,-3.6972,-3.6989,-3.6954,-3.6937,-3.6954,-3.6937,-3.6884,-3.6821,-3.6626,-3.6492,-3.6207,-3.5414,-3.5217,-3.4568,-3.2872,-3.2359,-3.2015,-5.3139,-5.2854,-5.1366,-5.0728,-5.0576,-4.9098,-4.8211,-4.778,-4.7747,-4.7332,-4.6644,-4.649,-4.6009,-4.5364,-4.519,-4.5122,-4.5145,-4.5276,-4.5394,-4.5449,-4.5577,-4.5699,-4.5773,-4.509,-4.4658,-4.4424,-4.3079,-4.2318,-4.2142,-4.1459,-4.0737,-4.0054,-4.0034,-3.9696,0.0,0.0,0.0,0.0,-3.9878,-3.9633,-3.9716,-3.9067,-3.8618,-3.8444,-3.845,0.0,-3.8212,-3.8212,-3.7419,-3.582,-3.5704,0.0,0.0,0.0,0.0,0.0,0.0,0.0,0.0,0.0,0.0,0.0,-3.2926,-3.2765,-3.2713,-3.2691,-3.2877,-3.3361,-3.3648,-3.3971,-3.4387,-3.4249,-3.4178,-3.4266,-3.4104,-3.4383,-3.5361,-3.551,-3.6067,-3.7498,-3.7652,-3.7986,-3.8692,-3.8878,-3.8799,-3.8651,-3.8551,-3.8214,-3.7505,-3.7167,-3.7009,-3.6989,-3.6989,-3.6989,-3.6989,-3.6989,-3.6989,-3.6989,-3.6989,-3.6989,-3.6989,-3.6989,-3.6989,-3.6989,-3.6989,-3.697,-3.6891,-3.6708,-3.6199,-3.5329,-3.4931,-3.4519,-3.3843,-3.368,-3.3521,-5.3707,0.0,-5.2343,-5.183,0.0,0.0,-5.0019,-4.9736,-4.8615,-4.7939,-4.7545,-4.7518,-4.724,-4.6817,-4.6413,-4.624,-4.621,-4.5928,-4.5841,-4.5905,-4.6045,-4.6176,-4.6282,-4.5851,-4.5421,-4.4972,-4.4094,-4.3235,-4.2415,-4.1947,-4.1283,-4.0444,-4.0464,-4.0217,-3.9798,-3.9746,-3.9927,-4.0299,-3.9825,-3.979,-4.0106,-3.971,-3.9294,-3.8856,0.0,0.0,0.0,0.0,0.0,0.0,0.0,0.0,0.0,0.0,0.0,-3.3706,-3.3358,-3.3281,-3.3692,-3.375,-3.3944,-3.435,-3.4373,-3.4056,-3.3398,-3.3696,-3.4066,-3.435,-3.4484,-3.4699,-3.4997,-3.487,-3.471,-3.4612,-3.4351,-3.468,-3.5813,-3.6073,-3.6723,-3.8154,-3.8507,-3.8674,-3.9045,-3.9101,-3.9027,-3.8865,-3.8703,-3.8407,-3.7913,-3.7487,-3.7206,-3.7029,-3.6989,-3.6989,-3.6989,-3.6989,-3.6989,-3.6989,-3.6989,-3.6989,-3.6989,-3.6989,-3.6989,-3.6989,-3.6989,-3.695,-3.6751,-3.6468,-3.5968,-3.5243,-3.4673,-3.4267,-3.3975,-3.3813,-3.3617,-5.3916,-5.3821,-5.2992,-5.2646,-5.2566,-5.1718,-5.1405,-5.1344,0.0,0.0,0.0,-4.8345,-4.824,-4.8048,-4.7413,-4.7038,-4.6864,-4.6275,-4.5957,-4.5897,-4.6,-4.6138,-4.6249,-4.6298,-4.5929,-4.5246,-4.507,-4.4268,-4.2884,-4.2552,-4.2045,-4.1363,-4.1187,-4.1109,-4.1112,-4.1053,-4.0652,-3.9962,-3.9723,-3.9927,-4.0565,-4.0449,-4.0014,-3.93,-3.9288,-3.8934,-3.8232,-3.8212,-3.7502,-3.6013,-3.5916,-3.5201,-3.3687,-3.3571,-3.3552,-3.3571,-3.3571,-3.388,-3.4587,-3.4645,-3.493,-3.5665,-3.5648,-3.5232,-3.4299,-3.4852,-3.5235,-3.5149,-3.5218,-3.5223,-3.5182,-3.5,-3.4821,-3.4668,-3.4374,-3.481,-3.6235,-3.6643,-3.7225,-3.8581,-3.8952,-3.9082,-3.9082,-3.9101,-3.9101,-3.9073,-3.8865,-3.8517,-3.8133,-3.7667,-3.7262,-3.7048,-3.6989,-3.6989,-3.6989,-3.6989,-3.6989,-3.6989,-3.6989,-3.6989,-3.6989,-3.6989,-3.6989,-3.6989,-3.6989,-3.6891,-3.6647,-3.6262,-3.5715,-3.5144,-3.4537,-3.4,-3.3684,-3.345,-3.3309,-5.4731,-5.4674,-5.3859,-5.3537,-5.3404,-5.1878,-5.0977,-5.0587,-5.0471,-5.0005,-4.9314,-4.9259,-4.8817,-4.8105,-4.7971,-4.7567,-4.6894,-4.6796,-4.6414,0.0,-4.5892,-4.5996,-4.6138,-4.6245,-4.6243,-4.6066,-4.5382,-4.4875,-4.4484,-4.3118,-4.2337,-4.2123,-4.1461,-4.1109,-4.1112,-4.1092,-4.0991,-4.0808,-4.0003,-3.9646,-3.9757,-3.9032,-3.8593,-3.8496,-3.8443,-3.8328,-3.8212,-3.8232,-3.7748,-3.6806,-3.6729,-3.6303,-3.5414,-3.5336,-3.5336,-3.5336,-3.5317,-3.5394,-3.5491,-3.551,-3.5568,-3.5684,-3.5704,-3.552,-3.5165,-3.5325,-3.5319,-3.5,-3.525,-3.5395,-3.5218,-3.5028,-3.4908,-3.4821,-3.4458,-3.4618,-3.5603,-3.6259,-3.7034,-3.8005,-3.8692,-3.9082,-3.9101,-3.9101,-3.9101,-3.9101,-3.8984,-3.8778,-3.82,-3.7504,-3.7106,-3.7027,-3.6989,-3.6989,-3.6989,-3.6989,-3.6989,-3.6989,-3.6989,-3.6989,-3.6989,-3.6989,-3.6989,-3.6989,-3.6989,-3.6968,-3.6888,-3.635,-3.572,-3.5163,-3.4553,-3.3949,-3.3503,-3.3361,-3.3309,-5.4901,-5.4863,-5.4503,-5.4352,-5.4238,-5.2677,-5.1599,-5.0952,-5.0749,-5.0508,-5.0217,-5.0153,-4.9884,-4.9471,-4.9009,-4.8606,-4.8221,-4.7317,-4.6739,-4.6431,-4.6042,-4.5924,-4.6095,-4.6173,-4.6238,-4.628,-4.5909,-4.546,-4.4914,-4.3704,-4.2884,-4.2357,-4.1518,-4.1109,-4.1111,-4.111,-4.1072,-4.0992,-4.0581,-4.0332,-4.0246,-3.9851,-3.965,-3.9679,-3.9623,-3.9611,-3.9611,-3.9611,-3.9204,-3.8334,-3.8315,-3.7928,-3.7116,-3.7038,-3.7058,-3.7038,-3.6613,-3.6361,-3.6361,-3.5936,-3.5704,-3.5704,-3.5704,-3.5645,-3.5477,-3.5534,-3.5456,-3.5258,-3.5391,-3.5453,-3.5361,-3.5193,-3.5009,-3.4917,-3.4607,-3.4736,-3.5368,-3.5789,-3.6532,-3.7652,-3.8209,-3.8618,-3.9045,-3.9101,-3.9101,-3.9087,-3.897,-3.8685,-3.8394,-3.7738,-3.7186,-3.7029,-3.6989,-3.6989,-3.6989,-3.6989,-3.6989,-3.6989,-3.6989,-3.6989,-3.6989,-3.6989,-3.6989,-3.6989,-3.6989,-3.6928,-3.6788,-3.6165,-3.5587,-3.5128,-3.4423,-3.3822,-3.3555,-3.3361,-3.3176,-5.4901,-5.4901,-5.4901,-5.4806,-5.4518,-5.3207,-5.2158,-5.1375,-5.0809,-5.0635,-5.0738,-5.071,-5.0702,-5.0625,-4.9981,-4.9567,-4.9221,-4.8067,-4.7272,-4.6913,-4.6358,-4.6072,-4.6039,-4.608,-4.6147,-4.6247,-4.6277,-4.5948,-4.5265,-4.4426,-4.345,-4.2415,-4.1518,-4.1109,-4.1109,-4.1108,-4.1073,-4.1013,-4.0976,-4.094,-4.0814,-4.0793,-4.0804,-4.0802,-4.0784,-4.0797,-4.0797,-4.0797,-4.0487,-3.9868,-3.9791,-3.9404,-3.8566,-3.8489,-3.8411,-3.8154,-3.7386,-3.6826,-3.6613,-3.6052,-3.5704,-3.5704,-3.5704,-3.5654,-3.5606,-3.5616,-3.5573,-3.5508,-3.5481,-3.55,-3.546,-3.5316,-3.5132,-3.4982,-3.4722,-3.478,-3.5204,-3.5417,-3.5919,-3.7151,-3.7652,-3.8154,-3.8674,-3.899,-3.9101,-3.9055,-3.8865,-3.8718,-3.8548,-3.803,-3.7541,-3.7223,-3.7068,-3.7046,-3.7046,-3.7009,-3.7009,-3.7046,-3.7009,-3.6989,-3.6989,-3.6989,-3.6989,-3.6989,-3.6989,-3.6869,-3.6564,-3.6037,-3.5476,-3.5005,-3.4317,-3.3797,-3.3581,-3.3335,-3.3085,-5.4901,-5.4901,-5.4901,-5.4465,-5.3783,-5.2845,-5.2045,-5.1382,-5.0722,-5.0507,-5.0606,-5.0663,-5.0692,-5.0692,-5.0596,-5.0154,-4.9452,-4.924,-4.8346,-4.7054,-4.6905,-4.6523,-4.5899,-4.6007,-4.6102,-4.6138,-4.6243,-4.6243,-4.6066,-4.5207,-4.3997,-4.2474,-4.1519,-4.1109,-4.1109,-4.1112,-4.1053,-4.0994,-4.0989,-4.0961,-4.0893,-4.0833,-4.0807,-4.0801,-4.0808,-4.0797,-4.0797,-4.0797,-4.0777,-4.07,-4.0661,-4.0274,-3.9501,-3.9385,-3.903,-3.827,-3.74,-3.6574,-3.5916,-3.5742,-3.5704,-3.5704,-3.5704,-3.5673,-3.5606,-3.5616,-3.556,-3.5509,-3.5489,-3.5481,-3.5474,-3.5331,-3.5209,-3.5132,-3.4821,-3.4628,-3.4753,-3.5179,-3.5584,-3.5677,-3.6946,-3.7912,-3.8098,-3.8674,-3.9082,-3.9101,-3.9041,-3.8927,-3.8688,-3.8312,-3.7896,-3.7523,-3.7225,-3.7106,-3.7201,-3.7105,-3.7105,-3.7201,-3.7124,-3.7046,-3.6989,-3.6989,-3.6989,-3.6989,-3.6989,-3.6851,-3.6547,-3.6135,-3.5582,-3.4847,-3.4292,-3.3873,-3.3477,-3.3229,-3.3085,-5.4901,-5.4901,-5.4901,-5.4731,-5.4257,-5.2987,-5.2252,-5.1906,-5.0758,-5.0377,-5.0477,-5.0606,-5.0673,-5.0692,-5.0693,-5.0481,-5.0135,-4.9625,-4.8759,-4.7625,-4.7165,-4.6534,-4.5879,-4.5933,-4.6013,-4.6105,-4.624,-4.6302,-4.6046,-4.4914,-4.3587,-4.2435,-4.1518,-4.1109,-4.1109,-4.1109,-4.1087,-4.1051,-4.102,-4.0983,-4.0953,-4.0883,-4.0851,-4.0798,-4.0794,-4.0809,-4.0797,-4.0797,-4.0797,-4.0797,-4.0797,-4.0661,-4.0294,-4.0274,-4.0113,-3.9688,-3.8431,-3.7309,-3.6458,-3.5974,-3.5704,-3.5704,-3.5704,-3.5679,-3.5648,-3.5626,-3.559,-3.5579,-3.5521,-3.55,-3.5493,-3.5405,-3.532,-3.5201,-3.4955,-3.4722,-3.4612,-3.4668,-3.4915,-3.5436,-3.6067,-3.6904,-3.7764,-3.8599,-3.9045,-3.9101,-3.9101,-3.9013,-3.888,-3.8612,-3.8263,-3.793,-3.765,-3.7412,-3.7353,-3.7239,-3.722,-3.7259,-3.7239,-3.7163,-3.7009,-3.6989,-3.6989,-3.6989,-3.6989,-3.6851,-3.6564,-3.6011,-3.5431,-3.4704,-3.4018,-3.3555,-3.3319,-3.3203,-3.3085,-5.4901,-5.4901,-5.4901,-5.4769,-5.4446,-5.3044,-5.2272,-5.1921,-5.0729,-5.0275,-5.0404,-5.0547,-5.0654,-5.0739,-5.0721,-5.0683,-5.0606,-5.0038,-4.9144,-4.8125,-4.749,-4.6694,-4.5827,-4.5835,-4.5934,-4.6049,-4.6178,-4.6249,-4.6122,-4.4836,-4.3626,-4.2767,-4.1888,-4.1343,-4.1129,-4.1109,-4.1102,-4.1094,-4.1044,-4.0992,-4.099,-4.095,-4.0862,-4.0798,-4.08,-4.0802,-4.0797,-4.0797,-4.0797,-4.0797,-4.0797,-4.0797,-4.0797,-4.0797,-4.07,-4.0352,-3.905,-3.7825,-3.6961,-3.6149,-3.5704,-3.5704,-3.5704,-3.5704,-3.5698,-3.5643,-3.5608,-3.5598,-3.5522,-3.5494,-3.55,-3.55,-3.5432,-3.5281,-3.5098,-3.4889,-3.471,-3.4454,-3.4542,-3.5039,-3.5417,-3.6123,-3.7573,-3.8395,-3.8767,-3.9027,-3.9101,-3.9101,-3.9041,-3.8807,-3.8504,-3.8265,-3.7982,-3.7685,-3.7429,-3.7391,-3.7391,-3.7447,-3.7447,-3.7316,-3.7126,-3.7068,-3.7027,-3.7046,-3.7009,-3.6851,-3.6564,-3.5989,-3.5317,-3.4577,-3.3882,-3.3361,-3.3309,-3.3203,-3.3139,-5.4901,-5.4901,-5.4901,-5.4484,-5.3688,-5.2783,-5.195,-5.1282,-5.052,-5.0275,-5.0404,-5.0557,-5.071,-5.0863,-5.0757,-5.0692,-5.0692,-5.0616,-4.9711,-4.8279,-4.8038,-4.7163,-4.5689,-4.5742,-4.5835,-4.5944,-4.6061,-4.6201,-4.6239,-4.5363,-4.4504,-4.3588,-4.2689,-4.1908,-4.1226,-4.1109,-4.1102,-4.1094,-4.1025,-4.0992,-4.0974,-4.0935,-4.0853,-4.0801,-4.0792,-4.0802,-4.0797,-4.0797,-4.0797,-4.0797,-4.0797,-4.0797,-4.0797,-4.0797,-4.0448,-3.9675,-3.874,-3.7851,-3.7013,-3.6207,-3.5742,-3.5704,-3.5704,-3.5704,-3.5704,-3.5643,-3.5614,-3.5617,-3.5547,-3.5509,-3.5494,-3.55,-3.55,-3.5472,-3.5281,-3.5089,-3.4898,-3.4689,-3.4465,-3.4504,-3.5039,-3.603,-3.7578,-3.7912,-3.8339,-3.8822,-3.9064,-3.9101,-3.9055,-3.8822,-3.8624,-3.8486,-3.8165,-3.7756,-3.7631,-3.7594,-3.7667,-3.7703,-3.7613,-3.7503,-3.7391,-3.7259,-3.7163,-3.7066,-3.7027,-3.6851,-3.6527,-3.6006,-3.5305,-3.4577,-3.3806,-3.3372,-3.3293,-3.3293,-3.3203,-5.4901,-5.4901,-5.4901,-5.4446,-5.365,-5.2764,-5.1931,-5.1149,-5.0339,-5.0169,-5.0383,-5.0446,-5.0644,-5.0893,-5.0855,-5.0775,-5.0701,-5.0702,-5.0057,-4.8942,-4.8375,-4.7509,-4.6488,-4.6017,-4.5841,-4.5905,-4.6021,-4.6176,-4.6179,-4.5421,-4.4563,-4.3684,-4.2825,-4.1967,-4.1265,-4.1109,-4.1115,-4.1087,-4.1031,-4.0986,-4.0981,-4.0937,-4.0873,-4.0807,-4.0792,-4.0802,-4.0797,-4.0797,-4.0797,-4.0797,-4.0797,-4.0797,-4.0797,-4.0797,-4.0681,-4.0294,-3.9501,-3.8644,-3.7793,-3.6955,-3.6226,-3.5742,-3.5704,-3.5723,-3.5704,-3.5679,-3.5656,-3.5608,-3.5578,-3.5541,-3.5509,-3.5494,-3.55,-3.5467,-3.5304,-3.5185,-3.5054,-3.4811,-3.4569,-3.4592,-3.508,-3.577,-3.6402,-3.7257,-3.7986,-3.8302,-3.8767,-3.9045,-3.9069,-3.897,-3.8836,-3.8655,-3.8563,-3.8392,-3.7948,-3.7846,-3.7828,-3.7846,-3.7793,-3.7594,-3.7447,-3.7353,-3.7239,-3.7105,-3.7027,-3.693,-3.6629,-3.5929,-3.5243,-3.4649,-3.3882,-3.3424,-3.3293,-3.3293,-3.3229,-5.4901,-5.4863,-5.4617,-5.4048,-5.3215,-5.2381,-5.1533,-5.077,-5.0177,-5.007,-5.0294,-5.0383,-5.0558,-5.0816,-5.0869,-5.0844,-5.0766,-5.071,-5.0259,-4.9403,-4.8519,-4.7682,-4.6873,-4.6097,-4.5794,-4.5894,-4.6009,-4.6156,-4.6218,-4.5695,-4.4816,-4.3705,-4.3099,-4.222,-4.1303,-4.1109,-4.1109,-4.1099,-4.1033,-4.0992,-4.0982,-4.0933,-4.0878,-4.0842,-4.0798,-4.0802,-4.0797,-4.0797,-4.0797,-4.0797,-4.0797,-4.0797,-4.0797,-4.0797,-4.0797,-4.0719,-3.9984,-3.9249,-3.8624,-3.7793,-3.7077,-3.6555,-3.6226,-3.6091,-3.6071,-3.5864,-3.5673,-3.5626,-3.5596,-3.5566,-3.5509,-3.5489,-3.55,-3.5493,-3.5388,-3.5285,-3.5201,-3.4889,-3.4658,-3.4517,-3.4752,-3.5151,-3.5584,-3.6705,-3.7498,-3.7838,-3.8581,-3.9064,-3.9101,-3.9087,-3.8984,-3.8703,-3.8737,-3.8535,-3.8201,-3.8002,-3.8003,-3.8003,-3.7986,-3.7757,-3.7576,-3.7466,-3.7316,-3.7163,-3.7046,-3.6968,-3.6553,-3.5851,-3.5272,-3.4745,-3.4068,-3.3503,-3.3398,-3.3293,-3.3256,-5.4882,-5.4731,-5.4048,-5.3233,-5.2381,-5.1609,-5.0751,-5.0082,-4.9931,-5.0025,-5.0236,-5.0347,-5.0527,-5.071,-5.0861,-5.0893,-5.0863,-5.0775,-5.0335,-4.9575,-4.8566,-4.7721,-4.6971,-4.6074,-4.5688,-4.5822,-4.6002,-4.6173,-4.6278,-4.6163,-4.5363,-4.4037,-4.3666,-4.2768,-4.1168,-4.1168,-4.1109,-4.11,-4.1033,-4.0995,-4.0982,-4.0929,-4.0898,-4.0877,-4.0829,-4.0808,-4.0797,-4.0797,-4.0797,-4.0797,-4.0797,-4.0797,-4.0797,-4.0797,-4.0797,-4.07,-4.0004,-3.9578,-3.9385,-3.8644,-3.8179,-3.7845,-3.7367,-3.6922,-3.6845,-3.6265,-3.5809,-3.5767,-3.566,-3.5566,-3.5515,-3.5495,-3.5488,-3.55,-3.5479,-3.5403,-3.5234,-3.5009,-3.4713,-3.4393,-3.4363,-3.4599,-3.5361,-3.629,-3.7071,-3.7708,-3.8525,-3.9101,-3.9101,-3.9101,-3.8956,-3.8748,-3.8766,-3.8707,-3.8412,-3.8154,-3.8172,-3.8192,-3.8158,-3.8038,-3.7828,-3.7667,-3.7466,-3.7297,-3.7066,-3.6968,-3.6771,-3.6101,-3.5582,-3.5005,-3.4301,-3.3729,-3.3617,-3.3513,-3.3319,-5.4598,-5.4067,-5.3821,-5.2854,-5.1628,-5.1305,-5.0713,-4.9931,-4.9893,-5.0012,-5.02,-5.0328,-5.0517,-5.0682,-5.0841,-5.0909,-5.0893,-5.0844,-5.0649,-5.0094,-4.8824,-4.7988,-4.7499,-4.6259,-4.5692,-4.5863,-4.6009,-4.6176,-4.6275,-4.6302,-4.5675,-4.4699,-4.3979,-4.3118,-4.1986,-4.1439,-4.1109,-4.1114,-4.1074,-4.1048,-4.0991,-4.0983,-4.0937,-4.0893,-4.0886,-4.0854,-4.0808,-4.0809,-4.0797,-4.0797,-4.0797,-4.0797,-4.0797,-4.0797,-4.0797,-4.0777,-4.0584,-4.0081,-3.9559,-3.9268,-3.8818,-3.8328,-3.7941,-3.7825,-3.7709,-3.7013,-3.6549,-3.6422,-3.5973,-3.5577,-3.5566,-3.5534,-3.5534,-3.55,-3.55,-3.5479,-3.5354,-3.5098,-3.4792,-3.452,-3.4316,-3.4339,-3.4773,-3.572,-3.6792,-3.7169,-3.8247,-3.9082,-3.9101,-3.9101,-3.9101,-3.8956,-3.897,-3.8869,-3.8554,-3.8366,-3.8387,-3.829,-3.8207,-3.8175,-3.7986,-3.7828,-3.7613,-3.7372,-3.7126,-3.693,-3.6731,-3.6367,-3.5859,-3.538,-3.48,-3.4358,-3.4002,-3.3755,-3.3539,-5.4446,-5.3688,-5.3347,-5.2442,-5.1206,-5.0884,-5.0429,-4.9931,-4.9893,-4.9973,-5.0126,-5.0306,-5.0476,-5.0625,-5.0797,-5.0898,-5.0898,-5.0913,-5.067,-5.0138,-4.8889,-4.8043,-4.7573,-4.6313,-4.573,-4.5878,-4.5987,-4.6131,-4.6298,-4.6262,-4.5851,-4.4992,-4.4133,-4.3255,-4.2396,-4.1576,-4.1109,-4.1112,-4.111,-4.1052,-4.1012,-4.0986,-4.0953,-4.0917,-4.0888,-4.0867,-4.0848,-4.0814,-4.0809,-4.0797,-4.0797,-4.0797,-4.0797,-4.0797,-4.0797,-4.0797,-4.0777,-4.0545,-4.0062,-3.9984,-3.9771,-3.9243,-3.8876,-3.8682,-3.8528,-3.7889,-3.74,-3.7265,-3.6951,-3.6425,-3.6169,-3.6036,-3.5868,-3.5508,-3.5494,-3.5479,-3.5361,-3.5098,-3.4821,-3.4586,-3.4363,-3.4233,-3.4531,-3.5609,-3.6643,-3.6909,-3.8061,-3.9101,-3.9101,-3.9101,-3.9055,-3.9041,-3.9031,-3.8869,-3.8658,-3.8585,-3.859,-3.8435,-3.8257,-3.8209,-3.8073,-3.7916,-3.7757,-3.741,-3.7143,-3.7009,-3.6831,-3.6547,-3.6114,-3.5688,-3.5311,-3.4776,-3.4309,-3.3942,-3.3694,-5.4371,-5.3556,-5.2688,-5.1869,-5.1016,-5.0296,-4.9969,-4.9893,-4.9893,-4.9893,-4.9986,-5.026,-5.0404,-5.0488,-5.0743,-5.0898,-5.0898,-5.0898,-5.0333,-4.9512,-4.8574,-4.7808,-4.6844,-4.6048,-4.5776,-4.5875,-4.5905,-4.6045,-4.6249,-4.6278,-4.589,-4.5168,-4.4211,-4.3333,-4.2533,-4.1596,-4.1109,-4.1112,-4.111,-4.1073,-4.0998,-4.0994,-4.0967,-4.0906,-4.0908,-4.0902,-4.0886,-4.0843,-4.0802,-4.0797,-4.0797,-4.0797,-4.0797,-4.0797,-4.0797,-4.0797,-4.0797,-4.0797,-4.0777,-4.0661,-4.0642,-4.0487,-3.9926,-3.9578,-3.9462,-3.8798,-3.8257,-3.8251,-3.8059,-3.7732,-3.7121,-3.6929,-3.6505,-3.5753,-3.5585,-3.5451,-3.5242,-3.5046,-3.485,-3.4647,-3.4404,-3.4216,-3.429,-3.5677,-3.6495,-3.6996,-3.8061,-3.8915,-3.9101,-3.9055,-3.897,-3.8998,-3.9087,-3.9003,-3.884,-3.8811,-3.877,-3.8496,-3.8338,-3.8274,-3.8124,-3.7951,-3.7811,-3.7466,-3.7163,-3.7066,-3.6911,-3.667,-3.6489,-3.6245,-3.5737,-3.5111,-3.4681,-3.4374,-3.3933,-5.3518,-5.2651,-5.1855,-5.1035,-5.0277,-4.9969,-4.9893,-4.9893,-4.9893,-4.9893,-4.9986,-5.0249,-5.0385,-5.0427,-5.0763,-5.0898,-5.0898,-5.0879,-5.0047,-4.8833,-4.8446,-4.7378,-4.6285,-4.5844,-4.575,-4.5809,-4.5892,-4.5987,-4.6144,-4.6247,-4.6163,-4.5909,-4.4406,-4.3608,-4.3177,-4.1831,-4.1168,-4.1109,-4.1115,-4.111,-4.1053,-4.1015,-4.0991,-4.0967,-4.0939,-4.0888,-4.0902,-4.0848,-4.0802,-4.0797,-4.0797,-4.0797,-4.0797,-4.0797,-4.0797,-4.0797,-4.0797,-4.0797,-4.0797,-4.0797,-4.0797,-4.0797,-4.0545,-4.0468,-4.0429,-3.9655,-3.921,-3.9056,-3.8638,-3.8156,-3.7905,-3.781,-3.7353,-3.6575,-3.6008,-3.5595,-3.5388,-3.5134,-3.4879,-3.4782,-3.4446,-3.4245,-3.4531,-3.551,-3.6625,-3.6959,-3.7912,-3.9082,-3.9064,-3.9096,-3.9041,-3.9142,-3.9215,-3.9147,-3.9092,-3.9059,-3.8898,-3.8585,-3.8415,-3.837,-3.8156,-3.7916,-3.7739,-3.7539,-3.7239,-3.7068,-3.7009,-3.6871,-3.6753,-3.6635,-3.6245,-3.5671,-3.5295,-3.4965,-3.4374,-5.3196,-5.2329,-5.1533,-5.0694,-4.995,-4.9893,-4.9893,-4.9893,-4.9893,-4.9893,-4.9986,-5.0249,-5.0385,-5.0417,-5.0763,-5.0898,-5.0879,-5.055,-4.9641,-4.8461,-4.7576,-4.6654,-4.5885,-4.5742,-4.5773,-4.5796,-4.5906,-4.6007,-4.6105,-4.624,-4.6298,-4.5948,-4.4564,-4.3744,-4.353,-4.2025,-4.1109,-4.1109,-4.1109,-4.1102,-4.1094,-4.1052,-4.1003,-4.0989,-4.0945,-4.0924,-4.0912,-4.084,-4.0806,-4.0796,-4.0803,-4.0797,-4.0797,-4.0797,-4.0797,-4.0797,-4.0797,-4.0797,-4.0797,-4.0797,-4.0797,-4.0797,-4.0797,-4.0797,-4.0719,-4.0294,-4.0042,-3.9984,-3.9533,-3.916,-3.8735,-3.8421,-3.7919,-3.7384,-3.6874,-3.6276,-3.5654,-3.5132,-3.4945,-3.4811,-3.4531,-3.4216,-3.4234,-3.5423,-3.6197,-3.6811,-3.7721,-3.8525,-3.899,-3.9073,-3.917,-3.9256,-3.9341,-3.9315,-3.9275,-3.9242,-3.9142,-3.8826,-3.8476,-3.8433,-3.8221,-3.7933,-3.7757,-3.7594,-3.7298,-3.7087,-3.7048,-3.7009,-3.693,-3.6753,-3.6533,-3.6266,-3.5864,-3.547,-3.4871,-5.3063,-5.2215,-5.1395,-5.0599,-4.995,-4.9893,-4.9893,-4.9893,-4.9893,-4.9893,-4.9973,-5.0225,-5.0372,-5.0406,-5.0708,-5.0882,-5.0859,-5.0152,-4.9165,-4.7985,-4.6818,-4.5841,-4.5808,-4.575,-4.5769,-4.5782,-4.5911,-4.6007,-4.6095,-4.6214,-4.63,-4.595,-4.4662,-4.3862,-4.3469,-4.2103,-4.1285,-4.1129,-4.1109,-4.1099,-4.1092,-4.1074,-4.1037,-4.0986,-4.097,-4.0941,-4.0913,-4.0848,-4.0834,-4.0806,-4.0796,-4.0803,-4.0797,-4.0797,-4.0797,-4.0797,-4.0797,-4.0797,-4.0797,-4.0797,-4.0797,-4.0797,-4.0797,-4.0797,-4.0777,-4.0681,-4.0642,-4.0642,-4.0797,-4.0274,-3.9721,-3.8923,-3.8498,-3.8285,-3.8127,-3.7361,-3.615,-3.5331,-3.5003,-3.4879,-3.4498,-3.4257,-3.442,-3.4952,-3.5795,-3.6681,-3.7591,-3.8321,-3.8859,-3.9091,-3.9215,-3.936,-3.9444,-3.9495,-3.9451,-3.9406,-3.9283,-3.9069,-3.8646,-3.8446,-3.8303,-3.8071,-3.7863,-3.7631,-3.741,-3.722,-3.7087,-3.7048,-3.7009,-3.695,-3.6753,-3.655,-3.6284,-3.5907,-3.5402,-5.221,-5.1381,-5.0523,-5.0082,-4.9912,-4.9893,-4.9893,-4.9893,-4.9893,-4.9893,-4.9946,-5.0144,-5.0302,-5.0415,-5.0635,-5.0799,-5.0774,-4.9977,-4.8914,-4.7328,-4.6348,-4.5838,-4.5783,-4.5754,-4.57,-4.5727,-4.5834,-4.593,-4.5994,-4.6159,-4.6303,-4.6114,-4.523,-4.4387,-4.3626,-4.2669,-4.1752,-4.1246,-4.1109,-4.1112,-4.1086,-4.1053,-4.1037,-4.1005,-4.0948,-4.0915,-4.0903,-4.0893,-4.0892,-4.0876,-4.0837,-4.0802,-4.0803,-4.0796,-4.0796,-4.0797,-4.0797,-4.0797,-4.0797,-4.0797,-4.0797,-4.0797,-4.0797,-4.0797,-4.0797,-4.0797,-4.0797,-4.0797,-4.0797,-4.0681,-4.0423,-4.0275,-3.9741,-3.927,-3.9036,-3.8628,-3.7603,-3.6519,-3.5714,-3.5095,-3.4606,-3.4216,-3.4284,-3.4915,-3.5733,-3.6569,-3.7331,-3.8154,-3.8632,-3.898,-3.9187,-3.9292,-3.9469,-3.952,-3.9546,-3.947,-3.9362,-3.9224,-3.8869,-3.8588,-3.8449,-3.8206,-3.7984,-3.7757,-3.752,-3.7353,-3.722,-3.7105,-3.7046,-3.7007,-3.695,-3.6791,-3.6571,-3.6245,-3.6015,-5.1945,-5.113,-5.0277,-4.9893,-4.9893,-4.9893,-4.9893,-4.9893,-4.9893,-4.9893,-4.9933,-5.0101,-5.0275,-5.0415,-5.0616,-5.0782,-5.0592,-4.9591,-4.814,-4.6709,-4.5955,-4.5831,-4.5817,-4.5773,-4.5727,-4.5665,-4.5803,-4.5883,-4.5968,-4.6092,-4.6228,-4.6233,-4.5444,-4.4816,-4.4133,-4.3097,-4.222,-4.1732,-4.1285,-4.1109,-4.1098,-4.1055,-4.1031,-4.0998,-4.0926,-4.0888,-4.0903,-4.0898,-4.0888,-4.0897,-4.0876,-4.0818,-4.0802,-4.0808,-4.0802,-4.0803,-4.0797,-4.0797,-4.0797,-4.0797,-4.0797,-4.0797,-4.0797,-4.0797,-4.0797,-4.0797,-4.0797,-4.0797,-4.0797,-4.0797,-4.081,-4.072,-4.0391,-4.0165,-3.9939,-3.9576,-3.8712,-3.7614,-3.6673,-3.6026,-3.5475,-3.5077,-3.5063,-3.5132,-3.5287,-3.5974,-3.6142,-3.6959,-3.812,-3.85,-3.8952,-3.9156,-3.9407,-3.9546,-3.9583,-3.954,-3.9445,-3.9277,-3.9055,-3.8859,-3.8728,-3.8433,-3.8138,-3.7915,-3.7703,-3.7502,-3.7371,-3.722,-3.7085,-3.7027,-3.6987,-3.695,-3.6851,-3.6591,-3.6451,-5.1869,-5.094,-5.0201,-4.9893,-4.9893,-4.9893,-4.9893,-4.9893,-4.9893,-4.9893,-4.992,-5.0108,-5.0228,-5.0404,-5.0576,-5.065,-5.0101,-4.9184,-4.7618,-4.6078,-4.5884,-4.5812,-4.581,-4.5795,-4.5773,-4.5719,-4.5835,-4.59,-4.5954,-4.6041,-4.6197,-4.617,-4.5643,-4.515,-4.468,-4.3683,-4.2708,-4.2259,-4.1713,-4.1265,-4.1133,-4.1092,-4.1062,-4.0989,-4.0945,-4.0893,-4.0903,-4.0888,-4.0893,-4.0893,-4.0888,-4.0862,-4.0823,-4.08,-4.0814,-4.0803,-4.0797,-4.0797,-4.0797,-4.0797,-4.0797,-4.0797,-4.0797,-4.0797,-4.0797,-4.0797,-4.0797,-4.0797,-4.0797,-4.0797,-4.081,-4.0771,-4.0713,-4.0649,-4.0622,-4.0293,-3.9641,-3.8666,-3.8082,-3.7146,-3.6389,-3.5885,-3.536,-3.5138,-3.5194,-3.5268,-3.5436,-3.5894,-3.7091,-3.7925,-3.8288,-3.8726,-3.8933,-3.9396,-3.9521,-3.9608,-3.9496,-3.9388,-3.921,-3.9087,-3.895,-3.8695,-3.8415,-3.8121,-3.7916,-3.7703,-3.752,-3.7371,-3.722,-3.7085,-3.7007,-3.697,-3.693,-3.6908,-3.6791,-5.1509,-5.0107,-4.9969,-4.9893,-4.9893,-4.9893,-4.9893,-4.9893,-4.9893,-4.9893,-4.9893,-4.9933,-5.0125,-5.035,-5.0425,-4.9894,-4.9119,-4.845,-4.7463,-4.6039,-4.5807,-4.5812,-4.5812,-4.5805,-4.5791,-4.5798,-4.5854,-4.5919,-4.5987,-4.6112,-4.6192,-4.6227,-4.6096,-4.5742,-4.5189,-4.4563,-4.3626,-4.2669,-4.2181,-4.1771,-4.1232,-4.1092,-4.1062,-4.1,-4.0937,-4.0893,-4.0888,-4.0903,-4.0903,-4.0903,-4.0903,-4.0903,-4.0872,-4.0826,-4.0804,-4.0814,-4.0809,-4.0797,-4.0797,-4.0797,-4.0797,-4.0797,-4.0797,-4.0797,-4.0797,-4.0797,-4.0797,-4.0797,-4.0797,-4.0797,-4.0797,-4.0784,-4.0784,-4.0778,-4.072,-4.0616,-4.039,-3.9993,-3.9218,-3.8033,-3.7272,-3.6569,-3.5984,-3.541,-3.5206,-3.5175,-3.5126,-3.5628,-3.6596,-3.7137,-3.7411,-3.7898,-3.8353,-3.8927,-3.9445,-3.9552,-3.9564,-3.9514,-3.9362,-3.9251,-3.912,-3.8964,-3.871,-3.8494,-3.8188,-3.7898,-3.7721,-3.752,-3.7371,-3.722,-3.7124,-3.6989,-3.695,-3.6948,-3.6891,-5.1054,-4.9931,-4.9893,-4.9893,-4.9893,-4.9893,-4.9893,-4.9893,-4.9893,-4.9893,-4.9893,-4.9906,-5.0076,-5.0309,-5.0385,-4.9634,-4.8686,-4.8392,-4.7386,-4.6116,-4.5807,-4.5807,-4.5807,-4.5807,-4.5812,-4.5812,-4.5847,-4.5886,-4.5939,-4.599,-4.6125,-4.623,-4.6266,-4.6075,-4.5638,-4.5148,-4.4348,-4.3235,-4.263,-4.2006,-4.1192,-4.1074,-4.1028,-4.0986,-4.0945,-4.0893,-4.0888,-4.0888,-4.0888,-4.0888,-4.0888,-4.0898,-4.0903,-4.0883,-4.0826,-4.0806,-4.0802,-4.0809,-4.0797,-4.0797,-4.0797,-4.0797,-4.0797,-4.0797,-4.0797,-4.0797,-4.0797,-4.0797,-4.0797,-4.0797,-4.0797,-4.0797,-4.0797,-4.081,-4.0778,-4.0746,-4.0739,-4.0713,-3.9915,-3.8892,-3.8451,-3.7676,-3.6554,-3.5988,-3.5415,-3.5119,-3.4909,-3.5399,-3.61,-3.6335,-3.6552,-3.7268,-3.7796,-3.8339,-3.8882,-3.9082,-3.9326,-3.9364,-3.9383,-3.9275,-3.9309,-3.9175,-3.9059,-3.8913,-3.8569,-3.8204,-3.7916,-3.7721,-3.7539,-3.7372,-3.7239,-3.7143,-3.7029,-3.697,-3.693,-5.0694,-4.9893,-4.9893,-4.9893,-4.9893,-4.9893,-4.9893,-4.9893,-4.9893,-4.9893,-4.9893,-4.9906,-5.007,-5.0325,-5.0265,-4.972,-4.8481,-4.8411,-4.7386,-4.6097,-4.5807,-4.5807,-4.5807,-4.5819,-4.5812,-4.5812,-4.5788,-4.5833,-4.5894,-4.5925,-4.6018,-4.6142,-4.6259,-4.6291,-4.6088,-4.5656,-4.4777,-4.3977,-4.3118,-4.2201,-4.1355,-4.1054,-4.1023,-4.0992,-4.0964,-4.0915,-4.0893,-4.0888,-4.0888,-4.0888,-4.0888,-4.0888,-4.0903,-4.0888,-4.0867,-4.0823,-4.0806,-4.0802,-4.0809,-4.0797,-4.0797,-4.0797,-4.0797,-4.0797,-4.0797,-4.0797,-4.0797,-4.0797,-4.0797,-4.0797,-4.0797,-4.0797,-4.0797,-4.0797,-4.0797,-4.079,-4.079,-4.0771,-4.0694,-4.0019,-3.9645,-3.8639,-3.732,-3.6517,-3.5925,-3.4909,-3.4652,-3.4691,-3.5298,-3.5413,-3.5778,-3.6649,-3.7277,-3.7763,-3.8181,-3.8425,-3.8707,-3.8976,-3.9058,-3.9064,-3.9252,-3.9406,-3.9277,-3.9082,-3.8942,-3.8585,-3.8271,-3.7969,-3.781,-3.7631,-3.7428,-3.7259,-3.7163,-3.7029,-3.697,-5.0694,-4.9893,-4.9893,-4.9893,-4.9893,-4.9893,-4.9893,-4.9893,-4.9893,-4.9893,-4.9893,-4.9906,-5.0025,-5.0264,-5.0546,-4.9772,-4.8798,-4.8295,-4.7444,-4.6,-4.5807,-4.5807,-4.58,-4.581,-4.5805,-4.5805,-4.5743,-4.5783,-4.588,-4.5935,-4.601,-4.6138,-4.6212,-4.6295,-4.6262,-4.6066,-4.5714,-4.4836,-4.3918,-4.271,-4.1447,-4.1132,-4.1048,-4.1021,-4.0972,-4.0941,-4.0902,-4.0888,-4.0888,-4.0888,-4.0888,-4.0888,-4.0888,-4.0888,-4.0883,-4.0867,-4.0854,-4.0794,-4.0808,-4.0809,-4.0797,-4.0797,-4.0797,-4.0797,-4.0797,-4.0797,-4.0797,-4.0797,-4.0797,-4.0797,-4.0797,-4.0797,-4.0797,-4.0797,-4.0797,-4.0797,-4.0797,-4.079,-4.0733,-4.0674,-4.0179,-3.9062,-3.7814,-3.7108,-3.6366,-3.5274,-3.4469,-3.4539,-3.461,-3.4828,-3.5001,-3.5852,-3.6595,-3.7099,-3.7418,-3.7692,-3.803,-3.8413,-3.8525,-3.8657,-3.8801,-3.894,-3.9269,-3.9115,-3.9022,-3.8923,-3.86,-3.8334,-3.8103,-3.7863,-3.7595,-3.7428,-3.7278,-3.7163,-3.6989,-5.0239,-4.9893,-4.9893,-4.9893,-4.9893,-4.9893,-4.9893,-4.9893,-4.9893,-4.9893,-4.9893,-4.9893,-5.0044,-5.0313,-5.0577,-4.9828,-4.8678,-4.8411,-4.7444,-4.6116,-4.5826,-4.5807,-4.58,-4.5805,-4.5812,-4.5798,-4.5781,-4.5792,-4.5854,-4.5896,-4.5944,-4.6096,-4.6142,-4.6236,-4.628,-4.6302,-4.5753,-4.4836,-4.3704,-4.2611,-4.1896,-4.1384,-4.1072,-4.1012,-4.0989,-4.0963,-4.0935,-4.0888,-4.0888,-4.0888,-4.0888,-4.0888,-4.0888,-4.0888,-4.0898,-4.0888,-4.0872,-4.0834,-4.08,-4.0815,-4.0797,-4.0797,-4.0797,-4.0797,-4.0797,-4.0797,-4.0797,-4.0797,-4.0797,-4.0797,-4.0797,-4.0797,-4.0797,-4.0797,-4.0797,-4.0797,-4.0797,-4.0797,-4.0784,-4.0771,-4.0649,-3.96,-3.8608,-3.7868,-3.7004,-3.586,-3.5016,-3.473,-3.4703,-3.4695,-3.4827,-3.5022,-3.5747,-3.6404,-3.6667,-3.6911,-3.7279,-3.7598,-3.7674,-3.7824,-3.8049,-3.8264,-3.8833,-3.9152,-3.9138,-3.8997,-3.8861,-3.8631,-3.8348,-3.8052,-3.7757,-3.7577,-3.7391,-3.7143,-3.6989,-4.9893,-4.9893,-4.9893,-4.9893,-4.9893,-4.9893,-4.9893,-4.9893,-4.9893,-4.9893,-4.9893,-4.9906,-5.0076,-5.0361,-5.0451,-4.9919,-4.879,-4.8508,-4.7502,-4.6523,-4.5923,-4.5807,-4.58,-4.5819,-4.5812,-4.58,-4.5761,-4.5788,-4.5791,-4.5789,-4.5871,-4.6054,-4.6118,-4.6197,-4.6277,-4.6243,-4.587,-4.4972,-4.3917,-4.304,-4.2362,-4.1769,-4.1367,-4.1121,-4.1005,-4.0984,-4.0937,-4.0912,-4.0888,-4.0888,-4.0888,-4.0888,-4.0888,-4.0888,-4.0888,-4.0898,-4.0893,-4.0881,-4.0843,-4.0814,-4.0809,-4.0797,-4.0797,-4.0797,-4.0797,-4.0797,-4.0797,-4.0797,-4.0797,-4.0797,-4.0797,-4.0797,-4.0797,-4.0797,-4.0797,-4.0797,-4.0797,-4.0797,-4.079,-4.0784,-4.0688,-4.0475,-3.9528,-3.8704,-3.7696,-3.6476,-3.571,-3.5105,-3.486,-3.4742,-3.4743,-3.4835,-3.5074,-3.5627,-3.5784,-3.6085,-3.649,-3.6941,-3.7016,-3.7336,-3.7786,-3.8331,-3.8964,-3.9145,-3.9176,-3.9264,-3.921,-3.8898,-3.8585,-3.83,-3.8,-3.7721,-3.7466,-3.7203,-3.7009,-4.9893,-4.9893,-4.9893,-4.9893,-4.9893,-4.9893,-4.9893,-4.9893,-4.9893,-4.9893,-4.9893,-4.992,-5.0076,-5.0339,-5.0359,-5.0106,-4.9525,-4.8778,-4.7804,-4.6922,-4.6271,-4.5884,-4.5819,-4.5805,-4.581,-4.5786,-4.5769,-4.5769,-4.5764,-4.5742,-4.5835,-4.5983,-4.6053,-4.6192,-4.628,-4.6261,-4.5948,-4.5265,-4.4621,-4.3722,-4.2903,-4.2228,-4.1848,-4.1211,-4.1021,-4.0988,-4.0984,-4.0941,-4.0893,-4.0893,-4.0888,-4.0888,-4.0888,-4.0888,-4.0888,-4.0903,-4.0888,-4.0902,-4.0876,-4.0837,-4.0802,-4.0803,-4.0797,-4.0797,-4.0797,-4.0797,-4.0797,-4.0797,-4.0797,-4.0797,-4.0797,-4.0797,-4.0797,-4.0797,-4.0797,-4.0797,-4.0797,-4.0797,-4.079,-4.0784,-4.0681,-4.0546,-4.023,-3.9346,-3.8609,-3.7429,-3.6094,-3.5452,-3.5063,-3.4898,-3.4791,-3.4766,-3.4703,-3.4859,-3.4875,-3.5288,-3.5991,-3.6622,-3.6922,-3.7392,-3.7925,-3.8488,-3.8913,-3.9157,-3.9232,-3.9396,-3.954,-3.9242,-3.8927,-3.8585,-3.8267,-3.7965,-3.7613,-3.7298,-3.7106,-4.9893,-4.9893,-4.9893,-4.9893,-4.9893,-4.9893,-4.9893,-4.9893,-4.9893,-4.9893,-4.9893,-4.9906,-5.0076,-5.0306,-5.0286,-5.0075,-4.9583,-4.8665,-4.7847,-4.7042,-4.6303,-4.5884,-4.5812,-4.5812,-4.5812,-4.5793,-4.5769,-4.5773,-4.5795,-4.5739,-4.5775,-4.5875,-4.5959,-4.6072,-4.6167,-4.6271,-4.6044,-4.5753,-4.5226,-4.4327,-4.343,-4.2573,-4.198,-4.1172,-4.1074,-4.1031,-4.1006,-4.099,-4.0945,-4.0926,-4.0893,-4.0888,-4.0888,-4.0888,-4.0888,-4.0888,-4.0893,-4.0903,-4.0877,-4.0834,-4.0808,-4.0803,-4.0797,-4.0797,-4.0797,-4.0797,-4.0797,-4.0797,-4.0797,-4.0797,-4.0797,-4.0797,-4.0797,-4.0797,-4.0797,-4.0797,-4.0797,-4.0797,-4.0797,-4.079,-4.0784,-4.072,-4.0352,-3.9915,-3.9213,-3.8393,-3.7024,-3.5856,-3.5501,-3.5219,-3.5144,-3.5069,-3.5029,-3.5296,-3.5388,-3.5542,-3.5732,-3.6295,-3.6908,-3.7418,-3.7962,-3.8206,-3.8582,-3.8913,-3.9289,-3.9464,-3.9564,-3.9514,-3.9269,-3.8913,-3.8548,-3.8212,-3.7826,-3.7393,-3.7184,-4.9893,-4.9893,-4.9893,-4.9893,-4.9893,-4.9893,-4.9893,-4.9893,-4.9893,-4.9893,-4.9893,-4.9906,-5.0076,-5.0283,-5.0268,-5.0255,-4.9759,-4.8842,-4.8036,-4.7233,-4.6484,-4.5923,-4.5807,-4.58,-4.58,-4.5819,-4.5805,-4.581,-4.581,-4.5765,-4.5778,-4.5808,-4.5776,-4.5925,-4.6072,-4.6201,-4.6269,-4.6103,-4.5734,-4.4933,-4.4094,-4.3256,-4.242,-4.1599,-4.1308,-4.1071,-4.1035,-4.0998,-4.0983,-4.0941,-4.0911,-4.0893,-4.0888,-4.0888,-4.0888,-4.0888,-4.0903,-4.0898,-4.0868,-4.0846,-4.08,-4.0796,-4.0809,-4.0803,-4.0797,-4.0797,-4.0797,-4.0797,-4.0797,-4.0797,-4.0797,-4.0797,-4.0797,-4.0797,-4.0797,-4.0797,-4.0797,-4.0797,-4.0797,-4.079,-4.079,-4.079,-4.0655,-4.0262,-3.9528,-3.8839,-3.7874,-3.674,-3.6096,-3.586,-3.5714,-3.5612,-3.5532,-3.5894,-3.6307,-3.6455,-3.6602,-3.6793,-3.7318,-3.7516,-3.7925,-3.8256,-3.8631,-3.9101,-3.942,-3.957,-3.9596,-3.9552,-3.9419,-3.9229,-3.8789,-3.8293,-3.7911,-3.7504,-3.7241,-4.9893,-4.9893,-4.9893,-4.9893,-4.9893,-4.9893,-4.9893,-4.9893,-4.9893,-4.9893,-4.9893,-4.9893,-5.0076,-5.0294,-5.024,-5.0272,-5.0096,-4.8866,-4.8026,-4.7646,-4.6484,-4.5923,-4.5807,-4.5807,-4.58,-4.58,-4.5786,-4.5791,-4.5805,-4.5765,-4.5781,-4.5765,-4.5719,-4.5775,-4.5915,-4.6037,-4.6156,-4.6255,-4.6202,-4.5617,-4.4816,-4.3938,-4.3045,-4.2211,-4.1461,-4.1094,-4.1067,-4.1037,-4.1017,-4.099,-4.0941,-4.0911,-4.0888,-4.0888,-4.0888,-4.0888,-4.0888,-4.0888,-4.0883,-4.0833,-4.0796,-4.08,-4.0794,-4.0802,-4.0803,-4.0797,-4.0797,-4.0797,-4.0797,-4.0797,-4.0797,-4.0797,-4.0797,-4.0797,-4.0797,-4.0797,-4.0797,-4.0797,-4.0797,-4.0797,-4.0797,-4.0797,-4.0797,-4.0558,-3.9804,-3.9115,-3.8464,-3.77,-3.6935,-3.6649,-3.6557,-3.6446,-3.6383,-3.6811,-3.7224,-3.7337,-3.7468,-3.7614,-3.7872,-3.8218,-3.8515,-3.8905,-3.9231,-3.9432,-3.9495,-3.9589,-3.9608,-3.9608,-3.9489,-3.9309,-3.8778,-3.8312,-3.7929,-3.765,-3.7412,-4.9893,-4.9893,-4.9893,-4.9893,-4.9893,-4.9893,-4.9893,-4.9893,-4.9893,-4.9893,-4.9893,-4.9893,-5.0095,-5.0245,-5.0128,-5.0068,-4.9787,-4.8778,-4.797,-4.739,-4.6322,-4.5962,-4.58,-4.5793,-4.5805,-4.5783,-4.5769,-4.5739,-4.5738,-4.5722,-4.5671,-4.5646,-4.5671,-4.5752,-4.5883,-4.6021,-4.6153,-4.6275,-4.6204,-4.5851,-4.5031,-4.4172,-4.3294,-4.2435,-4.1608,-4.1128,-4.1113,-4.1064,-4.1042,-4.1014,-4.0963,-4.0949,-4.0911,-4.0893,-4.0888,-4.0888,-4.0888,-4.0888,-4.0888,-4.0864,-4.0839,-4.0826,-4.0812,-4.082,-4.0802,-4.0803,-4.0797,-4.0797,-4.0797,-4.0797,-4.0797,-4.0797,-4.0797,-4.0797,-4.0797,-4.0797,-4.0797,-4.0797,-4.0797,-4.0797,-4.0797,-4.0797,-4.0797,-4.0797,-4.0191,-3.9881,-3.934,-3.8624,-3.7868,-3.7701,-3.7623,-3.7476,-3.7471,-3.7849,-3.8165,-3.8344,-3.8604,-3.883,-3.9035,-3.9294,-3.9547,-3.9526,-3.9529,-3.9585,-3.9613,-3.9608,-3.9608,-3.9608,-3.9564,-3.9335,-3.8952,-3.8655,-3.8402,-3.8046,-3.7685,-4.9857,-4.9912,-4.9893,-4.9893,-4.9893,-4.9893,-4.9893,-4.9893,-4.9893,-4.9893,-4.9893,-4.9893,-5.0057,-5.0174,-5.0031,-4.9763,-4.9489,-4.8443,-4.7605,-4.7028,-4.6199,-4.5902,-4.5798,-4.5771,-4.5761,-4.5758,-4.5723,-4.5692,-4.5703,-4.5665,-4.564,-4.5612,-4.5603,-4.57,-4.584,-4.5964,-4.6072,-4.6184,-4.6167,-4.6066,-4.5285,-4.4445,-4.3469,-4.2708,-4.1893,-4.1099,-4.1109,-4.1094,-4.1071,-4.1039,-4.1014,-4.0997,-4.0945,-4.0906,-4.0893,-4.0888,-4.0888,-4.0888,-4.0888,-4.0888,-4.0864,-4.0863,-4.0846,-4.0818,-4.08,-4.0802,-4.0809,-4.0797,-4.0797,-4.0797,-4.0797,-4.0797,-4.0797,-4.0797,-4.0797,-4.0797,-4.0797,-4.0797,-4.0797,-4.0797,-4.0797,-4.0797,-4.0797,-4.0797,-4.0623,-4.0468,-4.0294,-3.9533,-3.8837,-3.8709,-3.862,-3.8518,-3.8528,-3.8878,-3.9196,-3.9451,-3.9733,-4.0043,-4.0051,-3.9982,-3.9857,-3.9709,-3.9713,-3.9705,-3.9665,-3.9656,-3.9614,-3.9608,-3.9596,-3.9552,-3.9388,-3.9105,-3.8905,-3.848,-3.803,-4.9778,-4.9885,-4.9898,-4.9898,-4.9893,-4.9893,-4.9893,-4.9893,-4.9893,-4.9893,-4.9893,-4.9893,-5.0025,-5.0139,-4.9948,-4.9556,-4.9077,-4.8163,-4.7459,-4.687,-4.6078,-4.5885,-4.5773,-4.5739,-4.5723,-4.5708,-4.5692,-4.5684,-4.5692,-4.5654,-4.564,-4.5622,-4.5594,-4.5665,-4.5768,-4.5877,-4.5978,-4.6109,-4.6172,-4.6154,-4.5751,-4.468,-4.3918,-4.3138,-4.2241,-4.1404,-4.1179,-4.1109,-4.1093,-4.1087,-4.1041,-4.102,-4.0993,-4.0917,-4.0911,-4.0888,-4.0888,-4.0888,-4.0888,-4.0888,-4.0888,-4.0888,-4.0878,-4.0856,-4.0818,-4.0794,-4.0796,-4.0803,-4.0797,-4.0797,-4.0797,-4.0797,-4.0797,-4.0797,-4.0797,-4.0797,-4.0797,-4.0797,-4.0797,-4.0797,-4.0797,-4.0797,-4.0797,-4.0797,-4.0797,-4.0739,-4.0545,-4.0294,-3.9713,-3.9597,-3.9527,-3.9527,-3.9618,-3.9882,-4.014,-4.0203,-4.0207,-4.0321,-4.0195,-4.011,-4.0001,-3.9929,-3.9908,-3.9865,-3.9743,-3.9689,-3.9649,-3.9626,-3.9608,-3.9564,-3.954,-3.94,-3.9105,-3.8774,-3.8357,-4.9581,-4.9764,-4.9764,-4.9821,-4.9898,-4.9893,-4.9893,-4.9893,-4.9893,-4.9893,-4.9893,-4.9893,-4.9999,-5.0144,-4.9397,-4.8846,-4.8162,-4.7414,-4.6656,-4.6129,-4.5881,-4.5754,-4.5715,-4.5708,-4.5692,-4.5687,-4.5679,-4.5671,-4.5637,-4.5631,-4.5631,-4.5594,-4.5594,-4.5627,-4.5688,-4.578,-4.5922,-4.6045,-4.6138,-4.6211,-4.6039,-4.5107,-4.4366,-4.3469,-4.2591,-4.1752,-4.1231,-4.1117,-4.1108,-4.1093,-4.1091,-4.1055,-4.0987,-4.0967,-4.0949,-4.0893,-4.0888,-4.0888,-4.0888,-4.0888,-4.0888,-4.0888,-4.0898,-4.0849,-4.0826,-4.0812,-4.0808,-4.0809,-4.0797,-4.0797,-4.0797,-4.0797,-4.0797,-4.0797,-4.0797,-4.0797,-4.0797,-4.0797,-4.0797,-4.0797,-4.0797,-4.0797,-4.0797,-4.0797,-4.0797,-4.0797,-4.0739,-4.0565,-4.0448,-4.0294,-4.0216,-4.0197,-4.0255,-4.039,-4.0507,-4.0578,-4.0547,-4.0504,-4.0389,-4.0294,-4.0258,-4.0176,-4.0129,-4.0011,-3.9873,-3.9762,-3.967,-3.9649,-3.962,-3.9608,-3.9564,-3.947,-3.9335,-3.9008,-3.873,-4.9434,-4.9589,-4.9585,-4.9673,-4.9788,-4.9741,-4.9741,-4.9816,-4.9885,-4.9893,-4.9893,-4.9893,-4.9933,-4.9846,-4.9104,-4.8359,-4.7602,-4.7012,-4.6301,-4.5724,-4.5654,-4.5687,-4.5684,-4.5668,-4.5654,-4.5657,-4.5648,-4.564,-4.5594,-4.5594,-4.5594,-4.5594,-4.5594,-4.5594,-4.5618,-4.568,-4.5808,-4.5938,-4.6064,-4.6138,-4.5897,-4.5451,-4.458,-4.3723,-4.2864,-4.2025,-4.1246,-4.1129,-4.11,-4.111,-4.1112,-4.1091,-4.1027,-4.1008,-4.096,-4.0911,-4.0888,-4.0888,-4.0888,-4.0888,-4.0888,-4.0888,-4.0888,-4.0883,-4.0853,-4.0821,-4.0806,-4.0802,-4.0803,-4.0797,-4.0797,-4.0797,-4.0797,-4.0797,-4.0797,-4.0797,-4.0797,-4.0797,-4.0797,-4.0797,-4.0797,-4.0797,-4.0797,-4.0797,-4.0797,-4.0797,-4.0797,-4.0739,-4.0681,-4.0623,-4.0584,-4.0565,-4.0623,-4.0719,-4.0797,-4.0797,-4.0726,-4.0619,-4.0523,-4.045,-4.0458,-4.0394,-4.0274,-4.0129,-3.9948,-3.9851,-3.9751,-3.9649,-3.9608,-3.962,-3.962,-3.9552,-3.947,-3.9335,-3.9064,-4.926,-4.9384,-4.9399,-4.9525,-4.963,-4.9491,-4.9506,-4.9678,-4.9788,-4.9871,-4.9838,-4.9838,-4.9693,-4.9348,-4.862,-4.7808,-4.7062,-4.6435,-4.5912,-4.5314,-4.5575,-4.5673,-4.5646,-4.562,-4.562,-4.5603,-4.5594,-4.5603,-4.5594,-4.5594,-4.5594,-4.5594,-4.5594,-4.5594,-4.5603,-4.5612,-4.5696,-4.5782,-4.5944,-4.6064,-4.5936,-4.5409,-4.4657,-4.3762,-4.2942,-4.2142,-4.1381,-4.1109,-4.1109,-4.1099,-4.1107,-4.1113,-4.1087,-4.1027,-4.0967,-4.0932,-4.0902,-4.0888,-4.0888,-4.0888,-4.0888,-4.0888,-4.0888,-4.0893,-4.0868,-4.0842,-4.0834,-4.0814,-4.0796,-4.0803,-4.0797,-4.0797,-4.0797,-4.0797,-4.0797,-4.0797,-4.0797,-4.0797,-4.0797,-4.0797,-4.0797,-4.0797,-4.0797,-4.0797,-4.0797,-4.0797,-4.0797,-4.0797,-4.0797,-4.0797,-4.0797,-4.0797,-4.0797,-4.0797,-4.0797,-4.0797,-4.0797,-4.0733,-4.0635,-4.0615,-4.0622,-4.0533,-4.0415,-4.0274,-4.0139,-3.9958,-3.9829,-3.9743,-3.9656,-3.9638,-3.9638,-3.962,-3.9552,-3.9489,-3.9388,-4.9079,-4.926,-4.9352,-4.943,-4.9461,-4.943,-4.9415,-4.9495,-4.9506,-4.9484,-4.9518,-4.9446,-4.9164,-4.8604,-4.7786,-4.6939,-4.6218,-4.5815,-4.5338,-4.527,-4.5467,-4.564,-4.5612,-4.5603,-4.5594,-4.5594,-4.5594,-4.5594,-4.5594,-4.5594,-4.5594,-4.5594,-4.5594,-4.5594,-4.5594,-4.5594,-4.5627,-4.5673,-4.5801,-4.5954,-4.5994,-4.5797,-4.5262,-4.4198,-4.3274,-4.2494,-4.1734,-4.1129,-4.1109,-4.1112,-4.1115,-4.1107,-4.1113,-4.1053,-4.0994,-4.0979,-4.0928,-4.0906,-4.0888,-4.0888,-4.0888,-4.0888,-4.0888,-4.0903,-4.0888,-4.0868,-4.0856,-4.0818,-4.0808,-4.0796,-4.0803,-4.0797,-4.0797,-4.0797,-4.0797,-4.0797,-4.0797,-4.0797,-4.0797,-4.0797,-4.0797,-4.0797,-4.0797,-4.0797,-4.0797,-4.0797,-4.0797,-4.0797,-4.0797,-4.0797,-4.0797,-4.0797,-4.0797,-4.0797,-4.0797,-4.0797,-4.0797,-4.0796,-4.0739,-4.0738,-4.0787,-4.0694,-4.0588,-4.05,-4.0353,-4.0167,-3.9981,-3.9829,-3.9758,-3.972,-3.9619,-3.962,-3.9608,-3.9552,-3.954,-4.896,-4.9079,-4.9144,-4.9206,-4.9273,-4.9209,-4.9225,-4.9217,-4.8851,-4.8634,-4.8664,-4.8756,-4.8577,-4.7871,-4.6963,-4.6162,-4.549,-4.5192,-4.5041,-4.5082,-4.5361,-4.5559,-4.5594,-4.5594,-4.5594,-4.5594,-4.5594,-4.5594,-4.5594,-4.5594,-4.5594,-4.5594,-4.5594,-4.5594,-4.5594,-4.5594,-4.5594,-4.5603,-4.5692,-4.5802,-4.5979,-4.5881,-4.5543,-4.4549,-4.3723,-4.2903,-4.2084,-4.14,-4.1109,-4.1109,-4.1111,-4.1105,-4.1094,-4.1064,-4.1027,-4.1,-4.0972,-4.0932,-4.0906,-4.0888,-4.0888,-4.0888,-4.0888,-4.0903,-4.0903,-4.0883,-4.0839,-4.0821,-4.08,-4.0802,-4.0803,-4.0797,-4.0797,-4.0797,-4.0797,-4.0797,-4.0797,-4.0797,-4.0797,-4.0797,-4.0797,-4.0797,-4.0797,-4.0797,-4.0797,-4.0797,-4.0797,-4.0797,-4.0797,-4.0797,-4.0797,-4.0797,-4.0797,-4.0797,-4.0797,-4.0797,-4.0803,-4.0808,-4.0798,-4.0826,-4.0812,-4.0798,-4.0758,-4.0648,-4.053,-4.037,-4.0185,-4.0012,-3.9884,-3.9815,-3.9715,-3.962,-3.9608,-3.9608,-3.9577,-4.8909,-4.889,-4.889,-4.8995,-4.9129,-4.8959,-4.8919,-4.8833,-4.8101,-4.7662,-4.7564,-4.7691,-4.7741,-4.7165,-4.6375,-4.5696,-4.5185,-4.5004,-4.4862,-4.4996,-4.5381,-4.5531,-4.5594,-4.5594,-4.5594,-4.5594,-4.5594,-4.5594,-4.5594,-4.5594,-4.5594,-4.5594,-4.5594,-4.5594,-4.5594,-4.5594,-4.5594,-4.5594,-4.5635,-4.5673,-4.5822,-4.593,-4.5494,-4.4887,-4.4151,-4.3294,-4.2415,-4.1693,-4.1207,-4.1109,-4.1109,-4.1101,-4.111,-4.1093,-4.1062,-4.1031,-4.0997,-4.0979,-4.0932,-4.0921,-4.0912,-4.0888,-4.0888,-4.0888,-4.0888,-4.0878,-4.0854,-4.0842,-4.0823,-4.0794,-4.0796,-4.0797,-4.0797,-4.0797,-4.0797,-4.0797,-4.0797,-4.0797,-4.0797,-4.0797,-4.0797,-4.0797,-4.0797,-4.0797,-4.0797,-4.0797,-4.0797,-4.0797,-4.0797,-4.0797,-4.0797,-4.0797,-4.0797,-4.0797,-4.0797,-4.0797,-4.0803,-4.0814,-4.0804,-4.0833,-4.0859,-4.0848,-4.0821,-4.0787,-4.0655,-4.0526,-4.0383,-4.023,-4.0081,-3.9958,-3.9815,-3.9703,-3.9608,-3.9608,-3.9608,-4.889,-4.889,-4.889,-4.8926,-4.896,-4.8907,-4.8554,-4.8031,-4.7774,-4.7367,-4.6713,-4.6078,-4.5831,-4.5834,-4.5608,-4.5093,-4.455,-4.4642,-4.4814,-4.4903,-4.5322,-4.5513,-4.5594,-4.5594,-4.5594,-4.5594,-4.5594,-4.5594,-4.5594,-4.5594,-4.5594,-4.5594,-4.5594,-4.5594,-4.5594,-4.5594,-4.5594,-4.5594,-4.5612,-4.5651,-4.5766,-4.5739,-4.5462,-4.4839,-4.4116,-4.3267,-4.2415,-4.1557,-4.1226,-4.1109,-4.1109,-4.1114,-4.1102,-4.1111,-4.1093,-4.1063,-4.1031,-4.1011,-4.0977,-4.0941,-4.0924,-4.0906,-4.0906,-4.0888,-4.0888,-4.0888,-4.0883,-4.0888,-4.0851,-4.0804,-4.08,-4.0809,-4.0803,-4.0797,-4.0797,-4.0797,-4.0797,-4.0797,-4.0797,-4.0797,-4.0797,-4.0797,-4.0797,-4.0797,-4.0797,-4.0797,-4.0797,-4.0797,-4.0797,-4.0797,-4.0797,-4.0797,-4.0797,-4.0797,-4.0797,-4.0803,-4.0809,-4.08,-4.0815,-4.0844,-4.0869,-4.0878,-4.0878,-4.0848,-4.0809,-4.0719,-4.0568,-4.0423,-4.0274,-4.011,-3.9939,-3.9815,-3.9703,-3.9608,-3.9608]},{"header":{"parameterUnit":"m.s-1","parameterCategory":1,"la1":31.0,"la2":29.5877,"lo1":-88.7671,"lo2":-86.6584,"dy":0.0162,"dx":0.0185,"nx":115,"ny":88,"refTime":"2023-05-03T06:00:00:Z","depth":0,"parameterNumber":3,"parameterNumberName":"V-component_of_WINDS"},"data":[0.0,0.0,0.0,0.0,0.0,0.0,0.0,0.0,0.0,0.0,0.0,0.0,0.0,0.0,0.0,0.0,0.0,0.0,0.0,0.0,0.0,0.0,0.0,0.0,0.0,0.0,0.0,0.0,0.0,0.0,0.0,0.0,0.0,0.0,0.0,0.0,0.0,0.0,0.0,0.0,0.0,0.0,0.0,0.0,0.0,0.0,0.0,0.0,0.0,0.0,0.0,0.0,0.0,0.0,0.0,0.0,0.0,0.0,0.0,0.0,0.0,0.0,0.0,0.0,0.0,0.0,0.0,0.0,0.0,0.0,0.0,0.0,0.0,0.0,0.0,0.0,0.0,0.0,0.0,0.0,0.0,0.0,0.0,0.0,0.0,0.0,0.0,0.0,0.0,0.0,0.0,0.0,0.0,0.0,0.0,0.0,0.0,0.0,0.0,0.0,0.0,0.0,0.0,0.0,0.0,0.0,0.0,0.0,0.0,0.0,0.0,0.0,0.0,0.0,0.0,0.0,0.0,0.0,0.0,0.0,0.0,0.0,0.0,0.0,0.0,0.0,0.0,0.0,0.0,0.0,0.0,0.0,0.0,0.0,0.0,0.0,0.0,0.0,0.0,0.0,0.0,0.0,0.0,0.0,0.0,0.0,0.0,0.0,0.0,0.0,0.0,0.0,0.0,0.0,0.0,0.0,0.0,0.0,0.0,0.0,0.0,0.0,0.0,0.0,0.0,0.0,0.0,0.0,0.0,0.0,0.0,0.0,0.0,0.0,0.0,0.0,0.0,0.0,0.0,0.0,0.0,0.0,0.0,0.0,0.0,0.0,0.0,0.0,0.0,0.0,0.0,0.0,0.0,0.0,0.0,0.0,0.0,0.0,0.0,0.0,0.0,0.0,0.0,0.0,0.0,0.0,0.0,0.0,0.0,0.0,0.0,0.0,0.0,0.0,0.0,0.0,0.0,0.0,0.0,0.0,0.0,0.0,0.0,0.0,0.0,0.0,0.0,0.0,0.0,0.0,0.0,0.0,0.0,0.0,0.0,0.0,0.0,0.0,0.0,0.0,0.0,0.0,0.0,0.0,0.0,0.0,0.0,0.0,0.0,0.0,0.0,0.0,0.0,0.0,0.0,0.0,0.0,0.0,0.0,0.0,0.0,0.0,0.0,0.0,0.0,0.0,0.0,0.0,0.0,0.0,0.0,0.0,0.0,0.0,0.0,0.0,0.0,0.0,0.0,0.0,0.0,0.0,0.0,0.0,0.0,0.0,0.0,0.0,0.0,0.0,0.0,0.0,0.0,0.0,0.0,0.0,0.0,0.0,0.0,0.0,0.0,0.0,0.0,0.0,0.0,0.0,0.0,0.0,0.0,0.0,0.0,0.0,0.0,0.0,0.0,0.0,0.0,0.0,0.0,0.0,0.0,0.0,0.0,0.0,0.0,0.0,0.0,0.0,0.0,0.0,0.0,0.0,0.0,0.0,0.0,0.0,0.0,0.0,0.0,0.0,0.0,0.0,0.0,0.0,0.0,0.0,0.0,0.0,0.0,0.0,0.0,0.0,0.0,0.0,0.0,0.0,0.0,0.0,0.0,0.0,0.0,0.0,0.0,0.0,0.0,0.0,0.0,0.0,0.0,0.0,0.0,0.0,0.0,0.0,0.0,0.0,0.0,0.0,0.0,0.0,0.0,0.0,0.0,0.0,0.0,0.0,0.0,0.0,0.0,0.0,0.0,0.0,0.0,0.0,0.0,0.0,0.0,0.0,0.0,0.0,0.0,0.0,0.0,0.0,0.0,0.0,0.0,0.0,0.0,0.0,0.0,0.0,0.0,0.0,0.0,0.0,0.0,0.0,0.0,0.0,0.0,0.0,0.0,0.0,0.0,0.0,0.0,0.0,0.0,0.0,0.0,0.0,0.0,0.0,0.0,0.0,0.0,0.0,0.0,0.0,0.0,0.0,0.0,0.0,0.0,0.0,0.0,0.0,0.0,0.0,0.0,0.0,0.0,0.0,0.0,0.0,0.0,0.0,0.0,0.0,0.0,0.0,0.0,0.0,0.0,0.0,0.0,0.0,0.0,0.0,0.0,0.0,0.0,0.0,0.0,0.0,0.0,0.0,0.0,0.0,0.0,0.0,0.0,0.0,0.0,0.0,0.0,0.0,0.0,0.0,0.0,0.0,0.0,0.0,0.0,0.0,0.0,0.0,0.0,0.0,0.0,0.0,0.0,0.0,0.0,0.0,0.0,0.0,0.0,0.0,0.0,0.0,0.0,0.0,0.0,0.0,0.0,0.0,0.0,0.0,0.0,0.0,0.0,0.0,0.0,0.0,0.0,0.0,0.0,0.0,0.0,0.0,0.0,0.0,0.0,0.0,0.0,0.0,0.0,0.0,0.0,0.0,0.0,0.0,0.0,0.0,0.0,0.0,0.0,0.0,0.0,0.0,0.0,0.0,0.0,0.0,0.0,0.0,0.0,0.0,0.0,0.0,0.0,0.0,0.0,0.0,0.0,0.0,0.0,0.0,0.0,0.0,0.0,0.0,0.0,0.0,0.0,0.0,0.0,0.0,0.0,0.0,0.0,0.0,0.0,0.0,0.0,0.0,0.0,0.0,0.0,0.0,0.0,0.0,0.0,0.0,0.0,0.0,0.0,0.0,0.0,0.0,0.0,0.0,0.0,0.0,0.0,0.0,0.0,0.0,0.0,0.0,0.0,0.0,0.0,0.0,0.0,0.0,0.0,0.0,0.0,0.0,0.0,0.0,0.0,0.0,0.0,0.0,0.0,0.0,0.0,0.0,0.0,0.0,0.0,0.0,0.0,0.0,0.0,0.0,0.0,0.0,0.0,0.0,0.0,0.0,0.0,0.0,0.0,0.0,0.0,0.0,0.0,0.0,0.0,0.0,0.0,0.0,0.0,0.0,0.0,0.0,0.0,0.0,0.0,0.0,0.0,0.0,0.0,0.0,0.0,0.0,0.0,0.0,0.0,0.0,0.0,0.0,0.0,0.0,0.0,0.0,0.0,0.0,0.0,0.0,0.0,0.0,0.0,0.0,0.0,0.0,0.0,0.0,0.0,0.0,0.0,0.0,0.0,0.0,0.0,0.0,0.0,0.0,0.0,0.0,0.0,0.0,0.0,0.0,0.0,0.0,0.0,0.0,0.0,0.0,0.0,0.0,0.0,0.0,0.0,0.0,0.0,0.0,0.0,0.0,0.0,0.0,0.0,0.0,0.0,0.0,0.0,0.0,0.0,0.0,0.0,0.0,0.0,0.0,0.0,0.0,0.0,0.0,0.0,0.0,0.0,0.0,0.0,0.0,0.0,0.0,0.0,0.0,0.0,0.0,0.0,0.0,0.0,0.0,0.0,0.0,0.0,0.0,0.0,0.0,0.0,0.0,0.0,0.0,0.0,0.0,0.0,0.0,0.0,0.0,0.0,0.0,0.0,0.0,0.0,0.0,0.0,0.0,0.0,0.0,0.0,0.0,0.0,0.0,0.0,0.0,0.0,0.0,0.0,0.0,0.0,0.0,0.0,0.0,0.0,0.0,0.0,0.0,0.0,0.0,0.0,0.0,0.0,0.0,0.0,0.0,0.0,0.0,0.0,0.0,0.0,0.0,0.0,0.0,0.0,0.0,0.0,0.0,0.0,0.0,0.0,0.0,0.0,0.0,0.0,0.0,0.0,0.0,0.0,0.0,0.0,0.0,0.0,0.0,0.0,0.0,0.0,0.0,0.0,0.0,0.0,0.0,0.0,0.0,0.0,0.0,0.0,0.0,0.0,0.0,0.0,0.0,0.0,0.0,0.0,0.0,0.0,0.0,0.0,0.0,0.0,0.0,0.0,0.0,0.0,0.0,0.0,0.0,0.0,0.0,0.0,0.0,0.0,0.0,0.0,0.0,0.0,0.0,0.0,0.0,0.0,0.0,0.0,0.0,0.0,0.0,0.0,0.0,0.0,0.0,0.0,0.0,0.0,0.0,0.0,0.0,0.0,0.0,0.0,0.0,0.0,0.0,0.0,0.0,0.0,0.0,0.0,0.0,0.0,0.0,0.0,0.0,0.0,0.0,0.0,0.0,0.0,0.0,0.0,0.0,0.0,0.0,0.0,0.0,0.0,0.0,0.0,0.0,0.0,0.0,0.0,0.0,0.0,0.0,0.0,0.0,0.0,0.0,0.0,0.0,0.0,0.0,0.0,0.0,0.0,0.0,0.0,0.0,0.0,0.0,0.0,0.0,0.0,0.0,0.0,0.0,0.0,0.0,0.0,0.0,-0.554,0.0,0.0,0.0,0.0,0.0,0.0,0.0,0.0,0.0,0.0,0.0,0.0,0.0,0.0,0.0,0.0,0.0,0.0,0.0,0.0,0.0,0.0,0.0,0.0,0.0,0.0,0.0,0.0,0.0,0.0,0.0,0.0,0.0,0.0,0.0,0.0,0.0,0.0,0.0,0.0,0.0,0.0,0.0,0.0,0.0,0.0,0.0,0.0,0.0,0.0,0.0,0.0,0.0,0.0,0.0,0.0,0.0,0.0,0.0,0.0,0.0,0.0,0.0,0.0,0.0,0.0,0.0,0.0,0.0,0.0,0.0,0.0,0.0,0.0,0.0,0.0,0.0,0.0,0.0,0.0,0.0,0.0,0.0,0.0,0.0,0.0,0.0,0.0,0.0,0.0,0.0,0.0,0.0,0.0,0.0,0.0,0.0,0.0,0.0,0.0,0.0,0.0,0.0,0.0,0.0,0.0,0.0,0.0,0.0,0.0,-0.5165,-0.5065,-0.5274,-0.5164,-0.4794,0.0,0.0,0.0,0.0,0.0,0.0,0.0,0.0,0.0,0.0,0.0,0.0,0.0,0.0,0.0,0.0,0.0,0.0,0.0,0.0,0.0,0.0,0.0,0.0,0.0,0.0,0.0,0.0,0.0,0.0,0.0,0.0,0.0,0.0,0.0,0.0,0.0,0.0,0.0,0.0,0.0,0.0,0.0,0.0,0.0,0.0,0.0,0.0,0.0,0.0,0.0,0.0,0.0,0.0,0.0,0.0,0.0,0.0,0.0,0.0,0.0,0.0,0.0,0.0,0.0,0.0,0.0,0.0,0.0,0.0,0.0,0.0,0.0,0.0,0.0,0.0,0.0,0.0,0.0,0.0,0.0,0.0,0.0,0.0,0.0,0.0,0.0,0.0,0.0,0.0,0.0,0.0,0.0,0.0,0.0,0.0,0.0,0.0,0.0,0.0,0.0,0.0,0.0,0.0,0.0,0.0,0.0,0.0,0.0,0.0,0.0,0.0,-0.4569,-0.4451,-0.4308,0.0,0.0,0.0,0.0,0.0,0.0,0.0,0.0,0.0,0.0,0.0,0.0,0.0,0.0,0.0,0.0,0.0,0.0,0.0,0.0,0.0,0.0,0.0,0.0,0.0,0.0,0.0,0.0,0.0,0.0,0.0,0.0,0.0,0.0,0.0,0.0,0.0,0.0,0.0,0.0,0.0,0.0,0.0,0.0,0.0,0.0,0.0,0.0,0.0,0.0,0.0,0.0,0.0,0.0,0.0,0.0,0.0,0.0,0.0,0.0,0.0,0.0,0.0,0.0,0.0,0.0,0.0,0.0,0.0,0.0,0.0,0.0,0.0,0.0,0.0,0.0,0.0,0.0,0.0,0.0,0.0,0.0,0.0,0.0,0.0,0.0,0.0,0.0,0.0,0.0,0.0,0.0,0.0,0.0,0.0,0.0,0.0,0.0,0.0,0.0,0.0,0.0,0.0,0.0,0.0,0.0,0.0,0.0,0.0,0.0,-0.4776,-0.4692,-0.4566,0.0,-0.4311,0.0,0.0,0.0,0.0,0.0,0.0,0.0,0.0,0.0,0.0,0.0,0.0,0.0,0.0,0.0,0.0,0.0,0.0,0.0,0.0,0.0,0.0,0.0,0.0,0.0,0.0,0.0,0.0,0.0,0.0,0.0,0.0,0.0,0.0,0.0,0.0,0.0,0.0,0.0,0.0,0.0,0.0,0.0,0.0,0.0,0.0,0.0,0.0,0.0,0.0,0.0,0.0,0.0,0.0,0.0,0.0,0.0,0.0,0.0,0.0,0.0,0.0,0.0,0.0,0.0,0.0,0.0,0.0,0.0,0.0,0.0,0.0,0.0,0.0,0.0,0.0,0.0,0.0,0.0,0.0,0.0,0.0,0.0,0.0,0.0,0.0,0.0,0.0,0.0,0.0,0.0,0.0,0.0,0.0,0.0,0.0,0.0,0.0,0.0,0.0,0.0,0.0,0.0,0.0,0.0,0.0,0.0,0.0,0.0,0.0,-0.4852,-0.4695,-0.4503,-0.4346,0.0,0.0,0.0,0.0,0.0,0.0,0.0,0.0,0.0,0.0,0.0,0.0,0.0,0.0,0.0,0.0,0.0,0.0,0.0,0.0,0.0,0.0,0.0,0.0,0.0,0.0,0.0,0.0,0.0,0.0,0.0,0.0,0.0,0.0,0.0,0.0,0.0,0.0,0.0,0.0,0.0,0.0,0.0,0.0,0.0,0.0,0.0,0.0,0.0,0.0,0.0,0.0,0.0,0.0,0.0,0.0,0.0,0.0,0.0,0.0,0.0,0.0,0.0,0.0,0.0,0.0,0.0,0.0,0.0,0.0,0.0,0.0,0.0,0.0,0.0,0.0,0.0,0.0,0.0,0.0,0.0,0.0,0.0,0.0,0.0,0.0,0.0,0.0,0.0,0.0,0.0,0.0,0.0,0.0,0.0,0.0,0.0,0.0,0.0,0.0,0.0,0.0,0.0,0.0,0.0,0.0,0.0,0.0,0.0,0.0,-0.5018,-0.4901,-0.4695,-0.4452,-0.4333,-0.4303,0.0,0.0,0.0,0.0,0.0,0.0,0.0,0.0,0.0,0.0,0.0,0.0,0.0,0.0,0.0,0.0,0.0,0.0,0.0,0.0,0.0,0.0,0.0,0.0,0.0,0.0,0.0,0.0,0.0,0.0,0.0,0.0,0.0,0.0,0.0,0.0,0.0,0.0,0.0,0.0,0.0,0.0,0.0,0.0,0.0,0.0,0.0,0.0,0.0,0.0,0.0,0.0,0.0,0.0,0.0,0.0,0.0,0.0,0.0,0.0,0.0,0.0,0.0,0.0,0.0,0.0,0.0,0.0,0.0,0.0,0.0,0.0,0.0,0.0,0.0,0.0,0.0,0.0,0.0,0.0,0.0,0.0,0.0,0.0,0.0,0.0,0.0,0.0,0.0,0.0,0.0,0.0,0.0,0.0,0.0,0.0,0.0,0.0,0.0,0.0,0.0,0.0,0.0,0.0,0.0,0.0,0.0,0.0,-0.5018,-0.5015,-0.4898,-0.4698,-0.4564,-0.4446,0.0,0.0,0.0,0.0,0.0,0.0,0.0,0.0,0.0,0.0,0.0,0.0,0.0,0.0,0.0,0.0,0.0,0.0,0.0,0.0,0.0,0.0,0.0,0.0,0.0,0.0,0.0,0.0,0.0,0.0,0.0,0.0,0.0,0.0,0.0,0.0,0.0,0.0,0.0,0.0,0.0,0.0,0.0,0.0,0.0,0.0,0.0,0.0,0.0,0.0,0.0,0.0,0.0,0.0,0.0,0.0,0.0,0.0,0.0,0.0,0.0,0.0,0.0,0.0,0.0,0.0,0.0,0.0,0.0,0.0,0.0,0.0,0.0,0.0,0.0,0.0,0.0,0.0,0.0,0.0,0.0,0.0,0.0,0.0,0.0,0.0,0.0,0.0,0.0,0.0,0.0,0.0,0.0,0.0,0.0,0.0,0.0,0.0,0.0,0.0,0.0,0.0,0.0,0.0,0.0,0.0,0.0,0.0,0.0,-0.5015,-0.4901,-0.4822,-0.4692,-0.4569,-0.4414,0.0,0.0,0.0,0.0,0.0,0.0,0.0,0.0,0.0,0.0,0.0,0.0,0.0,0.0,0.0,0.0,0.0,0.0,0.0,0.0,0.0,0.0,0.0,0.0,0.0,0.0,0.0,0.0,0.0,0.0,0.0,0.0,0.0,0.0,0.0,0.0,0.0,0.0,0.0,0.0,0.0,0.0,0.0,0.0,0.0,0.0,0.0,0.0,0.0,0.0,0.0,0.0,0.0,0.0,0.0,0.0,0.0,0.0,0.0,0.0,0.0,0.0,0.0,0.0,0.0,0.0,0.0,0.0,0.0,0.0,0.0,0.0,0.0,0.0,0.0,0.0,0.0,0.0,0.0,0.0,0.0,0.0,0.0,0.0,0.0,0.0,0.0,0.0,0.0,0.0,0.0,0.0,0.0,0.0,0.0,0.0,0.0,0.0,0.0,0.0,0.0,0.0,0.0,0.0,0.0,0.0,0.0,0.0,0.0,-0.5015,0.0,-0.4817,-0.4695,-0.4608,-0.449,0.0,0.0,0.0,0.0,0.0,0.0,0.0,0.0,0.0,0.0,0.0,0.0,0.0,0.0,0.0,0.0,0.0,0.0,0.0,0.0,0.0,0.0,0.0,0.0,0.0,0.0,0.0,0.0,0.0,0.0,0.0,0.0,0.0,0.0,0.0,0.0,0.0,0.0,0.0,0.0,0.0,0.0,0.0,0.0,0.0,0.0,0.0,0.0,0.0,0.0,0.0,0.0,0.0,0.0,0.0,0.0,0.0,0.0,0.0,0.0,0.0,0.0,0.0,0.0,0.0,0.0,0.0,0.0,0.0,0.0,0.0,0.0,0.0,0.0,0.0,0.0,0.0,0.0,0.0,0.0,0.0,0.0,0.0,0.0,0.0,0.0,0.0,0.0,0.0,0.0,0.0,0.0,0.0,0.0,0.0,0.0,0.0,0.0,0.0,0.0,0.0,0.0,0.0,0.0,0.0,0.0,0.0,0.0,-0.5018,-0.5018,-0.5015,-0.4896,-0.4701,-0.4687,-0.4575,0.0,0.0,0.0,0.0,0.0,0.0,0.0,0.0,0.0,0.0,0.0,0.0,0.0,0.0,0.0,0.0,0.0,0.0,0.0,0.0,0.0,0.0,0.0,0.0,0.0,0.0,0.0,0.0,0.0,0.0,0.0,0.0,0.0,0.0,0.0,0.0,0.0,0.0,0.0,0.0,0.0,0.0,0.0,0.0,0.0,0.0,0.0,0.0,0.0,0.0,0.0,0.0,0.0,0.0,0.0,0.0,0.0,0.0,0.0,0.0,0.0,0.0,0.0,0.0,0.0,0.0,0.0,0.0,0.0,0.0,0.0,0.0,0.0,0.0,0.0,0.0,0.0,0.0,0.0,0.0,0.0,0.0,0.0,0.0,0.0,0.0,0.0,0.0,0.0,0.0,0.0,0.0,0.0,0.0,0.0,0.0,0.0,0.0,0.0,0.0,0.0,0.0,0.0,0.0,0.0,0.0,0.0,0.0,0.0,-0.5018,-0.5018,-0.4898,-0.4703,-0.469,-0.4577,0.0,0.0,0.0,0.0,0.0,0.0,0.0,0.0,0.0,0.0,0.0,0.0,0.0,0.0,0.0,0.0,0.0,0.0,0.0,0.0,0.0,0.0,0.0,0.0,0.0,0.0,0.0,0.0,0.0,0.0,0.0,0.0,0.0,0.0,0.0,0.0,0.0,0.0,0.0,0.0,0.0,0.0,0.0,0.0,0.0,0.0,0.0,0.0,0.0,0.0,0.0,0.0,0.0,0.0,0.0,0.0,0.0,0.0,0.0,0.0,0.0,0.0,0.0,0.0,0.0,0.0,0.0,0.0,0.0,0.0,0.0,0.0,0.0,0.0,0.0,0.0,0.0,0.0,0.0,0.0,0.0,0.0,0.0,0.0,0.0,0.0,0.0,0.0,0.0,0.0,0.0,0.0,0.0,0.0,0.0,0.0,0.0,0.0,0.0,0.0,0.0,0.0,0.0,0.0,0.0,0.0,0.0,0.0,0.0,-0.508,-0.508,-0.4985,-0.4832,-0.4783,-0.461,-0.4376,0.0,0.0,0.0,0.0,0.0,0.0,0.0,0.0,0.0,0.0,0.0,0.0,0.0,0.0,0.0,0.0,0.0,0.0,0.0,0.0,0.0,0.0,0.0,0.0,0.0,0.0,0.0,0.0,0.0,0.0,0.0,0.0,0.0,0.0,0.0,0.0,0.0,0.0,0.0,0.0,0.0,0.0,0.0,0.0,0.0,0.0,0.0,0.0,0.0,0.0,0.0,0.0,0.0,0.0,0.0,0.0,0.0,0.0,0.0,0.0,0.0,0.0,0.0,0.0,0.0,0.0,0.0,0.0,0.0,0.0,0.0,0.0,0.0,0.0,0.0,0.0,0.0,0.0,0.0,0.0,0.0,0.0,0.0,0.0,0.0,0.0,0.0,0.0,0.0,0.0,0.0,0.0,0.0,0.0,0.0,0.0,0.0,0.0,0.0,0.0,0.0,0.0,0.0,0.0,0.0,0.0,0.0,0.0,-0.5235,-0.5203,-0.5148,-0.499,-0.4868,-0.4693,0.0,0.0,0.0,0.0,0.0,0.0,0.0,0.0,0.0,0.0,0.0,0.0,0.0,0.0,0.0,0.0,0.0,0.0,0.0,0.0,0.0,0.0,0.0,0.0,0.0,0.0,0.0,0.0,0.0,0.0,0.0,0.0,0.0,0.0,0.0,0.0,0.0,0.0,0.0,0.0,0.0,0.0,0.0,0.0,0.0,0.0,0.0,0.0,0.0,0.0,0.0,0.0,0.0,0.0,0.0,0.0,0.0,0.0,0.0,0.0,0.0,0.0,0.0,0.0,0.0,0.0,0.0,0.0,0.0,0.0,0.0,0.0,0.0,0.0,0.0,0.0,0.0,0.0,0.0,0.0,0.0,0.0,0.0,0.0,0.0,0.0,0.0,0.0,0.0,0.0,0.0,0.0,0.0,0.0,0.0,0.0,0.0,0.0,0.0,0.0,0.0,0.0,0.0,0.0,0.0,0.0,0.0,0.0,0.0,-0.5361,-0.5407,-0.5355,-0.5148,-0.5029,-0.4855,0.0,0.0,0.0,0.0,0.0,0.0,0.0,0.0,0.0,0.0,0.0,0.0,0.0,0.0,0.0,0.0,0.0,0.0,0.0,0.0,0.0,0.0,0.0,0.0,0.0,0.0,0.0,0.0,0.0,0.0,0.0,0.0,0.0,0.0,0.0,0.0,0.0,0.0,0.0,0.0,0.0,0.0,0.0,0.0,0.0,0.0,0.0,0.0,0.0,0.0,0.0,0.0,0.0,0.0,0.0,0.0,0.0,0.0,0.0,0.0,0.0,0.0,0.0,0.0,0.0,0.0,0.0,0.0,0.0,0.0,0.0,0.0,0.0,0.0,0.0,0.0,0.0,0.0,0.0,0.0,0.0,0.0,0.0,0.0,0.0,0.0,0.0,0.0,0.0,0.0,0.0,0.0,0.0,0.0,0.0,0.0,0.0,0.0,0.0,0.0,0.0,0.0,0.0,0.0,0.0,0.0,0.0,0.0,-0.5298,-0.5413,-0.5537,-0.5516,-0.542,-0.5156,-0.4925,0.0,0.0,0.0,0.0,0.0,0.0,0.0,0.0,0.0,0.0,0.0,0.0,0.0,0.0,0.0,0.0,0.0,0.0,0.0,0.0,0.0,0.0,0.0,0.0,0.0,0.0,0.0,0.0,0.0,0.0,0.0,0.0,0.0,0.0,0.0,0.0,0.0,0.0,0.0,0.0,0.0,0.0,0.0,0.0,0.0,0.0,0.0,0.0,0.0,0.0,0.0,0.0,0.0,0.0,0.0,0.0,0.0,0.0,0.0,0.0,0.0,0.0,0.0,0.0,0.0,0.0,0.0,0.0,0.0,0.0,0.0,0.0,0.0,0.0,0.0,0.0,0.0,0.0,0.0,0.0,0.0,0.0,0.0,0.0,0.0,0.0,0.0,0.0,0.0,0.0,0.0,0.0,0.0,0.0,0.0,0.0,0.0,0.0,0.0,0.0,0.0,0.0,0.0,0.0,0.0,0.0,0.0,0.0,-0.5416,-0.539,-0.5616,-0.5688,-0.5677,-0.5251,-0.4991,0.0,0.0,0.0,0.0,0.0,0.0,0.0,0.0,0.0,0.0,0.0,0.0,0.0,0.0,0.0,0.0,0.0,0.0,0.0,0.0,0.0,0.0,0.0,0.0,0.0,0.0,0.0,0.0,0.0,0.0,0.0,0.0,0.0,0.0,0.0,0.0,0.0,0.0,0.0,0.0,0.0,0.0,0.0,0.0,0.0,0.0,0.0,0.0,0.0,0.0,0.0,0.0,0.0,0.0,0.0,0.0,0.0,0.0,0.0,0.0,0.0,0.0,0.0,0.0,0.0,0.0,0.0,0.0,0.0,0.0,0.0,0.0,0.0,0.0,0.0,0.0,0.0,0.0,0.0,0.0,0.0,0.0,0.0,0.0,0.0,0.0,0.0,0.0,0.0,0.0,0.0,0.0,0.0,0.0,0.0,0.0,0.0,0.0,0.0,0.0,0.0,0.0,0.0,0.0,0.0,0.0,0.0,0.0,-0.5417,-0.547,-0.5613,-0.5688,-0.5686,-0.5447,-0.5195,0.0,0.0,0.0,0.0,0.0,0.0,0.0,0.0,0.0,0.0,0.0,0.0,0.0,0.0,0.0,0.0,0.0,0.0,0.0,0.0,0.0,0.0,0.0,0.0,0.0,0.0,0.0,0.0,0.0,0.0,0.0,0.0,0.0,0.0,0.0,0.0,0.0,0.0,0.0,0.0,0.0,0.0,0.0,0.0,0.0,0.0,0.0,0.0,-1.0147,0.0,0.0,0.0,0.0,0.0,0.0,0.0,0.0,0.0,0.0,0.0,0.0,0.0,0.0,0.0,0.0,0.0,0.0,0.0,0.0,0.0,0.0,0.0,0.0,0.0,0.0,0.0,0.0,0.0,0.0,0.0,0.0,0.0,0.0,0.0,0.0,0.0,0.0,0.0,0.0,0.0,0.0,0.0,0.0,0.0,0.0,0.0,0.0,0.0,0.0,0.0,0.0,0.0,0.0,0.0,0.0,0.0,0.0,0.0,-0.5428,-0.5505,-0.5623,-0.5688,-0.5683,-0.5553,-0.5344,0.0,0.0,0.0,0.0,0.0,0.0,0.0,0.0,0.0,0.0,0.0,0.0,0.0,0.0,0.0,0.0,0.0,0.0,0.0,0.0,0.0,0.0,0.0,0.0,0.0,0.0,0.0,0.0,0.0,0.0,0.0,0.0,0.0,0.0,0.0,0.0,0.0,0.0,0.0,0.0,0.0,0.0,0.0,0.0,0.0,0.0,0.0,0.0,0.0,0.0,0.0,0.0,0.0,0.0,0.0,0.0,0.0,0.0,0.0,0.0,0.0,0.0,0.0,0.0,0.0,0.0,0.0,0.0,0.0,0.0,0.0,0.0,0.0,0.0,0.0,0.0,0.0,0.0,0.0,0.0,0.0,0.0,0.0,0.0,0.0,0.0,0.0,0.0,0.0,0.0,0.0,0.0,0.0,0.0,0.0,0.0,0.0,0.0,0.0,0.0,0.0,0.0,0.0,0.0,0.0,0.0,0.0,-0.5317,-0.5436,-0.5532,-0.5637,-0.5688,-0.5688,-0.557,-0.5402,-0.5216,0.0,0.0,0.0,0.0,0.0,0.0,0.0,0.0,0.0,0.0,0.0,0.0,0.0,0.0,0.0,0.0,0.0,0.0,0.0,0.0,0.0,0.0,0.0,0.0,0.0,0.0,0.0,0.0,0.0,0.0,0.0,0.0,0.0,0.0,0.0,0.0,0.0,0.0,-0.8885,-0.8871,0.0,0.0,0.0,0.0,0.0,0.0,0.0,0.0,-0.9916,0.0,0.0,0.0,0.0,0.0,0.0,0.0,0.0,0.0,0.0,0.0,0.0,0.0,0.0,0.0,0.0,0.0,0.0,0.0,0.0,0.0,0.0,0.0,0.0,0.0,0.0,0.0,0.0,0.0,0.0,0.0,0.0,0.0,0.0,0.0,0.0,0.0,0.0,0.0,0.0,0.0,0.0,0.0,0.0,0.0,0.0,0.0,0.0,0.0,0.0,0.0,0.0,0.0,0.0,0.0,0.0,-0.5377,-0.5402,-0.5477,-0.5653,-0.5677,-0.5688,-0.5686,-0.5572,-0.5443,-0.5375,0.0,0.0,0.0,0.0,0.0,0.0,0.0,0.0,0.0,0.0,0.0,0.0,0.0,0.0,0.0,0.0,0.0,0.0,0.0,0.0,0.0,0.0,0.0,0.0,0.0,0.0,0.0,0.0,0.0,0.0,0.0,0.0,0.0,0.0,0.0,0.0,0.0,0.0,0.0,-0.8931,-0.8893,0.0,0.0,0.0,0.0,0.0,0.0,0.0,0.0,-0.9712,0.0,0.0,0.0,0.0,0.0,0.0,0.0,0.0,0.0,0.0,0.0,0.0,0.0,0.0,0.0,0.0,0.0,0.0,0.0,0.0,0.0,0.0,0.0,0.0,0.0,0.0,0.0,0.0,0.0,0.0,0.0,0.0,0.0,0.0,0.0,0.0,0.0,0.0,0.0,0.0,0.0,0.0,0.0,0.0,0.0,0.0,0.0,0.0,0.0,0.0,0.0,0.0,0.0,0.0,0.0,-0.5402,-0.5431,-0.5551,-0.568,-0.5688,-0.5688,-0.5686,-0.5572,-0.5448,0.0,0.0,0.0,0.0,0.0,0.0,0.0,0.0,0.0,0.0,0.0,0.0,0.0,0.0,0.0,0.0,0.0,0.0,0.0,0.0,0.0,0.0,0.0,0.0,0.0,0.0,0.0,0.0,0.0,0.0,0.0,0.0,0.0,0.0,0.0,0.0,0.0,0.0,0.0,0.0,-0.8964,-0.8919,-0.9157,0.0,0.0,0.0,0.0,0.0,0.0,-0.9809,-0.9572,0.0,0.0,0.0,0.0,0.0,0.0,0.0,0.0,0.0,0.0,0.0,0.0,0.0,0.0,0.0,0.0,0.0,0.0,0.0,0.0,0.0,0.0,0.0,0.0,0.0,0.0,0.0,0.0,0.0,0.0,0.0,0.0,0.0,0.0,0.0,0.0,0.0,0.0,0.0,0.0,0.0,0.0,0.0,0.0,0.0,0.0,0.0,0.0,0.0,0.0,0.0,0.0,0.0,0.0,0.0,-0.541,-0.5448,-0.5567,-0.5683,-0.5688,-0.5688,-0.5686,-0.5548,-0.5469,0.0,0.0,0.0,0.0,0.0,0.0,0.0,0.0,0.0,0.0,0.0,0.0,0.0,0.0,0.0,0.0,0.0,0.0,0.0,0.0,0.0,0.0,0.0,0.0,0.0,0.0,0.0,0.0,0.0,0.0,0.0,0.0,0.0,0.0,0.0,0.0,0.0,0.0,0.0,0.0,0.0,-0.9049,-0.9174,-0.9163,0.0,0.0,0.0,0.0,-0.982,-0.9696,0.0,0.0,0.0,0.0,0.0,0.0,0.0,0.0,0.0,0.0,0.0,0.0,0.0,0.0,0.0,0.0,0.0,0.0,0.0,0.0,0.0,0.0,0.0,0.0,0.0,0.0,0.0,0.0,0.0,0.0,0.0,0.0,0.0,0.0,0.0,0.0,0.0,0.0,0.0,0.0,0.0,0.0,0.0,0.0,0.0,0.0,0.0,0.0,0.0,0.0,0.0,0.0,0.0,0.0,0.0,0.0,-0.541,-0.5445,-0.5567,-0.5683,-0.5688,-0.5688,-0.5686,-0.551,-0.5385,0.0,0.0,0.0,0.0,0.0,0.0,0.0,0.0,0.0,0.0,0.0,0.0,0.0,0.0,0.0,0.0,0.0,0.0,0.0,0.0,0.0,0.0,0.0,0.0,0.0,0.0,0.0,0.0,0.0,0.0,0.0,0.0,0.0,0.0,0.0,0.0,0.0,0.0,0.0,0.0,0.0,-0.931,-0.9208,-0.9034,-0.9019,0.0,0.0,-0.9335,-0.9583,-0.9599,0.0,0.0,0.0,0.0,0.0,0.0,0.0,0.0,0.0,0.0,0.0,0.0,0.0,0.0,0.0,0.0,0.0,0.0,0.0,0.0,0.0,0.0,0.0,0.0,0.0,0.0,0.0,0.0,0.0,0.0,0.0,0.0,0.0,0.0,0.0,0.0,0.0,0.0,0.0,0.0,0.0,0.0,0.0,0.0,0.0,0.0,0.0,0.0,0.0,0.0,0.0,0.0,0.0,0.0,0.0,-0.5358,-0.5416,-0.5559,-0.5634,-0.5686,-0.5688,-0.5688,-0.5688,-0.5499,-0.5413,0.0,0.0,0.0,0.0,0.0,0.0,0.0,0.0,0.0,0.0,0.0,0.0,0.0,0.0,0.0,0.0,0.0,0.0,0.0,0.0,0.0,0.0,0.0,0.0,0.0,0.0,0.0,0.0,0.0,0.0,0.0,0.0,0.0,0.0,0.0,0.0,0.0,0.0,0.0,0.0,0.0,0.0,-0.9225,-0.9229,0.0,0.0,0.0,-0.9292,-0.9576,0.0,0.0,0.0,0.0,0.0,0.0,0.0,0.0,0.0,0.0,0.0,0.0,0.0,0.0,0.0,0.0,0.0,0.0,0.0,0.0,0.0,0.0,0.0,0.0,0.0,0.0,0.0,0.0,0.0,0.0,0.0,0.0,0.0,0.0,0.0,0.0,0.0,0.0,0.0,0.0,0.0,0.0,0.0,0.0,0.0,0.0,0.0,0.0,0.0,0.0,0.0,0.0,0.0,0.0,0.0,0.0,0.0,-0.5416,-0.561,-0.5688,-0.5688,-0.5688,-0.5688,-0.5686,-0.5526,0.0,0.0,0.0,0.0,0.0,0.0,0.0,0.0,0.0,0.0,0.0,0.0,0.0,0.0,0.0,0.0,0.0,0.0,0.0,0.0,0.0,0.0,0.0,0.0,0.0,0.0,0.0,-0.9594,0.0,0.0,0.0,0.0,0.0,0.0,0.0,0.0,0.0,0.0,0.0,0.0,0.0,0.0,-0.9706,-0.9316,-0.9397,-0.952,0.0,0.0,-0.9498,-0.9788,-0.9986,-0.9955,0.0,0.0,0.0,0.0,0.0,0.0,0.0,0.0,0.0,0.0,0.0,0.0,0.0,0.0,0.0,0.0,0.0,0.0,0.0,0.0,0.0,0.0,0.0,0.0,0.0,0.0,0.0,0.0,0.0,0.0,0.0,0.0,0.0,0.0,0.0,0.0,0.0,0.0,0.0,0.0,0.0,0.0,0.0,0.0,0.0,0.0,0.0,0.0,0.0,0.0,0.0,0.0,0.0,0.0,0.0,-0.5418,-0.561,-0.5688,-0.5688,-0.5688,-0.5688,-0.5688,-0.5564,-0.5485,0.0,0.0,0.0,0.0,0.0,0.0,0.0,0.0,0.0,0.0,0.0,0.0,0.0,0.0,0.0,0.0,0.0,0.0,0.0,0.0,0.0,0.0,0.0,0.0,0.0,0.0,0.0,0.0,0.0,0.0,0.0,0.0,0.0,0.0,0.0,0.0,0.0,0.0,0.0,0.0,0.0,-0.9846,-0.9537,-0.9508,-0.9526,0.0,0.0,-1.0131,-1.0401,-1.104,-1.1241,-1.0184,0.0,0.0,0.0,0.0,0.0,0.0,0.0,0.0,0.0,0.0,0.0,0.0,0.0,0.0,0.0,0.0,0.0,0.0,0.0,0.0,0.0,0.0,0.0,0.0,0.0,0.0,0.0,0.0,0.0,0.0,0.0,0.0,0.0,0.0,0.0,0.0,0.0,0.0,0.0,0.0,0.0,0.0,0.0,0.0,0.0,0.0,0.0,0.0,0.0,0.0,0.0,0.0,0.0,-0.5413,-0.5416,-0.561,-0.5688,-0.5688,-0.5688,-0.5688,-0.5688,-0.5572,-0.5451,0.0,0.0,0.0,0.0,0.0,0.0,0.0,0.0,0.0,0.0,0.0,0.0,0.0,0.0,0.0,0.0,0.0,0.0,0.0,0.0,0.0,0.0,0.0,0.0,0.0,0.0,0.0,0.0,-1.0081,-1.0081,-0.9925,0.0,0.0,0.0,0.0,0.0,0.0,0.0,0.0,0.0,0.0,-1.0073,-0.9779,-1.0153,0.0,0.0,-1.0569,-1.0868,-1.0771,-1.0844,-1.0695,-0.9913,-0.9531,0.0,0.0,0.0,0.0,0.0,0.0,0.0,0.0,0.0,0.0,0.0,0.0,0.0,0.0,0.0,0.0,0.0,0.0,0.0,0.0,0.0,0.0,0.0,0.0,0.0,0.0,0.0,0.0,0.0,0.0,0.0,0.0,0.0,0.0,0.0,0.0,0.0,0.0,0.0,0.0,0.0,0.0,0.0,0.0,0.0,0.0,0.0,0.0,0.0,0.0,0.0,0.0,-0.5413,-0.5413,-0.561,-0.5688,-0.5688,-0.5688,-0.5688,-0.5688,-0.5605,-0.5508,0.0,0.0,0.0,0.0,0.0,0.0,0.0,0.0,0.0,0.0,0.0,0.0,0.0,0.0,0.0,0.0,0.0,0.0,0.0,0.0,0.0,0.0,0.0,0.0,0.0,0.0,0.0,0.0,-1.013,-1.0106,-0.9925,0.0,0.0,0.0,0.0,0.0,0.0,0.0,0.0,0.0,0.0,-1.0589,-1.017,-1.064,-1.0895,-1.0432,-1.0679,-1.0909,-1.0905,-1.0969,-1.0893,-1.0457,0.0,0.0,0.0,0.0,0.0,0.0,0.0,0.0,0.0,0.0,0.0,0.0,0.0,0.0,0.0,0.0,0.0,0.0,0.0,0.0,0.0,0.0,0.0,0.0,0.0,0.0,0.0,0.0,0.0,0.0,0.0,0.0,0.0,0.0,0.0,0.0,0.0,0.0,0.0,0.0,0.0,0.0,0.0,0.0,0.0,0.0,0.0,0.0,0.0,0.0,0.0,0.0,0.0,-0.5413,-0.5416,-0.561,-0.5688,-0.5688,-0.5688,-0.5688,-0.5688,-0.5686,-0.5626,-0.5505,0.0,0.0,0.0,0.0,0.0,0.0,0.0,0.0,0.0,0.0,0.0,0.0,0.0,0.0,0.0,0.0,0.0,0.0,0.0,0.0,0.0,0.0,0.0,0.0,0.0,0.0,-0.9582,-0.9769,-0.9913,0.0,0.0,0.0,0.0,0.0,0.0,0.0,0.0,0.0,0.0,-1.1041,-1.1539,-1.0612,-1.0811,-1.0823,-1.0171,-0.9963,-1.011,-1.0842,-1.1662,-1.2267,0.0,0.0,0.0,0.0,0.0,0.0,0.0,0.0,0.0,0.0,0.0,0.0,0.0,0.0,0.0,0.0,0.0,0.0,0.0,0.0,0.0,0.0,0.0,0.0,0.0,0.0,0.0,0.0,0.725,0.0,0.0,0.0,0.0,0.0,0.0,0.0,0.0,0.0,0.0,0.0,0.1291,0.1166,0.0,0.0,0.0,0.0,0.0,0.0,0.0,0.0,0.0,0.0,0.0,0.0,-0.5243,-0.5424,-0.5608,-0.5688,-0.5688,-0.5688,-0.5688,-0.5688,-0.5688,-0.5632,-0.551,0.0,0.0,0.0,0.0,0.0,0.0,0.0,0.0,0.0,0.0,0.0,0.0,0.0,0.0,0.0,0.0,0.0,0.0,0.0,0.0,0.0,0.0,0.0,0.0,0.0,-0.9871,0.0,0.0,0.0,0.0,0.0,0.0,0.0,0.0,0.0,0.0,0.0,-0.9967,-1.0142,-1.0768,-1.1146,-1.0854,-1.1478,-1.1957,0.0,0.0,0.0,0.0,0.0,0.0,0.0,0.0,0.0,0.0,0.0,0.0,0.0,0.0,-1.3549,-1.3264,-1.3618,-1.3985,-1.4064,0.0,0.0,0.0,0.0,0.0,0.0,0.0,0.0,0.0,0.0,0.0,0.0,0.0,0.0,0.0,0.0,0.7428,0.0,0.0,0.0,0.0,0.0,0.0,0.0,0.0,0.1226,0.1226,0.132,0.1192,0.1192,0.0,0.0676,-0.0248,0.0,0.0,0.0,0.0,0.0,0.0,0.0,0.0,-0.5199,-0.5379,-0.561,-0.5688,-0.5688,-0.5688,-0.5688,-0.5688,-0.5688,-0.5653,-0.5572,-0.5379,-0.5159,0.0,0.0,0.0,0.0,0.0,0.0,0.0,0.0,0.0,0.0,0.0,0.0,0.0,0.0,0.0,0.0,0.0,0.0,0.0,0.0,0.0,0.0,0.0,-0.9943,0.0,0.0,0.0,0.0,0.0,0.0,0.0,0.0,0.0,-0.9874,-0.9985,-1.0208,-1.0607,-1.1241,-1.1586,-1.1323,0.0,0.0,0.0,0.0,0.0,0.0,0.0,-1.1739,-1.2497,-1.2245,-1.2127,-1.2737,-1.3398,-1.4049,-1.4609,0.0,0.0,-1.4375,-1.4512,-1.4741,-1.4878,-1.4944,-1.5106,-1.5422,-1.5528,-1.5817,0.0,0.0,0.0,0.0,0.0,0.0,0.0,0.0,0.7604,0.7526,0.0,0.7543,0.0,0.0,0.0,0.0,0.0,0.0,0.0,0.0,0.1418,0.1418,0.1392,0.1391,0.1306,0.1131,0.1067,0.0591,-0.021,-0.101,0.0,0.0,0.0,0.0,0.0,0.0,-0.5202,-0.5427,-0.5613,-0.5688,-0.5688,-0.5688,-0.5688,-0.5688,-0.5688,-0.5688,-0.568,-0.5496,-0.5353,-0.5227,-0.4887,0.0,0.0,0.0,0.0,0.0,0.0,0.0,0.0,0.0,0.0,0.0,0.0,0.0,0.0,0.0,0.0,0.0,0.0,0.0,0.0,-0.988,0.0,0.0,0.0,0.0,0.0,0.0,0.0,0.0,0.0,0.0,-0.9931,-1.0124,-1.0522,-1.117,0.0,0.0,0.0,0.0,-1.2605,-1.1672,-1.0728,-1.0608,-1.1821,-1.1929,-1.2434,-1.3983,0.0,0.0,-1.5121,-1.4949,-1.4744,-1.4759,-1.5018,-1.5129,-1.4786,-1.4744,-1.481,-1.4948,-1.5138,-1.5331,-1.555,-1.584,-1.6103,1.2281,0.0,0.0,0.0,0.0,0.7948,0.7617,0.775,0.7753,0.7726,0.7689,0.7733,0.0,0.0,0.0,0.0,0.0,0.0,0.2257,0.1433,0.1399,0.141,0.1423,0.1423,0.1378,0.1334,0.1282,0.0837,0.0,0.022,-0.0771,-0.2922,0.0,0.0,0.0,0.0,-0.5031,-0.5459,-0.561,-0.5688,-0.5688,-0.5688,-0.5688,-0.5688,-0.5688,-0.5688,-0.5688,-0.5499,-0.5311,-0.5229,-0.4928,0.0,0.0,0.0,0.0,0.0,0.0,0.0,0.0,0.0,0.0,0.0,0.0,0.0,0.0,0.0,0.0,0.0,0.0,0.0,-0.9114,-0.9792,-0.9854,0.0,0.0,0.0,0.0,0.0,0.0,0.0,0.0,0.0,-1.0178,-1.0081,-1.0149,0.0,0.0,-1.2043,-1.228,-1.3181,-1.4005,-1.445,0.0,0.0,0.0,-1.4135,-1.3871,-1.5142,-1.5391,-1.5494,-1.5599,-1.5548,-1.548,-1.548,-1.5557,-1.56,-1.5514,-1.548,-1.5575,-1.5808,-1.5945,-1.6269,-1.7072,-1.7307,-1.7687,1.22,1.1667,1.0702,1.0045,0.9597,0.8248,0.7767,0.7899,0.7853,0.7868,0.7818,0.7875,0.7706,0.7363,0.7293,0.0,0.0,0.0,0.2615,0.1408,0.1408,0.1418,0.139,0.1391,0.1391,0.1391,0.1391,0.1121,0.0583,0.0978,0.0304,-0.146,0.0,0.0,-0.3907,-0.4376,-0.4839,-0.5208,-0.545,-0.5552,-0.5599,-0.5644,-0.5688,-0.5688,-0.5688,-0.5688,-0.5688,-0.5545,-0.5388,-0.5303,-0.5031,-0.4779,0.0,0.0,0.0,0.0,0.0,0.0,0.0,0.0,0.0,0.0,0.0,-0.6218,-0.5959,0.0,0.0,0.0,-0.8643,-0.8883,-0.9053,-0.9724,0.0,0.0,0.0,0.0,0.0,0.0,0.0,-0.9841,-1.0106,-1.0334,-1.043,-1.031,-1.0547,-1.1449,-1.2024,-1.2658,-1.3508,0.0,-1.5056,-1.5542,-1.4927,-1.4776,-1.5899,-1.5251,-1.4924,-1.5844,-1.6133,-1.6206,-1.6251,-1.6242,-1.6242,-1.6242,-1.6242,-1.6251,-1.6251,-1.6242,-1.6239,-1.6272,-1.6307,-1.6682,-1.7755,-1.8003,-1.8398,1.2189,1.1491,1.0375,1.018,1.0457,0.8598,0.786,0.7985,0.7988,0.7911,0.7793,0.7928,0.7804,0.7394,0.7021,0.0,0.0,0.4142,0.3137,0.1532,0.1442,0.1397,0.1397,0.1395,0.1394,0.1393,0.1391,0.1391,0.1389,0.1407,0.1,0.0174,-0.0955,-0.202,-0.2909,-0.3908,-0.4517,-0.4831,-0.5188,-0.5416,-0.5416,-0.5599,-0.5688,-0.5688,-0.5688,-0.5688,-0.5686,-0.5572,-0.5451,-0.5371,-0.5154,-0.4972,-0.4801,0.0,0.0,0.0,0.0,0.0,0.0,0.0,0.0,0.0,0.0,0.0,0.0,0.0,0.0,0.0,-0.9811,0.0,-0.9308,-0.9696,0.0,0.0,0.0,-1.0033,-1.0268,-1.0316,-1.0322,-1.0322,0.0,0.0,0.0,0.0,-1.1471,-1.3382,-1.3601,-1.4013,-1.5179,-1.5668,-1.5866,-1.5632,-1.5242,-1.5258,-1.6029,-1.5848,-1.5821,-1.6433,-1.6742,-1.6898,-1.6889,-1.6893,-1.6918,-1.6876,-1.691,-1.6901,-1.691,-1.6867,-1.6816,-1.6599,-1.6466,-1.6773,-1.7988,-1.834,-1.8758,1.2341,1.2467,1.1235,1.0167,0.9208,0.8132,0.776,0.7988,0.7988,0.7968,0.7938,0.7971,0.7916,0.7648,0.6761,0.6149,0.5658,0.4055,0.308,0.2626,0.1832,0.1457,0.1457,0.1481,0.147,0.1468,0.1446,0.1391,0.139,0.1383,0.128,0.1043,0.0087,-0.1299,-0.3016,-0.3288,-0.3936,-0.4975,-0.5267,-0.5463,-0.5644,-0.5688,-0.5688,-0.5688,-0.5688,-0.5688,-0.5688,-0.557,-0.5451,-0.5416,-0.5227,-0.505,-0.4804,-0.4728,0.0,0.0,0.0,0.0,0.0,0.0,0.0,0.0,0.0,-0.6301,-0.6477,0.0,-0.7108,0.0,-0.9189,-0.9547,-0.8788,-0.9779,0.0,0.0,-0.9927,-1.0226,-1.0286,-1.0472,-1.0593,-1.0593,-1.0761,-1.099,-1.1266,-1.1303,-1.2113,-1.4294,-1.3991,-1.4027,-1.5391,-1.6209,-1.6745,-1.6877,-1.6813,-1.6951,-1.7341,-1.7412,-1.74,-1.755,-1.7439,-1.7338,-1.7338,-1.7107,-1.6918,-1.6918,-1.6918,-1.6918,-1.6944,-1.6918,-1.7281,-1.7871,-1.7661,-1.7734,-1.946,-1.9837,-2.0257,1.2518,1.2559,1.1459,1.0522,0.9696,0.8564,0.8036,0.7928,0.7869,0.7892,0.7988,0.7921,0.7889,0.7752,0.713,0.6596,0.6072,0.4512,0.3517,0.3042,0.2001,0.1478,0.1478,0.1509,0.1493,0.148,0.1463,0.1449,0.1391,0.1391,0.1382,0.141,0.0881,-0.0176,-0.1671,-0.2549,-0.3483,-0.4526,-0.4966,-0.5279,-0.5552,-0.5644,-0.5664,-0.561,-0.5607,-0.5583,-0.5575,-0.5504,-0.539,-0.5222,-0.5146,-0.5002,-0.4768,-0.4673,-0.4577,0.0,0.0,0.0,0.0,0.0,0.0,0.0,0.0,0.0,0.0,0.0,-0.7281,0.0,-0.876,0.0,-0.8399,-0.9323,-0.9959,-0.9936,-1.0255,-1.0563,-1.0797,-1.0954,-1.1129,-1.1244,-1.1345,-1.1537,-1.1842,-1.1878,-1.25,-1.4302,-1.441,-1.4948,-1.6423,-1.7133,-1.7453,-1.7706,-1.7702,-1.7716,-1.7959,-1.7991,-1.7991,-1.7974,-1.7869,-1.7715,-1.7715,-1.756,-1.7376,-1.7376,-1.7376,-1.7493,-1.7765,-1.7842,-1.8219,-1.9175,-1.9288,-1.9492,-2.0651,-2.0921,-2.1317,1.2734,1.2435,1.1549,1.1092,1.0928,0.957,0.8607,0.7917,0.7749,0.7788,0.8058,0.7926,0.7858,0.7783,0.7712,0.7222,0.6359,0.531,0.4309,0.3257,0.2207,0.1633,0.1538,0.1534,0.1518,0.1493,0.1484,0.1467,0.1396,0.1392,0.1388,0.1385,0.1385,0.0937,0.0,-0.1625,-0.2989,-0.4071,-0.4608,-0.5036,-0.5349,-0.5562,-0.5591,-0.5491,-0.5483,-0.5477,-0.5418,-0.5413,-0.526,-0.5034,-0.5018,-0.4912,-0.4725,-0.4594,-0.4536,0.0,-0.4409,0.0,0.0,0.0,0.0,0.0,0.0,0.0,0.0,-0.7264,-0.7482,-0.7214,-0.8413,-0.8933,-0.8241,-0.8796,-0.9586,-1.0448,-1.0701,-1.0966,-1.1423,-1.1489,-1.1603,-1.1898,-1.1928,-1.2071,-1.2312,-1.2361,-1.2743,-1.3891,-1.4608,-1.5647,-1.7391,-1.7827,-1.7948,-1.7991,-1.7991,-1.7951,-1.8,-1.7991,-1.7991,-1.7991,-1.7983,-1.7991,-1.7974,-1.7965,-1.7974,-1.7965,-1.794,-1.8158,-1.8763,-1.8895,-1.9353,-2.0498,-2.0796,-2.108,-2.1603,-2.1775,-2.2004,1.3249,1.3178,1.2688,1.2003,1.127,1.0716,0.9809,0.864,0.8151,0.8027,0.8225,0.8197,0.8113,0.7948,0.7917,0.7855,0.7605,0.6514,0.5473,0.4426,0.3387,0.2395,0.1598,0.1575,0.1608,0.16,0.1504,0.1478,0.1472,0.1448,0.1423,0.1399,0.1398,0.0953,0.0,0.0,0.0,0.0,-0.472,-0.4954,-0.5229,-0.536,-0.547,-0.5446,-0.5404,0.0,-0.5413,-0.5413,-0.5301,-0.5034,-0.5018,0.0,0.0,0.0,0.0,0.0,0.0,0.0,0.0,0.0,0.0,0.0,-0.4847,-0.5373,-0.6433,-0.6837,-0.7364,-0.8125,-0.7846,-0.7921,-0.8534,-0.9297,-0.9841,-1.0028,-1.063,-1.1172,-1.1447,-1.1495,-1.1676,-1.2139,-1.2234,-1.2343,-1.2572,-1.2632,-1.2935,-1.3782,-1.4174,-1.5005,-1.6698,-1.7529,-1.7951,-1.7991,-1.7991,-1.7991,-1.7991,-1.7991,-1.7991,-1.7991,-1.7991,-1.7991,-1.7991,-1.7991,-1.7991,-1.7991,-1.7991,-1.8031,-1.8193,-1.8603,-1.945,-2.0759,-2.1458,-2.2044,-2.2613,-2.2717,-2.2985,1.3391,0.0,1.3051,1.2683,0.0,0.0,1.0518,0.9443,0.8627,0.8184,0.817,0.8325,0.833,0.8255,0.8184,0.8153,0.8096,0.6915,0.5832,0.4774,0.3674,0.2622,0.1566,0.1601,0.1586,0.157,0.154,0.151,0.1481,0.1465,0.1442,0.1412,0.1413,0.1185,0.0738,-0.0173,-0.1656,-0.3703,-0.4318,-0.4797,-0.5102,-0.5272,-0.5435,-0.5461,0.0,0.0,0.0,0.0,0.0,0.0,0.0,0.0,0.0,0.0,0.0,-0.4775,-0.4725,-0.4714,-0.4735,-0.4743,-0.477,-0.4828,-0.4946,-0.547,-0.6492,-0.6894,-0.7319,-0.793,-0.7605,-0.7534,-0.808,-0.8856,-0.9463,-0.9884,-1.0625,-1.1268,-1.1636,-1.1721,-1.1932,-1.2397,-1.2512,-1.2566,-1.2687,-1.2705,-1.2869,-1.3288,-1.3753,-1.4503,-1.5801,-1.6788,-1.7448,-1.791,-1.7991,-1.7991,-1.7991,-1.7991,-1.7991,-1.7991,-1.7991,-1.7991,-1.7991,-1.7991,-1.7991,-1.7991,-1.7991,-1.8072,-1.8474,-1.8984,-1.9835,-2.1019,-2.1983,-2.2681,-2.3187,-2.3457,-2.3703,1.3443,1.3419,1.3274,1.3126,1.3045,1.2059,1.1044,0.998,0.0,0.0,0.0,0.8361,0.8506,0.8472,0.836,0.8347,0.8211,0.7226,0.6152,0.5027,0.3974,0.2923,0.1918,0.1667,0.1604,0.158,0.1574,0.1594,0.1498,0.1486,0.1468,0.1399,0.1393,0.1391,0.1301,-0.0313,-0.1597,-0.2488,-0.3781,-0.4637,-0.4891,-0.5191,-0.5357,-0.5392,-0.5478,-0.5472,-0.5416,-0.5413,-0.5271,-0.5061,-0.5048,-0.4947,-0.4772,-0.4755,-0.4753,-0.4755,-0.4755,-0.4799,-0.4822,-0.4831,-0.4909,-0.5012,-0.5129,-0.5659,-0.6667,-0.6893,-0.7169,-0.7672,-0.7446,-0.7326,-0.7518,-0.8241,-0.8965,-0.9614,-1.055,-1.131,-1.173,-1.1862,-1.2095,-1.2536,-1.2656,-1.2699,-1.2699,-1.2705,-1.2705,-1.279,-1.3288,-1.421,-1.5262,-1.6378,-1.7326,-1.787,-1.7991,-1.7991,-1.7991,-1.7991,-1.7991,-1.7991,-1.7991,-1.7991,-1.7991,-1.7991,-1.7991,-1.7991,-1.7991,-1.8193,-1.8723,-1.9332,-2.0207,-2.1221,-2.2268,-2.315,-2.3641,-2.397,-2.42,1.3646,1.3632,1.3429,1.3348,1.3315,1.2815,1.1535,0.9776,0.8559,0.8144,0.8252,0.8575,0.8608,0.8482,0.8459,0.8387,0.8269,0.8146,0.7351,0.0,0.5077,0.4024,0.2923,0.2019,0.1564,0.1609,0.1585,0.1567,0.1553,0.1506,0.1478,0.1471,0.1403,0.1391,0.1301,0.0359,-0.0671,-0.1603,-0.35,-0.4517,-0.4574,-0.4879,-0.5081,-0.5068,-0.5317,-0.5429,-0.5413,-0.5416,-0.5347,-0.5173,-0.5162,-0.5102,-0.4977,-0.4966,-0.4966,-0.4966,-0.4963,-0.4974,-0.4988,-0.4991,-0.4999,-0.5015,-0.5018,-0.5586,-0.6716,-0.6388,-0.6745,-0.8241,-0.7292,-0.676,-0.7446,-0.8208,-0.8703,-0.8965,-1.0207,-1.1206,-1.1525,-1.1781,-1.1988,-1.2349,-1.2572,-1.2699,-1.2705,-1.2705,-1.2705,-1.2705,-1.2997,-1.3542,-1.5095,-1.6796,-1.7749,-1.7959,-1.7991,-1.7991,-1.7991,-1.7991,-1.7991,-1.7991,-1.7991,-1.7991,-1.7991,-1.7991,-1.7991,-1.7991,-1.7991,-1.808,-1.8241,-1.9125,-2.0158,-2.1076,-2.2172,-2.3224,-2.3897,-2.4127,-2.42,1.3688,1.3679,1.3589,1.3551,1.3523,1.2586,1.1617,1.054,0.912,0.8339,0.8178,0.8449,0.8628,0.8723,0.8642,0.857,0.8503,0.8343,0.7664,0.6577,0.5959,0.4776,0.3274,0.2672,0.217,0.1616,0.1603,0.1588,0.1568,0.1526,0.1498,0.1479,0.145,0.1391,0.1346,0.0493,-0.0448,-0.1387,-0.2882,-0.3972,-0.4763,-0.4937,-0.5132,-0.5356,-0.548,-0.5567,-0.5567,-0.5567,-0.551,-0.5388,-0.5385,-0.533,-0.5216,-0.5205,-0.5208,-0.5205,-0.5146,-0.511,-0.511,-0.505,-0.5018,-0.5018,-0.5018,-0.5287,-0.5977,-0.5867,-0.6212,-0.7253,-0.6679,-0.6451,-0.6834,-0.7561,-0.8203,-0.8665,-0.976,-1.0703,-1.1364,-1.1585,-1.1826,-1.2234,-1.2415,-1.2548,-1.2687,-1.2705,-1.2705,-1.2747,-1.3039,-1.3747,-1.4594,-1.6165,-1.7489,-1.791,-1.7991,-1.7991,-1.7991,-1.7991,-1.7991,-1.7991,-1.7991,-1.7991,-1.7991,-1.7991,-1.7991,-1.7991,-1.7991,-1.8161,-1.8442,-1.9432,-2.0391,-2.1211,-2.2408,-2.3409,-2.3824,-2.4127,-2.4381,1.3688,1.3688,1.3688,1.3665,1.353,1.2467,1.1802,1.1272,0.9761,0.8758,0.8263,0.8429,0.8598,0.8813,0.8757,0.874,0.8679,0.8476,0.7911,0.7063,0.667,0.5555,0.3977,0.3475,0.2772,0.1969,0.1717,0.1605,0.1581,0.1551,0.1517,0.1481,0.145,0.1391,0.1391,0.0673,-0.0269,-0.1343,-0.2192,-0.3312,-0.4786,-0.4964,-0.5191,-0.5508,-0.5641,-0.5688,-0.5688,-0.5688,-0.5645,-0.5559,-0.5548,-0.5494,-0.542,-0.5409,-0.5398,-0.5405,-0.5254,-0.5175,-0.5146,-0.5067,-0.5018,-0.5018,-0.5018,-0.509,-0.5282,-0.5482,-0.5754,-0.6141,-0.6296,-0.63,-0.6412,-0.7065,-0.7748,-0.8399,-0.9344,-1.022,-1.0973,-1.1337,-1.1627,-1.2071,-1.2234,-1.2397,-1.2566,-1.2668,-1.2705,-1.2784,-1.3288,-1.3711,-1.4126,-1.5413,-1.6665,-1.7456,-1.7829,-1.7919,-1.7919,-1.7951,-1.7951,-1.7919,-1.7951,-1.7991,-1.7991,-1.7991,-1.7991,-1.7991,-1.7991,-1.8282,-1.8882,-1.9668,-2.0585,-2.1451,-2.2606,-2.3446,-2.3787,-2.4164,-2.4538,1.3688,1.3688,1.3688,1.358,1.341,1.3053,1.2375,1.1332,1.0204,0.9361,0.8809,0.8592,0.854,0.854,0.8751,0.8787,0.872,0.8682,0.847,0.8032,0.7115,0.6487,0.5839,0.4126,0.3173,0.2923,0.207,0.1564,0.1609,0.1579,0.1536,0.1483,0.1405,0.1391,0.1391,0.1301,0.0403,-0.1342,-0.1476,-0.246,-0.4253,-0.4788,-0.501,-0.5055,-0.5463,-0.5688,-0.5688,-0.5688,-0.5686,-0.5675,-0.5669,-0.5615,-0.5508,-0.5491,-0.5485,-0.5421,-0.5298,-0.514,-0.5048,-0.5023,-0.5018,-0.5018,-0.5018,-0.5093,-0.5282,-0.5482,-0.5712,-0.5902,-0.6138,-0.6296,-0.6335,-0.6988,-0.7484,-0.7748,-0.8965,-0.997,-1.0171,-1.0923,-1.1519,-1.1549,-1.2005,-1.2318,-1.2379,-1.2566,-1.2699,-1.2705,-1.2826,-1.3167,-1.3795,-1.4754,-1.5842,-1.6706,-1.7408,-1.7749,-1.7595,-1.7797,-1.7797,-1.7595,-1.7757,-1.7919,-1.7991,-1.7991,-1.7991,-1.7991,-1.7991,-1.8273,-1.8873,-1.9569,-2.044,-2.1669,-2.2644,-2.3335,-2.3934,-2.4309,-2.4538,1.3688,1.3688,1.3688,1.3646,1.3528,1.3211,1.2847,1.2282,1.1079,1.0135,0.9412,0.8923,0.865,0.854,0.8768,0.8844,0.8784,0.875,0.8598,0.8397,0.784,0.7214,0.6295,0.4878,0.3823,0.3123,0.212,0.1566,0.1608,0.1568,0.1522,0.1482,0.145,0.1391,0.1391,0.1391,0.0717,-0.0537,-0.1119,-0.2058,-0.3403,-0.4342,-0.4971,-0.5235,-0.5416,-0.5599,-0.5688,-0.5688,-0.5688,-0.5688,-0.5688,-0.5669,-0.5618,-0.5615,-0.5638,-0.5578,-0.5401,-0.5243,-0.5124,-0.5056,-0.5018,-0.5018,-0.5018,-0.5054,-0.5129,-0.5285,-0.5518,-0.5715,-0.6064,-0.63,-0.6338,-0.6602,-0.6945,-0.7522,-0.8513,-0.9344,-0.9884,-1.0723,-1.1303,-1.1471,-1.1676,-1.1946,-1.227,-1.2542,-1.2687,-1.2705,-1.2705,-1.2912,-1.3245,-1.4006,-1.488,-1.576,-1.6468,-1.7,-1.727,-1.7514,-1.7554,-1.7473,-1.7514,-1.7676,-1.7951,-1.7991,-1.7991,-1.7991,-1.7991,-1.8273,-1.8882,-1.9756,-2.0663,-2.1897,-2.3054,-2.3824,-2.4152,-2.4345,-2.4538,1.3688,1.3688,1.3688,1.3655,1.3575,1.3225,1.3093,1.2885,1.1654,1.0629,0.9798,0.914,0.8647,0.8377,0.8602,0.8823,0.8809,0.8767,0.8665,0.8486,0.8374,0.7814,0.6798,0.5729,0.4676,0.3624,0.2572,0.1918,0.1661,0.1566,0.1523,0.1493,0.1463,0.1399,0.1391,0.1391,0.0942,0.0,-0.094,-0.1879,-0.2911,-0.4078,-0.4882,-0.5235,-0.5371,-0.5508,-0.5688,-0.5688,-0.5688,-0.5688,-0.5688,-0.5688,-0.5688,-0.5688,-0.5675,-0.5626,-0.5488,-0.5358,-0.5195,-0.508,-0.5018,-0.5018,-0.5018,-0.5018,-0.5057,-0.5168,-0.5401,-0.5598,-0.5944,-0.6219,-0.63,-0.63,-0.6567,-0.7138,-0.7902,-0.8699,-0.9463,-1.0288,-1.0932,-1.13,-1.1465,-1.1694,-1.2163,-1.2475,-1.2596,-1.2681,-1.2705,-1.2705,-1.2826,-1.3457,-1.43,-1.4929,-1.5636,-1.6386,-1.7057,-1.7188,-1.7188,-1.7066,-1.7066,-1.7351,-1.7708,-1.7829,-1.7959,-1.7919,-1.7951,-1.8273,-1.8882,-1.9795,-2.0855,-2.2134,-2.3287,-2.4127,-2.42,-2.4345,-2.4465,1.3688,1.3688,1.3688,1.3584,1.3386,1.3222,1.3013,1.2786,1.1605,1.0629,0.9798,0.9199,0.8429,0.7715,0.8266,0.854,0.854,0.8754,0.871,0.8513,0.8525,0.8316,0.7902,0.6836,0.5729,0.4576,0.3473,0.2522,0.1665,0.1584,0.1554,0.1475,0.1491,0.1463,0.1395,0.1391,0.0942,0.009,-0.0895,-0.1879,-0.2865,-0.4032,-0.479,-0.5055,-0.528,-0.5508,-0.5688,-0.5688,-0.5688,-0.5688,-0.5688,-0.5688,-0.5688,-0.5688,-0.564,-0.5532,-0.5445,-0.532,-0.5243,-0.5089,-0.5023,-0.5018,-0.5018,-0.5018,-0.5018,-0.5168,-0.5362,-0.5601,-0.5789,-0.6022,-0.6219,-0.63,-0.63,-0.6454,-0.7138,-0.794,-0.8661,-0.9539,-1.025,-1.0921,-1.13,-1.1663,-1.221,-1.2318,-1.2457,-1.2614,-1.2693,-1.2705,-1.2784,-1.3415,-1.3915,-1.4294,-1.513,-1.6221,-1.6607,-1.6738,-1.6574,-1.6492,-1.6697,-1.6943,-1.7188,-1.7473,-1.7676,-1.7878,-1.7959,-1.8273,-1.8913,-1.9805,-2.0952,-2.2134,-2.3398,-2.408,-2.4189,-2.4189,-2.4345,1.3688,1.3688,1.3688,1.3575,1.3377,1.3217,1.3008,1.2753,1.2202,1.1122,0.9908,0.9578,0.8702,0.7379,0.7771,0.8156,0.8484,0.8598,0.8658,0.8575,0.853,0.8377,0.8093,0.698,0.5832,0.4774,0.3723,0.2622,0.1713,0.1586,0.1556,0.1525,0.1495,0.1466,0.1396,0.1391,0.1211,0.0762,-0.0582,-0.1566,-0.2103,-0.3582,-0.4612,-0.501,-0.528,-0.5508,-0.5688,-0.5688,-0.5688,-0.5688,-0.5688,-0.5688,-0.5688,-0.5688,-0.5672,-0.5618,-0.5508,-0.5431,-0.5311,-0.5235,-0.5091,-0.5023,-0.5018,-0.5021,-0.5018,-0.5054,-0.521,-0.5401,-0.5595,-0.5828,-0.6022,-0.6219,-0.63,-0.6374,-0.7022,-0.7599,-0.8093,-0.9084,-1.0035,-1.037,-1.0977,-1.1579,-1.1784,-1.206,-1.2343,-1.2445,-1.2596,-1.2687,-1.2741,-1.3039,-1.3372,-1.3831,-1.4084,-1.4545,-1.5767,-1.6162,-1.6252,-1.6211,-1.6335,-1.6738,-1.7066,-1.727,-1.7514,-1.7797,-1.7959,-1.8112,-1.8714,-1.9864,-2.1019,-2.2021,-2.3287,-2.4007,-2.4189,-2.4189,-2.4309,1.3688,1.3679,1.3618,1.3476,1.3268,1.306,1.2908,1.2658,1.2452,1.1559,1.0347,0.9908,0.8972,0.7765,0.7546,0.7712,0.8211,0.8429,0.8523,0.8545,0.8501,0.8408,0.816,0.7353,0.6334,0.5229,0.3874,0.2621,0.1715,0.1596,0.1565,0.1478,0.1505,0.1474,0.1442,0.1391,0.1391,0.1076,-0.0448,-0.1387,-0.1655,-0.3401,-0.4567,-0.4879,-0.5235,-0.5508,-0.5688,-0.5688,-0.5688,-0.5688,-0.5688,-0.5688,-0.5688,-0.5688,-0.5688,-0.5677,-0.5575,-0.5472,-0.5428,-0.5311,-0.5211,-0.5137,-0.5091,-0.5072,-0.5069,-0.5,-0.5093,-0.5285,-0.5479,-0.5673,-0.5902,-0.6138,-0.63,-0.6338,-0.6799,-0.7219,-0.7522,-0.8699,-0.9652,-1.0348,-1.0916,-1.1336,-1.1519,-1.1926,-1.2139,-1.2294,-1.2536,-1.2693,-1.2705,-1.2747,-1.2997,-1.3753,-1.3717,-1.4216,-1.5144,-1.5741,-1.5839,-1.5839,-1.588,-1.6368,-1.6779,-1.7025,-1.7351,-1.7676,-1.7919,-1.808,-1.8776,-1.9924,-2.0932,-2.1869,-2.2979,-2.3897,-2.4043,-2.4189,-2.4273,1.3684,1.3646,1.3476,1.3273,1.306,1.2927,1.2654,1.2429,1.2391,1.1837,1.0907,1.0186,0.9251,0.8429,0.7601,0.7379,0.7715,0.8156,0.8423,0.8352,0.8454,0.8414,0.8282,0.7969,0.7185,0.5982,0.4176,0.2672,0.1667,0.1612,0.1584,0.149,0.1477,0.1447,0.1393,0.1393,0.1391,0.1031,-0.0358,-0.1297,-0.1655,-0.3446,-0.4569,-0.4748,-0.5149,-0.5463,-0.5688,-0.5688,-0.5688,-0.5688,-0.5688,-0.5688,-0.5688,-0.5688,-0.5688,-0.5675,-0.5578,-0.5518,-0.5491,-0.5431,-0.5366,-0.5361,-0.5252,-0.5189,-0.5178,-0.5097,-0.5112,-0.5266,-0.5449,-0.5673,-0.5864,-0.6099,-0.6257,-0.63,-0.6416,-0.6721,-0.7369,-0.8203,-0.9301,-1.0556,-1.1041,-1.12,-1.1447,-1.1748,-1.2,-1.2252,-1.2518,-1.2705,-1.2705,-1.2705,-1.3082,-1.3626,-1.3633,-1.3802,-1.4601,-1.5367,-1.5374,-1.5431,-1.5514,-1.5756,-1.6252,-1.6574,-1.7025,-1.7392,-1.7878,-1.808,-1.8434,-1.955,-2.044,-2.1451,-2.2596,-2.3508,-2.3703,-2.3849,-2.4152,1.3613,1.348,1.3419,1.3178,1.2932,1.2851,1.2644,1.2391,1.2382,1.1891,1.1072,1.0182,0.9306,0.8481,0.7598,0.7268,0.7379,0.7712,0.8079,0.8327,0.8225,0.8246,0.8322,0.8157,0.7033,0.5327,0.3874,0.2622,0.1768,0.1566,0.1595,0.1561,0.1488,0.1506,0.1466,0.1447,0.1391,0.1256,0.0179,-0.0717,-0.1431,-0.2731,-0.3807,-0.4614,-0.4839,-0.5107,-0.5463,-0.5599,-0.5688,-0.5688,-0.5688,-0.5688,-0.5688,-0.5688,-0.5688,-0.5686,-0.5659,-0.5588,-0.5516,-0.5475,-0.5455,-0.5429,-0.5375,-0.5358,-0.5342,-0.5243,-0.5177,-0.524,-0.5336,-0.5476,-0.5673,-0.5867,-0.6106,-0.63,-0.63,-0.6416,-0.6872,-0.7902,-0.9079,-1.0062,-1.0738,-1.1116,-1.1298,-1.1606,-1.191,-1.2077,-1.2427,-1.2699,-1.2705,-1.2705,-1.2705,-1.3082,-1.3039,-1.3336,-1.4223,-1.4776,-1.4831,-1.5131,-1.534,-1.5472,-1.588,-1.6252,-1.6697,-1.7229,-1.7708,-1.8112,-1.8514,-1.9134,-2.0031,-2.0788,-2.1745,-2.2472,-2.3043,-2.3471,-2.3813,1.3575,1.3386,1.3301,1.3136,1.2767,1.2687,1.2573,1.2391,1.2382,1.2055,1.14,1.0292,0.9526,0.8813,0.7762,0.721,0.721,0.7382,0.7686,0.8053,0.8072,0.804,0.8121,0.7958,0.6783,0.5024,0.4124,0.3024,0.1667,0.1565,0.1601,0.1571,0.1541,0.151,0.148,0.1452,0.1391,0.1301,0.0493,-0.0448,-0.1387,-0.2372,-0.3403,-0.4391,-0.4659,-0.4837,-0.5151,-0.5419,-0.5599,-0.5688,-0.5688,-0.5688,-0.5688,-0.5688,-0.5688,-0.5688,-0.5686,-0.5653,-0.5586,-0.5575,-0.5545,-0.5515,-0.5464,-0.5436,-0.5415,-0.5325,-0.5298,-0.5279,-0.5399,-0.5484,-0.5607,-0.5828,-0.6002,-0.6141,-0.6219,-0.6416,-0.6834,-0.7902,-0.8965,-0.9836,-1.0588,-1.0999,-1.122,-1.157,-1.1862,-1.1992,-1.2367,-1.2705,-1.2705,-1.2705,-1.2784,-1.2826,-1.2918,-1.3336,-1.388,-1.4139,-1.4237,-1.4706,-1.5215,-1.5389,-1.5722,-1.6046,-1.6417,-1.7147,-1.7716,-1.7951,-1.8313,-1.8873,-1.9608,-2.0294,-2.0904,-2.1783,-2.2547,-2.3165,-2.3593,1.3556,1.3353,1.3198,1.2932,1.272,1.254,1.2401,1.2382,1.2382,1.2382,1.2001,1.0511,0.9798,0.9357,0.798,0.721,0.721,0.721,0.7298,0.751,0.7693,0.7786,0.7629,0.7654,0.6739,0.5227,0.4774,0.3674,0.1918,0.1667,0.1603,0.1577,0.1544,0.1513,0.1485,0.1453,0.1391,0.1301,0.0538,-0.0269,-0.1208,-0.2238,-0.3224,-0.4119,-0.448,-0.4705,-0.4839,-0.5196,-0.5508,-0.5688,-0.5688,-0.5688,-0.5688,-0.5688,-0.5688,-0.5688,-0.5688,-0.5688,-0.5686,-0.5669,-0.5667,-0.5645,-0.5567,-0.5518,-0.5502,-0.5453,-0.5377,-0.5418,-0.5518,-0.5597,-0.5589,-0.5808,-0.5986,-0.5983,-0.6155,-0.657,-0.733,-0.8131,-0.8932,-0.969,-1.0519,-1.1117,-1.1141,-1.1549,-1.1814,-1.1976,-1.2367,-1.2644,-1.2705,-1.2784,-1.3039,-1.2954,-1.2747,-1.3003,-1.3421,-1.3506,-1.3682,-1.4489,-1.4957,-1.5173,-1.5597,-1.5963,-1.6294,-1.7025,-1.7676,-1.7878,-1.8152,-1.8634,-1.8944,-1.9323,-2.0168,-2.1201,-2.1935,-2.2483,-2.3213,1.3343,1.3188,1.2989,1.2724,1.2535,1.2401,1.2382,1.2382,1.2382,1.2382,1.2001,1.0566,0.9794,0.9574,0.7983,0.721,0.721,0.7207,0.7089,0.7026,0.724,0.7504,0.7538,0.7569,0.7042,0.5929,0.5077,0.4124,0.2822,0.1969,0.1612,0.1603,0.1551,0.1475,0.1508,0.1415,0.1393,0.1391,0.1211,0.0538,-0.0403,-0.1298,-0.2283,-0.3224,-0.3987,-0.4478,-0.4705,-0.5151,-0.5508,-0.5688,-0.5688,-0.5688,-0.5688,-0.5688,-0.5688,-0.5688,-0.5688,-0.5688,-0.5688,-0.5688,-0.5688,-0.5688,-0.5653,-0.5642,-0.5637,-0.5529,-0.5467,-0.5445,-0.5473,-0.5532,-0.5623,-0.5735,-0.5874,-0.6039,-0.6228,-0.6437,-0.6799,-0.7829,-0.8818,-0.9117,-1.0244,-1.0962,-1.122,-1.1495,-1.1856,-1.1964,-1.2318,-1.2699,-1.2693,-1.2656,-1.2826,-1.2577,-1.2412,-1.2625,-1.2796,-1.2833,-1.3252,-1.4139,-1.465,-1.4873,-1.5416,-1.6046,-1.6409,-1.6861,-1.7514,-1.7829,-1.7951,-1.8233,-1.8425,-1.8616,-1.9323,-2.0285,-2.0894,-2.1479,-2.2483,1.3263,1.3108,1.2908,1.2639,1.2396,1.2382,1.2382,1.2382,1.2382,1.2382,1.2001,1.0566,0.9794,0.9629,0.7983,0.721,0.7207,0.7161,0.7032,0.6865,0.6845,0.7077,0.7319,0.7347,0.6892,0.6182,0.5129,0.4126,0.3123,0.212,0.1667,0.1605,0.1508,0.148,0.1473,0.1468,0.1391,0.1391,0.1391,0.0942,0.0,-0.0493,-0.1611,-0.2642,-0.3492,-0.3941,-0.4616,-0.506,-0.5327,-0.5552,-0.5644,-0.5688,-0.5688,-0.5688,-0.5688,-0.5688,-0.5688,-0.5688,-0.5688,-0.5688,-0.5688,-0.5688,-0.5688,-0.5688,-0.5677,-0.5618,-0.5583,-0.5575,-0.5556,-0.5547,-0.5616,-0.5742,-0.5921,-0.6172,-0.6378,-0.6396,-0.6327,-0.7748,-0.8551,-0.9084,-1.0024,-1.1117,-1.1123,-1.151,-1.1718,-1.1916,-1.2211,-1.2518,-1.2668,-1.2601,-1.2491,-1.2283,-1.2075,-1.216,-1.2289,-1.2326,-1.2577,-1.3464,-1.4433,-1.4657,-1.52,-1.5955,-1.6368,-1.6738,-1.7343,-1.7789,-1.787,-1.7951,-1.8112,-1.8425,-1.8816,-1.9283,-1.9982,-2.0634,-2.1631,1.323,1.3079,1.2814,1.2616,1.2396,1.2382,1.2382,1.2382,1.2382,1.2382,1.2055,1.0676,0.9962,0.9684,0.8202,0.7321,0.7204,0.7048,0.691,0.6744,0.6632,0.6698,0.7051,0.7042,0.6789,0.6282,0.5079,0.4126,0.3274,0.227,0.1617,0.1554,0.1511,0.1484,0.1518,0.147,0.1397,0.1391,0.1391,0.1076,0.0314,-0.0224,-0.1209,-0.2372,-0.3179,-0.3762,-0.4435,-0.4835,-0.5104,-0.5327,-0.5552,-0.5644,-0.5688,-0.5688,-0.5688,-0.5688,-0.5688,-0.5688,-0.5688,-0.5688,-0.5688,-0.5688,-0.5688,-0.5688,-0.5686,-0.5672,-0.5667,-0.5667,-0.5688,-0.5615,-0.5627,-0.5817,-0.6011,-0.6235,-0.6466,-0.6546,-0.6659,-0.7752,-0.8727,-0.8818,-1.0137,-1.0925,-1.1184,-1.1315,-1.163,-1.1874,-1.2169,-1.2451,-1.2626,-1.2607,-1.2412,-1.208,-1.1871,-1.1699,-1.178,-1.186,-1.2198,-1.2741,-1.3971,-1.4566,-1.4992,-1.5624,-1.6121,-1.6656,-1.7147,-1.7554,-1.7789,-1.787,-1.7951,-1.8072,-1.8425,-1.8825,-1.9292,-1.9904,-2.075,1.3017,1.287,1.2597,1.2429,1.2387,1.2382,1.2382,1.2382,1.2382,1.2382,1.2164,1.1232,1.0406,0.9743,0.8644,0.7875,0.7249,0.7024,0.6874,0.6651,0.6462,0.6442,0.6689,0.6889,0.7238,0.6936,0.5577,0.4524,0.3822,0.2571,0.1516,0.1308,0.1481,0.155,0.1523,0.149,0.1458,0.1395,0.1391,0.1301,0.0807,-0.0313,-0.1209,-0.2014,-0.3223,-0.403,-0.4344,-0.4614,-0.4795,-0.4928,-0.524,-0.5508,-0.5644,-0.5552,-0.5552,-0.5688,-0.5688,-0.5688,-0.5688,-0.5688,-0.5688,-0.5688,-0.5688,-0.5688,-0.5688,-0.5688,-0.5688,-0.5688,-0.5688,-0.5672,-0.5681,-0.5885,-0.6028,-0.6132,-0.6357,-0.6551,-0.663,-0.7804,-0.8615,-0.9076,-1.0046,-1.1117,-1.1098,-1.1303,-1.1567,-1.1838,-1.2085,-1.2397,-1.2506,-1.2571,-1.2308,-1.1966,-1.1785,-1.1613,-1.1527,-1.1645,-1.194,-1.232,-1.3336,-1.4188,-1.4615,-1.5291,-1.5782,-1.6368,-1.6951,-1.727,-1.7554,-1.7797,-1.7919,-1.8,-1.8072,-1.8393,-1.8785,-1.9323,-1.9708,1.2951,1.2748,1.2535,1.2382,1.2382,1.2382,1.2382,1.2382,1.2382,1.2382,1.2219,1.1509,1.0629,0.9743,0.8868,0.7986,0.7279,0.697,0.6766,0.6564,0.6458,0.6492,0.6592,0.6892,0.7191,0.7335,0.5979,0.4974,0.4123,0.3021,0.1968,0.1261,0.1488,0.1565,0.1541,0.1552,0.1474,0.1457,0.1397,0.1391,0.1121,0.0045,-0.1388,-0.2149,-0.3491,-0.4297,-0.4344,-0.4569,-0.4659,-0.475,-0.4928,-0.5238,-0.5508,-0.5463,-0.5508,-0.5644,-0.5688,-0.5688,-0.5688,-0.5688,-0.5688,-0.5688,-0.5688,-0.5688,-0.5688,-0.5688,-0.5688,-0.5688,-0.5688,-0.5688,-0.5735,-0.5949,-0.6036,-0.6092,-0.6281,-0.6445,-0.6522,-0.7525,-0.8635,-0.8982,-0.9921,-1.0724,-1.1097,-1.133,-1.1423,-1.1645,-1.17,-1.1964,-1.2248,-1.2278,-1.2142,-1.1878,-1.172,-1.1527,-1.1397,-1.1478,-1.1731,-1.2149,-1.2784,-1.3428,-1.3857,-1.4657,-1.5409,-1.5948,-1.6492,-1.6992,-1.7278,-1.7554,-1.7838,-1.7959,-1.804,-1.8072,-1.8273,-1.8745,-1.8975,1.2932,1.2701,1.2517,1.2382,1.2382,1.2382,1.2382,1.2382,1.2382,1.2382,1.2273,1.1568,1.0848,0.9798,0.9089,0.8192,0.7264,0.6912,0.6692,0.6425,0.6398,0.6489,0.6642,0.6742,0.6892,0.6986,0.6034,0.5179,0.4273,0.3472,0.2219,0.1411,0.1395,0.1527,0.156,0.1573,0.1491,0.1476,0.1457,0.1396,0.1257,0.0359,-0.0986,-0.2642,-0.3717,-0.4253,-0.4344,-0.4478,-0.4614,-0.4614,-0.4659,-0.4882,-0.5193,-0.5371,-0.5419,-0.5644,-0.5688,-0.5688,-0.5688,-0.5688,-0.5688,-0.5688,-0.5688,-0.5688,-0.5688,-0.5688,-0.5688,-0.5688,-0.5688,-0.5688,-0.5735,-0.5866,-0.5994,-0.603,-0.6207,-0.6292,-0.6412,-0.7123,-0.7964,-0.909,-0.9836,-1.0545,-1.1064,-1.1375,-1.1393,-1.1417,-1.1471,-1.1576,-1.1873,-1.1958,-1.1843,-1.1747,-1.1533,-1.1483,-1.1332,-1.1311,-1.1559,-1.1854,-1.2363,-1.2747,-1.3222,-1.3893,-1.465,-1.545,-1.5997,-1.6492,-1.6951,-1.7278,-1.7554,-1.7838,-1.8,-1.8031,-1.8112,-1.8201,-1.8393,1.2843,1.2493,1.2401,1.2382,1.2382,1.2382,1.2382,1.2382,1.2382,1.2382,1.2382,1.2219,1.1227,1.0072,0.9688,0.8573,0.7231,0.6809,0.6671,0.6419,0.6387,0.6489,0.6489,0.6539,0.6639,0.6589,0.6037,0.5181,0.4124,0.3022,0.232,0.1463,0.1257,0.1348,0.1529,0.1556,0.1523,0.149,0.1473,0.1459,0.1215,0.0314,-0.0986,-0.2777,-0.3807,-0.4253,-0.4297,-0.4344,-0.4344,-0.4344,-0.4344,-0.4525,-0.4792,-0.5013,-0.5191,-0.5419,-0.5599,-0.5688,-0.5688,-0.5688,-0.5688,-0.5688,-0.5688,-0.5688,-0.5688,-0.5688,-0.5688,-0.5688,-0.5688,-0.5688,-0.5688,-0.5777,-0.5777,-0.5822,-0.5949,-0.6115,-0.6172,-0.6558,-0.7357,-0.865,-0.9552,-1.0357,-1.083,-1.1165,-1.1227,-1.126,-1.1413,-1.1447,-1.1626,-1.1665,-1.1572,-1.1451,-1.1361,-1.1346,-1.1311,-1.1295,-1.1392,-1.1564,-1.194,-1.2235,-1.2711,-1.3179,-1.3851,-1.444,-1.5284,-1.6038,-1.65,-1.6951,-1.7278,-1.7554,-1.7757,-1.7991,-1.8072,-1.8121,-1.8193,1.2729,1.2391,1.2382,1.2382,1.2382,1.2382,1.2382,1.2382,1.2382,1.2382,1.2382,1.2327,1.1446,1.0178,0.9794,0.8696,0.7222,0.6801,0.666,0.643,0.6387,0.6387,0.6387,0.6387,0.6489,0.6489,0.6239,0.5634,0.4626,0.3872,0.2821,0.1917,0.1464,0.1307,0.1544,0.1577,0.1549,0.151,0.1489,0.1467,0.1259,0.009,-0.1478,-0.2686,-0.3717,-0.4253,-0.4297,-0.4297,-0.4297,-0.4297,-0.4297,-0.4389,-0.4525,-0.4703,-0.5013,-0.5327,-0.5508,-0.5599,-0.5688,-0.5688,-0.5688,-0.5688,-0.5688,-0.5688,-0.5688,-0.5688,-0.5688,-0.5688,-0.5688,-0.5688,-0.5688,-0.5688,-0.5688,-0.5735,-0.5822,-0.5908,-0.5952,-0.5994,-0.6904,-0.8001,-0.848,-0.9306,-1.0482,-1.0746,-1.0954,-1.1115,-1.1258,-1.1331,-1.1382,-1.1282,-1.1175,-1.1172,-1.1106,-1.1129,-1.1149,-1.116,-1.123,-1.1381,-1.1526,-1.1821,-1.2112,-1.254,-1.2833,-1.3209,-1.4181,-1.5242,-1.6046,-1.65,-1.6861,-1.7229,-1.7514,-1.7716,-1.791,-1.8031,-1.8112,1.2639,1.2382,1.2382,1.2382,1.2382,1.2382,1.2382,1.2382,1.2382,1.2382,1.2382,1.2327,1.1559,1.0296,0.9486,0.8544,0.6867,0.6804,0.666,0.6427,0.6387,0.6387,0.6387,0.6439,0.6489,0.6489,0.6792,0.6339,0.5229,0.4372,0.3521,0.2519,0.1666,0.1263,0.1509,0.1594,0.1564,0.1536,0.1506,0.1474,0.0993,-0.0224,-0.1612,-0.2597,-0.3494,-0.403,-0.4253,-0.4297,-0.4297,-0.4297,-0.4297,-0.4297,-0.4344,-0.4478,-0.4837,-0.5193,-0.5327,-0.5508,-0.5599,-0.5688,-0.5688,-0.5688,-0.5688,-0.5688,-0.5688,-0.5688,-0.5688,-0.5688,-0.5688,-0.5688,-0.5688,-0.5688,-0.5688,-0.5688,-0.5688,-0.5733,-0.5733,-0.5866,-0.6127,-0.6877,-0.7303,-0.8257,-0.9521,-1.0471,-1.0684,-1.0673,-1.0843,-1.098,-1.1002,-1.0827,-1.0768,-1.0856,-1.0865,-1.0873,-1.0903,-1.0973,-1.1053,-1.1176,-1.1246,-1.1433,-1.1627,-1.186,-1.2149,-1.251,-1.3124,-1.4139,-1.5075,-1.5922,-1.6245,-1.6607,-1.7106,-1.7473,-1.7676,-1.791,-1.8031,1.2639,1.2382,1.2382,1.2382,1.2382,1.2382,1.2382,1.2382,1.2382,1.2382,1.2382,1.2327,1.1837,1.0684,0.9254,0.7994,0.713,0.6787,0.6668,0.6414,0.6387,0.6387,0.6437,0.6642,0.6539,0.6539,0.7092,0.6689,0.5684,0.4474,0.3621,0.2923,0.1866,0.1111,0.1565,0.1609,0.1596,0.1566,0.1534,0.1445,0.1221,0.0314,-0.0717,-0.1657,-0.2596,-0.3537,-0.4164,-0.4297,-0.4297,-0.4297,-0.4297,-0.4297,-0.4297,-0.4297,-0.4523,-0.4837,-0.5107,-0.5416,-0.5463,-0.5599,-0.5688,-0.5688,-0.5688,-0.5688,-0.5688,-0.5688,-0.5688,-0.5688,-0.5688,-0.5688,-0.5688,-0.5688,-0.5688,-0.5688,-0.5688,-0.5688,-0.5688,-0.5733,-0.5997,-0.6124,-0.6634,-0.7549,-0.8643,-0.964,-1.0428,-1.0407,-1.0374,-1.0477,-1.0581,-1.0399,-1.0368,-1.045,-1.0623,-1.0638,-1.0729,-1.0764,-1.086,-1.1015,-1.1047,-1.1085,-1.1218,-1.1442,-1.1772,-1.2145,-1.2632,-1.3118,-1.4097,-1.4859,-1.5443,-1.6072,-1.6689,-1.7106,-1.7432,-1.7676,-1.7991,1.2526,1.2382,1.2382,1.2382,1.2382,1.2382,1.2382,1.2382,1.2382,1.2382,1.2382,1.2382,1.1669,1.0351,0.8975,0.7892,0.7004,0.6804,0.6668,0.643,0.6389,0.6387,0.6437,0.6539,0.6489,0.6589,0.6842,0.6895,0.6037,0.5381,0.4576,0.3527,0.2519,0.1766,0.1616,0.1566,0.1598,0.1566,0.1526,0.1488,0.1234,0.0497,-0.0403,-0.1387,-0.2327,-0.3269,-0.4032,-0.4297,-0.4297,-0.4297,-0.4297,-0.4297,-0.4297,-0.4297,-0.4389,-0.4478,-0.4792,-0.5104,-0.5371,-0.5555,-0.5688,-0.5688,-0.5688,-0.5688,-0.5688,-0.5688,-0.5688,-0.5688,-0.5688,-0.5688,-0.5688,-0.5688,-0.5688,-0.5688,-0.5688,-0.5688,-0.5688,-0.5688,-0.5777,-0.5866,-0.603,-0.6893,-0.7636,-0.8222,-0.9012,-0.9316,-0.9301,-0.9387,-0.9706,-0.9949,-0.9986,-1.0084,-1.025,-1.0439,-1.0514,-1.0584,-1.0646,-1.0737,-1.0758,-1.0801,-1.0866,-1.1108,-1.1457,-1.1551,-1.1733,-1.2389,-1.3239,-1.4013,-1.4768,-1.5567,-1.6319,-1.673,-1.7188,-1.7716,-1.7991,1.2382,1.2382,1.2382,1.2382,1.2382,1.2382,1.2382,1.2382,1.2382,1.2382,1.2382,1.2327,1.1446,1.0017,0.9123,0.8186,0.6911,0.6817,0.6676,0.6487,0.6403,0.6387,0.6437,0.6439,0.6489,0.6437,0.6839,0.6792,0.6639,0.6232,0.5429,0.4029,0.2922,0.2219,0.1717,0.1564,0.1602,0.157,0.1582,0.1503,0.1341,0.082,-0.0045,-0.0987,-0.2014,-0.3001,-0.3807,-0.4255,-0.4297,-0.4297,-0.4297,-0.4297,-0.4297,-0.4297,-0.4297,-0.4389,-0.4614,-0.4884,-0.5196,-0.5419,-0.5599,-0.5688,-0.5688,-0.5688,-0.5688,-0.5688,-0.5688,-0.5688,-0.5688,-0.5688,-0.5688,-0.5688,-0.5688,-0.5688,-0.5688,-0.5688,-0.5688,-0.5688,-0.5733,-0.5777,-0.5899,-0.6004,-0.6615,-0.6912,-0.7413,-0.8003,-0.8203,-0.8307,-0.8732,-0.9268,-0.9635,-0.9743,-0.9975,-1.0174,-1.0261,-1.0347,-1.042,-1.0549,-1.0571,-1.0662,-1.079,-1.0946,-1.1219,-1.1225,-1.1187,-1.1584,-1.2363,-1.3252,-1.4139,-1.4894,-1.5643,-1.6402,-1.6976,-1.7546,-1.7951,1.2382,1.2382,1.2382,1.2382,1.2382,1.2382,1.2382,1.2382,1.2382,1.2382,1.2382,1.2273,1.1446,1.0127,0.9618,0.8722,0.7015,0.6855,0.6772,0.6594,0.6452,0.6398,0.6439,0.6539,0.6642,0.6537,0.6789,0.6789,0.6686,0.6836,0.5729,0.4175,0.3574,0.232,0.1616,0.1615,0.1605,0.1581,0.1558,0.1575,0.1498,0.1244,0.0776,-0.0135,-0.1074,-0.1969,-0.3001,-0.3762,-0.4253,-0.4253,-0.4297,-0.4297,-0.4297,-0.4297,-0.4297,-0.4344,-0.4478,-0.4705,-0.4928,-0.524,-0.5508,-0.5644,-0.5688,-0.5688,-0.5688,-0.5688,-0.5688,-0.5688,-0.5688,-0.5688,-0.5688,-0.5688,-0.5688,-0.5688,-0.5688,-0.5688,-0.5688,-0.5688,-0.5733,-0.5777,-0.5808,-0.5924,-0.5923,-0.6276,-0.6548,-0.7148,-0.7549,-0.7657,-0.8055,-0.858,-0.916,-0.9478,-0.9706,-0.9872,-0.9959,-1.0077,-1.032,-1.0458,-1.0544,-1.0678,-1.0875,-1.1036,-1.1112,-1.1182,-1.1203,-1.1343,-1.1478,-1.2326,-1.3167,-1.4139,-1.4977,-1.5677,-1.6599,-1.7343,-1.7749,1.2382,1.2382,1.2382,1.2382,1.2382,1.2382,1.2382,1.2382,1.2382,1.2382,1.2382,1.2327,1.1446,1.0292,1.0288,0.9224,0.73,0.749,0.7151,0.6716,0.6507,0.6398,0.6489,0.6489,0.6489,0.6487,0.6789,0.6892,0.6742,0.6989,0.6331,0.5227,0.4628,0.3575,0.2773,0.1869,0.1658,0.1598,0.1579,0.1596,0.1517,0.144,0.1008,0.0045,-0.0224,-0.1388,-0.2688,-0.3181,-0.3717,-0.4121,-0.4253,-0.4297,-0.4297,-0.4297,-0.4297,-0.4297,-0.4433,-0.4525,-0.4748,-0.5104,-0.5463,-0.5644,-0.5688,-0.5688,-0.5688,-0.5688,-0.5688,-0.5688,-0.5688,-0.5688,-0.5688,-0.5688,-0.5688,-0.5688,-0.5688,-0.5688,-0.5688,-0.5688,-0.5688,-0.5733,-0.5777,-0.5813,-0.5761,-0.5787,-0.5992,-0.6296,-0.6653,-0.7051,-0.7425,-0.7808,-0.8397,-0.8866,-0.91,-0.954,-0.9648,-0.9898,-1.0162,-1.0322,-1.0453,-1.0729,-1.0885,-1.0955,-1.1063,-1.1112,-1.1219,-1.1316,-1.1392,-1.1564,-1.224,-1.3209,-1.4126,-1.4956,-1.5959,-1.709,-1.7587,1.2382,1.2382,1.2382,1.2382,1.2382,1.2382,1.2382,1.2382,1.2382,1.2382,1.2382,1.2327,1.1446,1.0402,1.057,0.9541,0.7825,0.7627,0.734,0.6901,0.6481,0.6403,0.6387,0.6437,0.6437,0.6439,0.6539,0.6642,0.6642,0.6942,0.6587,0.6234,0.6179,0.5131,0.3575,0.2522,0.1919,0.166,0.1597,0.1569,0.154,0.1463,0.1342,0.0454,0.018,-0.0538,-0.1792,-0.2508,-0.327,-0.3762,-0.4074,-0.4253,-0.4297,-0.4297,-0.4297,-0.4297,-0.4344,-0.4389,-0.4656,-0.5015,-0.5371,-0.5552,-0.5599,-0.5644,-0.5688,-0.5688,-0.5688,-0.5688,-0.5688,-0.5688,-0.5688,-0.5688,-0.5688,-0.5688,-0.5688,-0.5688,-0.5688,-0.5688,-0.5688,-0.5733,-0.5733,-0.5733,-0.5714,-0.5703,-0.5731,-0.5848,-0.5956,-0.6354,-0.6731,-0.7133,-0.7551,-0.8017,-0.8367,-0.8866,-0.9305,-0.9513,-0.9722,-0.9988,-1.0218,-1.0669,-1.0875,-1.0925,-1.1032,-1.1166,-1.1257,-1.13,-1.1354,-1.1435,-1.1817,-1.2369,-1.3451,-1.4747,-1.5703,-1.6796,-1.7465,1.2382,1.2382,1.2382,1.2382,1.2382,1.2382,1.2382,1.2382,1.2382,1.2382,1.2382,1.2382,1.1446,1.0347,1.0794,0.9658,0.7822,0.7849,0.766,0.6908,0.6481,0.6403,0.6387,0.6387,0.6437,0.6437,0.6537,0.6639,0.6539,0.6942,0.6842,0.6942,0.6986,0.6331,0.4472,0.3522,0.2621,0.1767,0.1613,0.1593,0.1565,0.1534,0.1362,0.1151,0.0588,-0.0045,-0.0762,-0.1747,-0.2509,-0.3181,-0.3762,-0.4074,-0.4297,-0.4297,-0.4297,-0.4297,-0.4297,-0.4297,-0.4342,-0.4788,-0.5099,-0.5371,-0.5416,-0.5508,-0.5644,-0.5688,-0.5688,-0.5688,-0.5688,-0.5688,-0.5688,-0.5688,-0.5688,-0.5688,-0.5688,-0.5688,-0.5688,-0.5688,-0.5688,-0.5688,-0.5688,-0.5688,-0.5688,-0.57,-0.5594,-0.5584,-0.5448,-0.5676,-0.6139,-0.6421,-0.6817,-0.7291,-0.7692,-0.8119,-0.8594,-0.8964,-0.9255,-0.9553,-0.9883,-1.033,-1.0726,-1.0926,-1.1064,-1.1214,-1.1278,-1.1305,-1.1311,-1.1311,-1.165,-1.2112,-1.3542,-1.4754,-1.5662,-1.637,-1.7,1.2382,1.2382,1.2382,1.2382,1.2382,1.2382,1.2382,1.2382,1.2382,1.2382,1.2382,1.2382,1.145,1.068,1.0941,1.0186,0.7774,0.8491,0.8351,0.6766,0.651,0.6408,0.6437,0.6487,0.6539,0.6689,0.6789,0.6989,0.7244,0.7344,0.754,0.769,0.754,0.6634,0.4974,0.3723,0.2671,0.1768,0.1563,0.1601,0.1573,0.1543,0.1512,0.1482,0.1044,0.0628,0.0135,-0.0896,-0.1613,-0.2553,-0.3269,-0.3673,-0.4074,-0.4253,-0.4297,-0.4297,-0.4297,-0.4297,-0.4297,-0.452,-0.4743,-0.5013,-0.5282,-0.5374,-0.5508,-0.5644,-0.5688,-0.5688,-0.5688,-0.5688,-0.5688,-0.5688,-0.5688,-0.5688,-0.5688,-0.5688,-0.5688,-0.5688,-0.5688,-0.5688,-0.5688,-0.5688,-0.5688,-0.5688,-0.5648,-0.5605,-0.5529,-0.5428,-0.5744,-0.5803,-0.6043,-0.6566,-0.7029,-0.7443,-0.7852,-0.8238,-0.8779,-0.9188,-0.9507,-0.9843,-1.0273,-1.073,-1.0869,-1.0885,-1.1079,-1.1311,-1.1311,-1.1311,-1.1392,-1.2026,-1.3033,-1.3831,-1.4406,-1.5323,-1.6288,1.2604,1.2387,1.2382,1.2382,1.2382,1.2382,1.2382,1.2382,1.2382,1.2382,1.2382,1.2382,1.1614,1.1008,1.1378,1.0691,0.7783,0.8705,0.8394,0.6819,0.6544,0.6553,0.6589,0.6637,0.6839,0.6992,0.7089,0.7288,0.7341,0.7693,0.7842,0.7889,0.7939,0.6983,0.5527,0.4375,0.3323,0.2471,0.2016,0.1609,0.1581,0.1552,0.1518,0.1491,0.1326,0.1076,0.0583,0.0045,-0.0538,-0.1702,-0.2553,-0.3092,-0.3717,-0.4119,-0.4253,-0.4297,-0.4297,-0.4297,-0.4297,-0.4297,-0.452,-0.4701,-0.5015,-0.5238,-0.5371,-0.5508,-0.5599,-0.5688,-0.5688,-0.5688,-0.5688,-0.5688,-0.5688,-0.5688,-0.5688,-0.5688,-0.5688,-0.5688,-0.5688,-0.5688,-0.5688,-0.5688,-0.5688,-0.5688,-0.5664,-0.5642,-0.5618,-0.5556,-0.5458,-0.5526,-0.56,-0.6014,-0.6318,-0.6593,-0.7044,-0.749,-0.8084,-0.8786,-0.9109,-0.9323,-0.9845,-1.0269,-1.0409,-1.0593,-1.0814,-1.0997,-1.1219,-1.1311,-1.1354,-1.1435,-1.1854,-1.2565,-1.3112,-1.4196,-1.5413,1.2989,1.2495,1.2441,1.2441,1.2382,1.2382,1.2382,1.2382,1.2382,1.2382,1.2382,1.2382,1.1837,1.1345,1.1991,1.0816,0.8819,0.9144,0.8208,0.7214,0.6835,0.6806,0.6892,0.6989,0.7089,0.7188,0.7288,0.7338,0.7288,0.764,0.7842,0.7942,0.7988,0.7335,0.6381,0.5379,0.4225,0.3073,0.2319,0.1864,0.1648,0.156,0.1534,0.1506,0.1429,0.1355,0.0988,0.0583,0.0134,-0.0717,-0.1657,-0.2464,-0.3136,-0.3805,-0.4074,-0.4297,-0.4297,-0.4297,-0.4297,-0.4297,-0.4297,-0.4478,-0.4567,-0.4926,-0.5238,-0.5416,-0.5552,-0.5644,-0.5688,-0.5688,-0.5688,-0.5688,-0.5688,-0.5688,-0.5688,-0.5688,-0.5688,-0.5688,-0.5688,-0.5688,-0.5688,-0.5688,-0.5688,-0.5688,-0.5688,-0.568,-0.5653,-0.5618,-0.5537,-0.5521,-0.5599,-0.5599,-0.5789,-0.5738,-0.6133,-0.6728,-0.7271,-0.7929,-0.8452,-0.8755,-0.9327,-0.9632,-0.9719,-0.9893,-1.0371,-1.0727,-1.0949,-1.1176,-1.1311,-1.1392,-1.1478,-1.1811,-1.2565,-1.3493,-1.458,1.3576,1.3044,1.3044,1.2827,1.2441,1.2382,1.2382,1.2382,1.2382,1.2382,1.2382,1.2382,1.1946,1.1232,1.1859,1.0773,0.9853,0.9109,0.8595,0.7875,0.7216,0.7144,0.7138,0.7188,0.7288,0.7441,0.749,0.754,0.7739,0.7892,0.7892,0.7988,0.7988,0.7686,0.7185,0.6434,0.4979,0.3674,0.2923,0.2321,0.1809,0.1624,0.1598,0.1518,0.1487,0.1458,0.126,0.1122,0.0673,-0.0134,-0.0493,-0.1254,-0.2956,-0.3224,-0.3448,-0.4253,-0.4297,-0.4297,-0.4297,-0.4297,-0.4297,-0.4297,-0.4389,-0.4654,-0.5013,-0.5282,-0.5463,-0.5599,-0.5688,-0.5688,-0.5688,-0.5688,-0.5688,-0.5688,-0.5688,-0.5688,-0.5688,-0.5688,-0.5688,-0.5688,-0.5688,-0.5688,-0.5688,-0.5688,-0.5688,-0.5688,-0.568,-0.5656,-0.564,-0.5618,-0.5607,-0.5605,-0.5613,-0.5632,-0.5648,-0.611,-0.6558,-0.7051,-0.7577,-0.7969,-0.8145,-0.8448,-0.8759,-0.9283,-0.9941,-1.0376,-1.0722,-1.0949,-1.1267,-1.1311,-1.1392,-1.1645,-1.2026,-1.2863,-1.362,1.4175,1.3694,1.3635,1.331,1.2876,1.298,1.298,1.2767,1.2495,1.2382,1.2382,1.2382,1.2219,1.2082,1.2072,1.1498,1.0608,0.9725,0.9,0.8371,0.764,0.7441,0.7338,0.7437,0.764,0.7743,0.7793,0.7842,0.7988,0.7988,0.7988,0.7988,0.7988,0.7988,0.7736,0.7235,0.6234,0.4828,0.3676,0.2923,0.2355,0.1835,0.1605,0.1527,0.1497,0.1468,0.1395,0.1391,0.1031,0.0493,0.0359,-0.0448,-0.1971,-0.2329,-0.3314,-0.4074,-0.4297,-0.4297,-0.4297,-0.4297,-0.4297,-0.4297,-0.4297,-0.4523,-0.479,-0.5057,-0.5327,-0.5508,-0.5644,-0.5688,-0.5688,-0.5688,-0.5688,-0.5688,-0.5688,-0.5688,-0.5688,-0.5688,-0.5688,-0.5688,-0.5688,-0.5688,-0.5688,-0.5688,-0.5688,-0.5688,-0.5688,-0.568,-0.5672,-0.5664,-0.5659,-0.5656,-0.5664,-0.5677,-0.5688,-0.5688,-0.6041,-0.6479,-0.6827,-0.7132,-0.7088,-0.7441,-0.7965,-0.8759,-0.9637,-1.0028,-1.0419,-1.0949,-1.1311,-1.1267,-1.1267,-1.1435,-1.1645,-1.2026,-1.2693,1.4767,1.4277,1.4223,1.3851,1.3472,1.39,1.3846,1.3369,1.2876,1.255,1.2599,1.2599,1.2852,1.2935,1.2631,1.242,1.1462,1.0454,0.955,0.8859,0.7985,0.7643,0.769,0.7839,0.7839,0.7939,0.7988,0.7939,0.7988,0.7988,0.7988,0.7988,0.7988,0.7988,0.7939,0.7889,0.7135,0.6282,0.4778,0.3676,0.3011,0.233,0.1657,0.1528,0.15,0.1472,0.1445,0.1391,0.1391,0.1076,0.0718,0.0135,-0.0717,-0.1971,-0.3224,-0.3851,-0.4164,-0.4297,-0.4297,-0.4297,-0.4297,-0.4297,-0.4297,-0.4433,-0.4656,-0.4879,-0.5104,-0.5419,-0.5552,-0.5644,-0.5688,-0.5688,-0.5688,-0.5688,-0.5688,-0.5688,-0.5688,-0.5688,-0.5688,-0.5688,-0.5688,-0.5688,-0.5688,-0.5688,-0.5688,-0.5688,-0.5688,-0.5688,-0.5688,-0.5688,-0.5688,-0.5688,-0.5688,-0.5688,-0.5688,-0.5688,-0.5688,-0.5997,-0.6254,-0.6251,-0.6207,-0.6647,-0.7217,-0.7965,-0.8715,-0.9593,-1.0115,-1.0603,-1.0997,-1.1132,-1.1132,-1.1267,-1.1435,-1.165,-1.1854,1.5357,1.4767,1.4385,1.4116,1.4008,1.4116,1.4169,1.3959,1.3846,1.3781,1.3732,1.3771,1.3692,1.3593,1.3252,1.3017,1.2546,1.1052,1.0259,0.9468,0.8581,0.7842,0.7889,0.7939,0.7988,0.7988,0.7988,0.7988,0.7988,0.7988,0.7988,0.7988,0.7988,0.7988,0.7988,0.7988,0.7686,0.7285,0.6284,0.4678,0.3569,0.3052,0.2521,0.1881,0.1511,0.1484,0.1412,0.1391,0.1391,0.1301,0.1211,0.0718,-0.0045,-0.1837,-0.2867,-0.3315,-0.3896,-0.4119,-0.4297,-0.4297,-0.4297,-0.4297,-0.4297,-0.4344,-0.4478,-0.4656,-0.4926,-0.5238,-0.5463,-0.5552,-0.5644,-0.5688,-0.5688,-0.5688,-0.5688,-0.5688,-0.5688,-0.5688,-0.5688,-0.5688,-0.5688,-0.5688,-0.5688,-0.5688,-0.5688,-0.5688,-0.5688,-0.5688,-0.5688,-0.5688,-0.5688,-0.5688,-0.5688,-0.5688,-0.5688,-0.5688,-0.5688,-0.5552,-0.568,-0.5544,-0.5324,-0.5855,-0.6428,-0.6959,-0.7661,-0.8584,-0.9414,-1.0115,-1.0467,-1.0689,-1.1127,-1.1267,-1.1311,-1.1435,-1.1478,1.5731,1.5357,1.5083,1.4809,1.4654,1.4869,1.4815,1.4637,1.4702,1.4811,1.4646,1.4269,1.4044,1.3953,1.3577,1.3674,1.3259,1.1373,1.0761,1.0149,0.9023,0.8187,0.7988,0.7988,0.7988,0.7988,0.7988,0.7988,0.7988,0.7988,0.7988,0.7988,0.7988,0.7988,0.7988,0.7988,0.7988,0.7939,0.7288,0.6132,0.4427,0.3762,0.2736,0.1896,0.1527,0.1498,0.147,0.1446,0.1391,0.1391,0.1346,0.0807,0.009,-0.0896,-0.1971,-0.2777,-0.3405,-0.3851,-0.4119,-0.4297,-0.4297,-0.4297,-0.4297,-0.4344,-0.4344,-0.4523,-0.4743,-0.5057,-0.5371,-0.5508,-0.5644,-0.5688,-0.5688,-0.5688,-0.5688,-0.5688,-0.5688,-0.5688,-0.5688,-0.5688,-0.5688,-0.5688,-0.5688,-0.5688,-0.5688,-0.5688,-0.5688,-0.5688,-0.5688,-0.5688,-0.5688,-0.5688,-0.5688,-0.5688,-0.5688,-0.5688,-0.5644,-0.5463,-0.5235,-0.5013,-0.4966,-0.5235,-0.5683,-0.6166,-0.6782,-0.7573,-0.8404,-0.9192,-0.9898,-1.025,-1.0781,-1.1267,-1.1311,-1.1311,-1.1348,1.5891,1.5885,1.5885,1.5624,1.5196,1.5672,1.5541,1.5163,1.534,1.5429,1.5225,1.4353,1.4255,1.4139,1.3847,1.4134,1.3599,1.1639,1.1082,1.044,0.8924,0.8233,0.7988,0.7988,0.7988,0.7988,0.7988,0.7988,0.7988,0.7988,0.7988,0.7988,0.7988,0.7988,0.7988,0.7988,0.7988,0.7988,0.7637,0.7285,0.5982,0.4524,0.3181,0.2205,0.159,0.1512,0.1481,0.1456,0.1394,0.1391,0.1391,0.0987,0.0493,-0.0179,-0.0986,-0.1881,-0.2822,-0.3315,-0.3851,-0.4166,-0.4255,-0.4297,-0.4297,-0.4297,-0.4297,-0.4387,-0.461,-0.4879,-0.5193,-0.5416,-0.5552,-0.5688,-0.5688,-0.5688,-0.5688,-0.5688,-0.5688,-0.5688,-0.5688,-0.5688,-0.5688,-0.5688,-0.5688,-0.5688,-0.5688,-0.5688,-0.5688,-0.5688,-0.5688,-0.5688,-0.5688,-0.5688,-0.5688,-0.5688,-0.5688,-0.5688,-0.5644,-0.5419,-0.5191,-0.4788,-0.4565,-0.4835,-0.5057,-0.5324,-0.5985,-0.6691,-0.7394,-0.8185,-0.8886,-0.9593,-1.025,-1.0824,-1.1311,-1.1311,-1.1311,1.5885,1.5885,1.5885,1.5838,1.5731,1.5832,1.5718,1.5433,1.5465,1.539,1.5065,1.4805,1.4616,1.4672,1.4544,1.4489,1.394,1.2014,1.1277,1.0832,0.9118,0.8333,0.7988,0.7988,0.7988,0.7988,0.7988,0.7988,0.7988,0.7988,0.7988,0.7988,0.7988,0.7988,0.7988,0.7988,0.7988,0.7988,0.7889,0.7537,0.6534,0.5211,0.4077,0.3037,0.1974,0.17,0.1481,0.1451,0.1395,0.1391,0.1391,0.1256,0.0942,0.0448,-0.0224,-0.0941,-0.1881,-0.2598,-0.309,-0.3762,-0.3941,-0.4119,-0.4119,-0.4297,-0.4297,-0.4297,-0.4523,-0.4659,-0.4971,-0.5191,-0.5371,-0.5599,-0.5644,-0.5688,-0.5688,-0.5688,-0.5688,-0.5688,-0.5688,-0.5688,-0.5688,-0.5688,-0.5688,-0.5688,-0.5688,-0.5688,-0.5688,-0.5688,-0.5688,-0.5688,-0.5688,-0.5688,-0.5688,-0.5688,-0.5688,-0.5644,-0.5599,-0.5371,-0.5102,-0.4699,-0.4476,-0.4387,-0.4567,-0.4835,-0.5146,-0.5677,-0.6425,-0.7173,-0.7965,-0.8755,-0.9589,-1.025,-1.0824,-1.1311,-1.1311]}]]